<?xml version="1.0" encoding="UTF-8"?><gpx version="1.1" creator="Garmin Explore App" xmlns="http://www.topografix.com/GPX/1/1" xmlns:adv="http://www.garmin.com/xmlschemas/AdventuresExtensions/v1" xmlns:gpxtpx="http://www.garmin.com/xmlschemas/TrackPointExtension/v1" xmlns:gpxtrx="http://www.garmin.com/xmlschemas/GpxExtensions/v3" xmlns:gpxx="http://www.garmin.com/xmlschemas/GpxExtensions/v3" xmlns:trp="http://www.garmin.com/xmlschemas/TripExtensions/v1" xmlns:wptx1="http://www.garmin.com/xmlschemas/WaypointExtension/v1" xmlns:xsi="http://www.w3.org/2001/XMLSchema-instance" xsi:schemaLocation="http://www.topografix.com/GPX/1/1 http://www.topografix.com/GPX/1/1/gpx.xsd http://www.garmin.com/xmlschemas/WaypointExtension/v1 http://www8.garmin.com/xmlschemas/WaypointExtensionv1.xsd http://www.garmin.com/xmlschemas/TrackPointExtension/v1 http://www.garmin.com/xmlschemas/TrackPointExtensionv1.xsd http://www.garmin.com/xmlschemas/GpxExtensions/v3 http://www8.garmin.com/xmlschemas/GpxExtensionsv3.xsd http://www.garmin.com/xmlschemas/ActivityExtension/v1 http://www8.garmin.com/xmlschemas/ActivityExtensionv1.xsd http://www.garmin.com/xmlschemas/AdventuresExtensions/v1 http://www8.garmin.com/xmlschemas/AdventuresExtensionv1.xsd http://www.garmin.com/xmlschemas/PressureExtension/v1 http://www.garmin.com/xmlschemas/PressureExtensionv1.xsd"><metadata><name>2026-08-18 064920.gpx</name><link href="http://www.garmin.com"><text>Garmin International</text></link><time>2026-08-18T04:29:07.768Z</time></metadata><trk><name>2026-08-18 06:49:20</name><extensions><gpxx:TrackExtension xmlns:gpxx="http://www.garmin.com/xmlschemas/GpxExtensions/v3"><gpxx:DisplayColor>Cyan</gpxx:DisplayColor></gpxx:TrackExtension></extensions><trkseg><trkpt lat="59.677959429100156" lon="33.168501779437065"><ele>45.31999969482422</ele><time>2026-08-17T09:44:33.000Z</time><extensions/></trkpt><trkpt lat="59.678010726347566" lon="33.16842399537563"><ele>45.31999969482422</ele><time>2026-08-17T09:45:17.000Z</time><extensions/></trkpt><trkpt lat="59.678006786853075" lon="33.168437825515866"><ele>44.84000015258789</ele><time>2026-08-17T09:46:32.000Z</time><extensions/></trkpt><trkpt lat="59.67804182320833" lon="33.168472945690155"><ele>44.84000015258789</ele><time>2026-08-17T09:46:35.000Z</time><extensions/></trkpt><trkpt lat="59.67838606797159" lon="33.16884946078062"><ele>45.31999969482422</ele><time>2026-08-17T09:46:48.000Z</time><extensions/></trkpt><trkpt lat="59.67841565608978" lon="33.168928334489465"><ele>45.31999969482422</ele><time>2026-08-17T09:46:49.000Z</time><extensions/></trkpt><trkpt lat="59.67843904159963" lon="33.16903327591717"><ele>45.31999969482422</ele><time>2026-08-17T09:46:50.000Z</time><extensions/></trkpt><trkpt lat="59.67845622450113" lon="33.16916252486408"><ele>45.31999969482422</ele><time>2026-08-17T09:46:51.000Z</time><extensions/></trkpt><trkpt lat="59.678470976650715" lon="33.1693166680634"><ele>45.79999923706055</ele><time>2026-08-17T09:46:52.000Z</time><extensions/></trkpt><trkpt lat="59.678604835644364" lon="33.17091878503561"><ele>46.7599983215332</ele><time>2026-08-17T09:46:59.000Z</time><extensions/></trkpt><trkpt lat="59.67890038155019" lon="33.1746959220618"><ele>48.20000076293945</ele><time>2026-08-17T09:47:11.000Z</time><extensions/></trkpt><trkpt lat="59.67927396297455" lon="33.17899491637945"><ele>47.2400016784668</ele><time>2026-08-17T09:47:22.000Z</time><extensions/></trkpt><trkpt lat="59.679806884378195" lon="33.18530305288732"><ele>48.20000076293945</ele><time>2026-08-17T09:47:37.000Z</time><extensions/></trkpt><trkpt lat="59.680407950654626" lon="33.19251869805157"><ele>49.15999984741211</ele><time>2026-08-17T09:47:54.000Z</time><extensions/></trkpt><trkpt lat="59.6810601465404" lon="33.20042224600911"><ele>50.130001068115234</ele><time>2026-08-17T09:48:12.000Z</time><extensions/></trkpt><trkpt lat="59.681491227820516" lon="33.20576772093773"><ele>53.4900016784668</ele><time>2026-08-17T09:48:24.000Z</time><extensions/></trkpt><trkpt lat="59.68213797546923" lon="33.21359918452799"><ele>55.40999984741211</ele><time>2026-08-17T09:48:41.000Z</time><extensions/></trkpt><trkpt lat="59.68285026960075" lon="33.22245826944709"><ele>56.369998931884766</ele><time>2026-08-17T09:48:59.000Z</time><extensions/></trkpt><trkpt lat="59.683582596480846" lon="33.231610553339124"><ele>53.970001220703125</ele><time>2026-08-17T09:49:17.000Z</time><extensions/></trkpt><trkpt lat="59.68407176434994" lon="33.237613923847675"><ele>52.04999923706055</ele><time>2026-08-17T09:49:29.000Z</time><extensions/></trkpt><trkpt lat="59.68467643484473" lon="33.245223267003894"><ele>54.93000030517578</ele><time>2026-08-17T09:49:44.000Z</time><extensions/></trkpt><trkpt lat="59.68539459630847" lon="33.254404217004776"><ele>55.88999938964844</ele><time>2026-08-17T09:50:02.000Z</time><extensions/></trkpt><trkpt lat="59.68575778417289" lon="33.25897017493844"><ele>52.529998779296875</ele><time>2026-08-17T09:50:12.000Z</time><extensions/></trkpt><trkpt lat="59.68623504973948" lon="33.26495527289808"><ele>50.61000061035156</ele><time>2026-08-17T09:50:26.000Z</time><extensions/></trkpt><trkpt lat="59.68664987012744" lon="33.270179545506835"><ele>47.2400016784668</ele><time>2026-08-17T09:50:38.000Z</time><extensions/></trkpt><trkpt lat="59.686684319749475" lon="33.27062638476491"><ele>46.7599983215332</ele><time>2026-08-17T09:50:39.000Z</time><extensions/></trkpt><trkpt lat="59.687284380197525" lon="33.278258023783565"><ele>48.68000030517578</ele><time>2026-08-17T09:50:56.000Z</time><extensions/></trkpt><trkpt lat="59.68785191886127" lon="33.285444332286716"><ele>49.650001525878906</ele><time>2026-08-17T09:51:12.000Z</time><extensions/></trkpt><trkpt lat="59.68826246447861" lon="33.29059358686209"><ele>50.130001068115234</ele><time>2026-08-17T09:51:25.000Z</time><extensions/></trkpt><trkpt lat="59.6886826492846" lon="33.29602329991758"><ele>48.20000076293945</ele><time>2026-08-17T09:51:40.000Z</time><extensions/></trkpt><trkpt lat="59.68913862481713" lon="33.30139433965087"><ele>47.720001220703125</ele><time>2026-08-17T09:51:55.000Z</time><extensions/></trkpt><trkpt lat="59.68950558453798" lon="33.306329268962145"><ele>47.720001220703125</ele><time>2026-08-17T09:52:06.000Z</time><extensions/></trkpt><trkpt lat="59.68973508104682" lon="33.309286236763"><ele>46.279998779296875</ele><time>2026-08-17T09:52:14.000Z</time><extensions/></trkpt><trkpt lat="59.689949322491884" lon="33.311979258432984"><ele>43.400001525878906</ele><time>2026-08-17T09:52:24.000Z</time><extensions/></trkpt><trkpt lat="59.690144369378686" lon="33.31428243778646"><ele>42.439998626708984</ele><time>2026-08-17T09:52:35.000Z</time><extensions/></trkpt><trkpt lat="59.69044351950288" lon="33.318008948117495"><ele>40.029998779296875</ele><time>2026-08-17T09:52:49.000Z</time><extensions/></trkpt><trkpt lat="59.6906927973032" lon="33.32124897278845"><ele>39.54999923706055</ele><time>2026-08-17T09:53:02.000Z</time><extensions/></trkpt><trkpt lat="59.69087116420269" lon="33.3253079932183"><ele>41.95000076293945</ele><time>2026-08-17T09:53:18.000Z</time><extensions/></trkpt><trkpt lat="59.69116645865142" lon="33.32917582243681"><ele>41.95000076293945</ele><time>2026-08-17T09:53:33.000Z</time><extensions/></trkpt><trkpt lat="59.69187472946942" lon="33.3323535695672"><ele>40.5099983215332</ele><time>2026-08-17T09:53:46.000Z</time><extensions/></trkpt><trkpt lat="59.692383762449026" lon="33.33552997559309"><ele>40.9900016784668</ele><time>2026-08-17T09:53:58.000Z</time><extensions/></trkpt><trkpt lat="59.69214596785605" lon="33.33775084465742"><ele>40.5099983215332</ele><time>2026-08-17T09:54:06.000Z</time><extensions/></trkpt><trkpt lat="59.69125832431018" lon="33.341676257550716"><ele>42.439998626708984</ele><time>2026-08-17T09:54:22.000Z</time><extensions/></trkpt><trkpt lat="59.69070713035762" lon="33.34409276023507"><ele>45.79999923706055</ele><time>2026-08-17T09:54:32.000Z</time><extensions/></trkpt><trkpt lat="59.69005258753896" lon="33.34707386791706"><ele>49.15999984741211</ele><time>2026-08-17T09:54:43.000Z</time><extensions/></trkpt><trkpt lat="59.689296539872885" lon="33.350873636081815"><ele>51.09000015258789</ele><time>2026-08-17T09:54:54.000Z</time><extensions/></trkpt><trkpt lat="59.688194151967764" lon="33.356641978025436"><ele>51.56999969482422</ele><time>2026-08-17T09:55:09.000Z</time><extensions/></trkpt><trkpt lat="59.68680879101157" lon="33.36394999176264"><ele>51.56999969482422</ele><time>2026-08-17T09:55:28.000Z</time><extensions/></trkpt><trkpt lat="59.68525109812617" lon="33.37217942811549"><ele>51.56999969482422</ele><time>2026-08-17T09:55:50.000Z</time><extensions/></trkpt><trkpt lat="59.684233451262116" lon="33.37754367850721"><ele>50.130001068115234</ele><time>2026-08-17T09:56:05.000Z</time><extensions/></trkpt><trkpt lat="59.68286904506385" lon="33.3847089484334"><ele>49.650001525878906</ele><time>2026-08-17T09:56:25.000Z</time><extensions/></trkpt><trkpt lat="59.68163514509797" lon="33.38999633677304"><ele>52.04999923706055</ele><time>2026-08-17T09:56:40.000Z</time><extensions/></trkpt><trkpt lat="59.68055555596948" lon="33.39498147368431"><ele>53.4900016784668</ele><time>2026-08-17T09:56:53.000Z</time><extensions/></trkpt><trkpt lat="59.67998642474413" lon="33.399739461019635"><ele>53.970001220703125</ele><time>2026-08-17T09:57:04.000Z</time><extensions/></trkpt><trkpt lat="59.67989866621792" lon="33.40431287884712"><ele>54.45000076293945</ele><time>2026-08-17T09:57:14.000Z</time><extensions/></trkpt><trkpt lat="59.68009555712342" lon="33.407878121361136"><ele>54.93000030517578</ele><time>2026-08-17T09:57:22.000Z</time><extensions/></trkpt><trkpt lat="59.680511467158794" lon="33.41412054374814"><ele>53.970001220703125</ele><time>2026-08-17T09:57:37.000Z</time><extensions/></trkpt><trkpt lat="59.68098672106862" lon="33.421277767047286"><ele>51.56999969482422</ele><time>2026-08-17T09:57:54.000Z</time><extensions/></trkpt><trkpt lat="59.68149298802018" lon="33.42896548099816"><ele>51.09000015258789</ele><time>2026-08-17T09:58:12.000Z</time><extensions/></trkpt><trkpt lat="59.68199414201081" lon="33.43651128932834"><ele>53.0099983215332</ele><time>2026-08-17T09:58:30.000Z</time><extensions/></trkpt><trkpt lat="59.68257685191929" lon="33.441904457286"><ele>53.4900016784668</ele><time>2026-08-17T09:58:43.000Z</time><extensions/></trkpt><trkpt lat="59.68353884294629" lon="33.447003085166216"><ele>53.970001220703125</ele><time>2026-08-17T09:58:56.000Z</time><extensions/></trkpt><trkpt lat="59.684980027377605" lon="33.452645279467106"><ele>54.45000076293945</ele><time>2026-08-17T09:59:11.000Z</time><extensions/></trkpt><trkpt lat="59.68625013716519" lon="33.45822159200907"><ele>54.45000076293945</ele><time>2026-08-17T09:59:26.000Z</time><extensions/></trkpt><trkpt lat="59.686723882332444" lon="33.46201105043292"><ele>54.45000076293945</ele><time>2026-08-17T09:59:36.000Z</time><extensions/></trkpt><trkpt lat="59.68693577684462" lon="33.46741871908307"><ele>53.0099983215332</ele><time>2026-08-17T09:59:49.000Z</time><extensions/></trkpt><trkpt lat="59.68667082488537" lon="33.472033543512225"><ele>50.61000061035156</ele><time>2026-08-17T10:00:00.000Z</time><extensions/></trkpt><trkpt lat="59.686192721128464" lon="33.475749492645264"><ele>47.720001220703125</ele><time>2026-08-17T10:00:10.000Z</time><extensions/></trkpt><trkpt lat="59.68538973480463" lon="33.481794940307736"><ele>46.279998779296875</ele><time>2026-08-17T10:00:26.000Z</time><extensions/></trkpt><trkpt lat="59.68482454307377" lon="33.48662459291518"><ele>46.279998779296875</ele><time>2026-08-17T10:00:40.000Z</time><extensions/></trkpt><trkpt lat="59.68463972210884" lon="33.48834078758955"><ele>45.31999969482422</ele><time>2026-08-17T10:00:48.000Z</time><extensions/></trkpt><trkpt lat="59.684602841734886" lon="33.488494930788875"><ele>45.31999969482422</ele><time>2026-08-17T10:00:49.000Z</time><extensions/></trkpt><trkpt lat="59.68455657362938" lon="33.488639518618584"><ele>45.31999969482422</ele><time>2026-08-17T10:00:50.000Z</time><extensions/></trkpt><trkpt lat="59.68449798412621" lon="33.48877287469804"><ele>45.31999969482422</ele><time>2026-08-17T10:00:51.000Z</time><extensions/></trkpt><trkpt lat="59.68442623503506" lon="33.488885359838605"><ele>45.31999969482422</ele><time>2026-08-17T10:00:52.000Z</time><extensions/></trkpt><trkpt lat="59.684341493994" lon="33.48898099735379"><ele>45.31999969482422</ele><time>2026-08-17T10:00:53.000Z</time><extensions/></trkpt><trkpt lat="59.684249460697174" lon="33.48908015526831"><ele>45.31999969482422</ele><time>2026-08-17T10:00:54.000Z</time><extensions/></trkpt><trkpt lat="59.68415734358132" lon="33.489196076989174"><ele>45.31999969482422</ele><time>2026-08-17T10:00:55.000Z</time><extensions/></trkpt><trkpt lat="59.68407176434994" lon="33.48933035507798"><ele>45.31999969482422</ele><time>2026-08-17T10:00:56.000Z</time><extensions/></trkpt><trkpt lat="59.68399473465979" lon="33.48948617465794"><ele>45.31999969482422</ele><time>2026-08-17T10:00:57.000Z</time><extensions/></trkpt><trkpt lat="59.68393296003342" lon="33.48966537974775"><ele>45.31999969482422</ele><time>2026-08-17T10:00:58.000Z</time><extensions/></trkpt><trkpt lat="59.68388769775629" lon="33.48986277356744"><ele>45.31999969482422</ele><time>2026-08-17T10:00:59.000Z</time><extensions/></trkpt><trkpt lat="59.683860540390015" lon="33.490071231499314"><ele>45.31999969482422</ele><time>2026-08-17T10:01:00.000Z</time><extensions/></trkpt><trkpt lat="59.683851320296526" lon="33.49028304219246"><ele>44.84000015258789</ele><time>2026-08-17T10:01:01.000Z</time><extensions/></trkpt><trkpt lat="59.68385827727616" lon="33.490494852885604"><ele>44.84000015258789</ele><time>2026-08-17T10:01:02.000Z</time><extensions/></trkpt><trkpt lat="59.6838821657002" lon="33.49070884287357"><ele>44.84000015258789</ele><time>2026-08-17T10:01:03.000Z</time><extensions/></trkpt><trkpt lat="59.68392482958734" lon="33.49091839045286"><ele>44.84000015258789</ele><time>2026-08-17T10:01:04.000Z</time><extensions/></trkpt><trkpt lat="59.68398341909051" lon="33.491109665483236"><ele>44.84000015258789</ele><time>2026-08-17T10:01:05.000Z</time><extensions/></trkpt><trkpt lat="59.68405483290553" lon="33.49127956666052"><ele>44.36000061035156</ele><time>2026-08-17T10:01:06.000Z</time><extensions/></trkpt><trkpt lat="59.68413529917598" lon="33.49142641760409"><ele>44.36000061035156</ele><time>2026-08-17T10:01:07.000Z</time><extensions/></trkpt><trkpt lat="59.68421953730285" lon="33.49156538955867"><ele>44.36000061035156</ele><time>2026-08-17T10:01:08.000Z</time><extensions/></trkpt><trkpt lat="59.6843671426177" lon="33.49186688661575"><ele>44.36000061035156</ele><time>2026-08-17T10:01:10.000Z</time><extensions/></trkpt><trkpt lat="59.68440871685743" lon="33.492048271000385"><ele>44.36000061035156</ele><time>2026-08-17T10:01:11.000Z</time><extensions/></trkpt><trkpt lat="59.6844276599586" lon="33.49224926903844"><ele>44.36000061035156</ele><time>2026-08-17T10:01:12.000Z</time><extensions/></trkpt><trkpt lat="59.68443185091019" lon="33.49246828816831"><ele>44.36000061035156</ele><time>2026-08-17T10:01:13.000Z</time><extensions/></trkpt><trkpt lat="59.68442757613957" lon="33.49269988015294"><ele>44.36000061035156</ele><time>2026-08-17T10:01:14.000Z</time><extensions/></trkpt><trkpt lat="59.68437728472054" lon="33.49504832178354"><ele>45.31999969482422</ele><time>2026-08-17T10:01:22.000Z</time><extensions/></trkpt><trkpt lat="59.68439748510718" lon="33.499548230320215"><ele>46.7599983215332</ele><time>2026-08-17T10:01:34.000Z</time><extensions/></trkpt><trkpt lat="59.68452421948314" lon="33.5066188685596"><ele>48.68000030517578</ele><time>2026-08-17T10:01:51.000Z</time><extensions/></trkpt><trkpt lat="59.68462555669248" lon="33.51233105175197"><ele>51.56999969482422</ele><time>2026-08-17T10:02:04.000Z</time><extensions/></trkpt><trkpt lat="59.684694120660424" lon="33.516103494912386"><ele>54.93000030517578</ele><time>2026-08-17T10:02:12.000Z</time><extensions/></trkpt><trkpt lat="59.68474667519331" lon="33.519010255113244"><ele>58.29999923706055</ele><time>2026-08-17T10:02:18.000Z</time><extensions/></trkpt><trkpt lat="59.684759583324194" lon="33.522425880655646"><ele>61.18000030517578</ele><time>2026-08-17T10:02:25.000Z</time><extensions/></trkpt><trkpt lat="59.68454886227846" lon="33.52677432820201"><ele>64.55000305175781</ele><time>2026-08-17T10:02:34.000Z</time><extensions/></trkpt><trkpt lat="59.683853751048446" lon="33.53247754275799"><ele>65.98999786376953</ele><time>2026-08-17T10:02:46.000Z</time><extensions/></trkpt><trkpt lat="59.68218818306923" lon="33.543513994663954"><ele>65.98999786376953</ele><time>2026-08-17T10:03:09.000Z</time><extensions/></trkpt><trkpt lat="59.680806174874306" lon="33.552696788683534"><ele>66.94999694824219</ele><time>2026-08-17T10:03:28.000Z</time><extensions/></trkpt><trkpt lat="59.680315079167485" lon="33.555968161672354"><ele>64.55000305175781</ele><time>2026-08-17T10:03:35.000Z</time><extensions/></trkpt><trkpt lat="59.679204393178225" lon="33.56241778470576"><ele>63.58000183105469</ele><time>2026-08-17T10:03:49.000Z</time><extensions/></trkpt><trkpt lat="59.67776572331786" lon="33.56766728684306"><ele>66.47000122070312</ele><time>2026-08-17T10:04:01.000Z</time><extensions/></trkpt><trkpt lat="59.675938971340656" lon="33.572389567270875"><ele>66.47000122070312</ele><time>2026-08-17T10:04:13.000Z</time><extensions/></trkpt><trkpt lat="59.67283892445266" lon="33.579821130260825"><ele>63.58000183105469</ele><time>2026-08-17T10:04:33.000Z</time><extensions/></trkpt><trkpt lat="59.6715625282377" lon="33.58288312330842"><ele>66.94999694824219</ele><time>2026-08-17T10:04:41.000Z</time><extensions/></trkpt><trkpt lat="59.66844462789595" lon="33.59038467518985"><ele>69.3499984741211</ele><time>2026-08-17T10:05:00.000Z</time><extensions/></trkpt><trkpt lat="59.66607523150742" lon="33.596064671874046"><ele>68.87000274658203</ele><time>2026-08-17T10:05:15.000Z</time><extensions/></trkpt><trkpt lat="59.66347516514361" lon="33.60209452919662"><ele>65.98999786376953</ele><time>2026-08-17T10:05:31.000Z</time><extensions/></trkpt><trkpt lat="59.661576580256224" lon="33.60518057830632"><ele>65.51000213623047</ele><time>2026-08-17T10:05:41.000Z</time><extensions/></trkpt><trkpt lat="59.65899679809809" lon="33.60794828273356"><ele>64.55000305175781</ele><time>2026-08-17T10:05:53.000Z</time><extensions/></trkpt><trkpt lat="59.65713433921337" lon="33.60904564149678"><ele>64.06999969482422</ele><time>2026-08-17T10:06:01.000Z</time><extensions/></trkpt><trkpt lat="59.65399271808565" lon="33.6098456941545"><ele>60.70000076293945</ele><time>2026-08-17T10:06:14.000Z</time><extensions/></trkpt><trkpt lat="59.65352131985128" lon="33.60996035858989"><ele>60.220001220703125</ele><time>2026-08-17T10:06:16.000Z</time><extensions/></trkpt><trkpt lat="59.65026838704944" lon="33.61072227358818"><ele>63.099998474121094</ele><time>2026-08-17T10:06:30.000Z</time><extensions/></trkpt><trkpt lat="59.64797208085656" lon="33.6112791672349"><ele>65.02999877929688</ele><time>2026-08-17T10:06:41.000Z</time><extensions/></trkpt><trkpt lat="59.64592119678855" lon="33.61177269369364"><ele>65.02999877929688</ele><time>2026-08-17T10:06:52.000Z</time><extensions/></trkpt><trkpt lat="59.40299738198519" lon="34.71366858109832"><ele>169.80999755859375</ele><time>2026-08-17T11:10:14.000Z</time><extensions/></trkpt><trkpt lat="59.40304088406265" lon="34.713646452873945"><ele>170.2899932861328</ele><time>2026-08-17T11:10:15.000Z</time><extensions/></trkpt><trkpt lat="59.40308396704495" lon="34.71361577510834"><ele>170.2899932861328</ele><time>2026-08-17T11:10:16.000Z</time><extensions/></trkpt><trkpt lat="59.40349543467164" lon="34.713150998577476"><ele>169.80999755859375</ele><time>2026-08-17T11:10:29.000Z</time><extensions/></trkpt><trkpt lat="59.40390924923122" lon="34.71264833584428"><ele>169.80999755859375</ele><time>2026-08-17T11:10:41.000Z</time><extensions/></trkpt><trkpt lat="59.40417964942753" lon="34.712222032248974"><ele>169.80999755859375</ele><time>2026-08-17T11:10:50.000Z</time><extensions/></trkpt><trkpt lat="59.4046164304018" lon="34.711277559399605"><ele>169.3300018310547</ele><time>2026-08-17T11:11:04.000Z</time><extensions/></trkpt><trkpt lat="59.404791444540024" lon="34.71089224331081"><ele>169.80999755859375</ele><time>2026-08-17T11:11:10.000Z</time><extensions/></trkpt><trkpt lat="59.405164774507284" lon="34.70990929752588"><ele>167.88999938964844</ele><time>2026-08-17T11:11:25.000Z</time><extensions/></trkpt><trkpt lat="59.40538396127522" lon="34.70932918600738"><ele>167.88999938964844</ele><time>2026-08-17T11:11:38.000Z</time><extensions/></trkpt><trkpt lat="59.405368119478226" lon="34.709398252889514"><ele>167.88999938964844</ele><time>2026-08-17T11:11:50.000Z</time><extensions/></trkpt><trkpt lat="59.40533593297005" lon="34.70936137251556"><ele>167.88999938964844</ele><time>2026-08-17T11:12:06.000Z</time><extensions/></trkpt><trkpt lat="59.40532688051462" lon="34.70933832228184"><ele>167.88999938964844</ele><time>2026-08-17T11:12:07.000Z</time><extensions/></trkpt><trkpt lat="59.40531833097339" lon="34.70931828953326"><ele>167.88999938964844</ele><time>2026-08-17T11:12:08.000Z</time><extensions/></trkpt><trkpt lat="59.40530986525118" lon="34.70929364673793"><ele>167.88999938964844</ele><time>2026-08-17T11:12:09.000Z</time><extensions/></trkpt><trkpt lat="59.405300645157695" lon="34.70926648937166"><ele>167.88999938964844</ele><time>2026-08-17T11:12:10.000Z</time><extensions/></trkpt><trkpt lat="59.405291341245174" lon="34.709242433309555"><ele>167.88999938964844</ele><time>2026-08-17T11:12:11.000Z</time><extensions/></trkpt><trkpt lat="59.40515563823283" lon="34.70878142863512"><ele>166.92999267578125</ele><time>2026-08-17T11:12:30.000Z</time><extensions/></trkpt><trkpt lat="59.40516661852598" lon="34.708839850500226"><ele>166.92999267578125</ele><time>2026-08-17T11:12:55.000Z</time><extensions/></trkpt><trkpt lat="59.40517642535269" lon="34.70857623964548"><ele>166.4499969482422</ele><time>2026-08-17T11:13:46.000Z</time><extensions/></trkpt><trkpt lat="59.4052123837173" lon="34.70822445116937"><ele>167.41000366210938</ele><time>2026-08-17T11:14:04.000Z</time><extensions/></trkpt><trkpt lat="59.40521967597306" lon="34.708056477829814"><ele>167.41000366210938</ele><time>2026-08-17T11:14:37.000Z</time><extensions/></trkpt><trkpt lat="59.405222944915295" lon="34.707976430654526"><ele>167.41000366210938</ele><time>2026-08-17T11:14:41.000Z</time><extensions/></trkpt><trkpt lat="59.40523752942681" lon="34.707785323262215"><ele>167.41000366210938</ele><time>2026-08-17T11:14:58.000Z</time><extensions/></trkpt><trkpt lat="59.405231242999434" lon="34.70791767351329"><ele>167.41000366210938</ele><time>2026-08-17T11:15:52.000Z</time><extensions/></trkpt><trkpt lat="59.40522579476237" lon="34.7081108763814"><ele>167.41000366210938</ele><time>2026-08-17T11:16:44.000Z</time><extensions/></trkpt><trkpt lat="59.40522076562047" lon="34.70816753804684"><ele>167.41000366210938</ele><time>2026-08-17T11:16:54.000Z</time><extensions/></trkpt><trkpt lat="59.405208360403776" lon="34.70832025632262"><ele>167.41000366210938</ele><time>2026-08-17T11:17:13.000Z</time><extensions/></trkpt><trkpt lat="59.40518522635102" lon="34.70849736593664"><ele>166.4499969482422</ele><time>2026-08-17T11:17:39.000Z</time><extensions/></trkpt><trkpt lat="59.40516762435436" lon="34.70867212861776"><ele>166.4499969482422</ele><time>2026-08-17T11:18:08.000Z</time><extensions/></trkpt><trkpt lat="59.40515764988959" lon="34.708785535767674"><ele>166.4499969482422</ele><time>2026-08-17T11:18:25.000Z</time><extensions/></trkpt><trkpt lat="59.40519738011062" lon="34.70897404477"><ele>166.4499969482422</ele><time>2026-08-17T11:19:02.000Z</time><extensions/></trkpt><trkpt lat="59.405287485569715" lon="34.709236063063145"><ele>166.92999267578125</ele><time>2026-08-17T11:19:26.000Z</time><extensions/></trkpt><trkpt lat="59.40533995628357" lon="34.70942197367549"><ele>167.88999938964844</ele><time>2026-08-17T11:19:41.000Z</time><extensions/></trkpt><trkpt lat="59.405317241325974" lon="34.70948316156864"><ele>167.88999938964844</ele><time>2026-08-17T11:19:57.000Z</time><extensions/></trkpt><trkpt lat="59.405390080064535" lon="34.70942038111389"><ele>167.88999938964844</ele><time>2026-08-17T11:20:13.000Z</time><extensions/></trkpt><trkpt lat="59.40539477393031" lon="34.70941845327616"><ele>167.88999938964844</ele><time>2026-08-17T11:20:41.000Z</time><extensions/></trkpt><trkpt lat="59.4053955283016" lon="34.70939137972891"><ele>168.85000610351562</ele><time>2026-08-17T11:25:56.000Z</time><extensions/></trkpt><trkpt lat="59.405421763658524" lon="34.70939037390053"><ele>168.85000610351562</ele><time>2026-08-17T11:40:03.000Z</time><extensions/></trkpt><trkpt lat="59.405421763658524" lon="34.70939037390053"><ele>167.41000366210938</ele><time>2026-08-17T11:59:55.000Z</time><extensions/></trkpt><trkpt lat="59.40539469011128" lon="34.70938484184444"><ele>166.92999267578125</ele><time>2026-08-17T12:00:41.000Z</time><extensions/></trkpt><trkpt lat="59.40536485053599" lon="34.70933153294027"><ele>166.4499969482422</ele><time>2026-08-17T12:05:27.000Z</time><extensions/></trkpt><trkpt lat="59.40535236150026" lon="34.70931937918067"><ele>166.4499969482422</ele><time>2026-08-17T12:05:28.000Z</time><extensions/></trkpt><trkpt lat="59.40534037537873" lon="34.70930311828852"><ele>166.4499969482422</ele><time>2026-08-17T12:05:29.000Z</time><extensions/></trkpt><trkpt lat="59.405328053981066" lon="34.70928903669119"><ele>166.4499969482422</ele><time>2026-08-17T12:05:30.000Z</time><extensions/></trkpt><trkpt lat="59.40531346946955" lon="34.709280068054795"><ele>166.4499969482422</ele><time>2026-08-17T12:05:31.000Z</time><extensions/></trkpt><trkpt lat="59.4053003937006" lon="34.7092713508755"><ele>166.4499969482422</ele><time>2026-08-17T12:05:32.000Z</time><extensions/></trkpt><trkpt lat="59.40529058687389" lon="34.70925534144044"><ele>166.4499969482422</ele><time>2026-08-17T12:05:33.000Z</time><extensions/></trkpt><trkpt lat="59.40523744560778" lon="34.70912206918001"><ele>165.47999572753906</ele><time>2026-08-17T12:05:50.000Z</time><extensions/></trkpt><trkpt lat="59.40517969429493" lon="34.708936996757984"><ele>165.0</ele><time>2026-08-17T12:06:02.000Z</time><extensions/></trkpt><trkpt lat="59.405175084248185" lon="34.70891478471458"><ele>165.0</ele><time>2026-08-17T12:06:03.000Z</time><extensions/></trkpt><trkpt lat="59.405169719830155" lon="34.708894081413746"><ele>165.0</ele><time>2026-08-17T12:06:04.000Z</time><extensions/></trkpt><trkpt lat="59.40516267903149" lon="34.70874186605215"><ele>165.0</ele><time>2026-08-17T12:06:12.000Z</time><extensions/></trkpt><trkpt lat="59.40517106093466" lon="34.708563247695565"><ele>165.47999572753906</ele><time>2026-08-17T12:06:21.000Z</time><extensions/></trkpt><trkpt lat="59.405173156410456" lon="34.70854212529957"><ele>165.47999572753906</ele><time>2026-08-17T12:06:22.000Z</time><extensions/></trkpt><trkpt lat="59.40517466515303" lon="34.70852016471326"><ele>165.0</ele><time>2026-08-17T12:06:23.000Z</time><extensions/></trkpt><trkpt lat="59.40520819276571" lon="34.70819125883281"><ele>166.4499969482422</ele><time>2026-08-17T12:06:41.000Z</time><extensions/></trkpt><trkpt lat="59.40520802512765" lon="34.70810039900243"><ele>166.4499969482422</ele><time>2026-08-17T12:07:23.000Z</time><extensions/></trkpt><trkpt lat="59.405208947137" lon="34.70806905068457"><ele>165.9600067138672</ele><time>2026-08-17T12:07:24.000Z</time><extensions/></trkpt><trkpt lat="59.405209785327315" lon="34.70804013311863"><ele>165.9600067138672</ele><time>2026-08-17T12:07:25.000Z</time><extensions/></trkpt><trkpt lat="59.40521062351763" lon="34.70796343870461"><ele>165.9600067138672</ele><time>2026-08-17T12:07:29.000Z</time><extensions/></trkpt><trkpt lat="59.40521347336471" lon="34.70792136155069"><ele>165.9600067138672</ele><time>2026-08-17T12:07:31.000Z</time><extensions/></trkpt><trkpt lat="59.40522906370461" lon="34.70778037793934"><ele>166.4499969482422</ele><time>2026-08-17T12:07:36.000Z</time><extensions/></trkpt><trkpt lat="59.40522822551429" lon="34.70775472931564"><ele>166.4499969482422</ele><time>2026-08-17T12:07:37.000Z</time><extensions/></trkpt><trkpt lat="59.40523233264685" lon="34.707678370177746"><ele>166.4499969482422</ele><time>2026-08-17T12:07:41.000Z</time><extensions/></trkpt><trkpt lat="59.40523602068424" lon="34.70765205100179"><ele>165.9600067138672</ele><time>2026-08-17T12:07:42.000Z</time><extensions/></trkpt><trkpt lat="59.40524037927389" lon="34.707624558359385"><ele>165.9600067138672</ele><time>2026-08-17T12:07:43.000Z</time><extensions/></trkpt><trkpt lat="59.40524457022548" lon="34.70759756863117"><ele>165.9600067138672</ele><time>2026-08-17T12:07:44.000Z</time><extensions/></trkpt><trkpt lat="59.40524918027222" lon="34.70756873488426"><ele>165.9600067138672</ele><time>2026-08-17T12:07:45.000Z</time><extensions/></trkpt><trkpt lat="59.405253874138" lon="34.70754317007959"><ele>165.9600067138672</ele><time>2026-08-17T12:07:46.000Z</time><extensions/></trkpt><trkpt lat="59.405256640166044" lon="34.70752037130296"><ele>165.9600067138672</ele><time>2026-08-17T12:07:47.000Z</time><extensions/></trkpt><trkpt lat="59.405259573832154" lon="34.70750008709729"><ele>165.9600067138672</ele><time>2026-08-17T12:07:48.000Z</time><extensions/></trkpt><trkpt lat="59.40528539009392" lon="34.70740453340113"><ele>165.9600067138672</ele><time>2026-08-17T12:08:06.000Z</time><extensions/></trkpt><trkpt lat="59.40533559769392" lon="34.70723622478545"><ele>165.47999572753906</ele><time>2026-08-17T12:08:34.000Z</time><extensions/></trkpt><trkpt lat="59.405404664576054" lon="34.70703933387995"><ele>165.0</ele><time>2026-08-17T12:08:48.000Z</time><extensions/></trkpt><trkpt lat="59.40540659241378" lon="34.707028437405825"><ele>165.0</ele><time>2026-08-17T12:08:51.000Z</time><extensions/></trkpt><trkpt lat="59.405414555221796" lon="34.70700974576175"><ele>165.0</ele><time>2026-08-17T12:08:52.000Z</time><extensions/></trkpt><trkpt lat="59.405423775315285" lon="34.706989880651236"><ele>165.0</ele><time>2026-08-17T12:08:53.000Z</time><extensions/></trkpt><trkpt lat="59.40542888827622" lon="34.70696993172169"><ele>165.0</ele><time>2026-08-17T12:08:54.000Z</time><extensions/></trkpt><trkpt lat="59.405433582141995" lon="34.70694562420249"><ele>165.0</ele><time>2026-08-17T12:08:55.000Z</time><extensions/></trkpt><trkpt lat="59.405482867732644" lon="34.706774298101664"><ele>165.0</ele><time>2026-08-17T12:09:04.000Z</time><extensions/></trkpt><trkpt lat="59.40548915416002" lon="34.706748481839895"><ele>165.0</ele><time>2026-08-17T12:09:05.000Z</time><extensions/></trkpt><trkpt lat="59.40549451857805" lon="34.7067241743207"><ele>165.0</ele><time>2026-08-17T12:09:06.000Z</time><extensions/></trkpt><trkpt lat="59.40551388077438" lon="34.70659081824124"><ele>165.47999572753906</ele><time>2026-08-17T12:09:12.000Z</time><extensions/></trkpt><trkpt lat="59.4055543653667" lon="34.70619183965027"><ele>165.9600067138672</ele><time>2026-08-17T12:09:27.000Z</time><extensions/></trkpt><trkpt lat="59.40557196736336" lon="34.706012550741434"><ele>165.9600067138672</ele><time>2026-08-17T12:09:37.000Z</time><extensions/></trkpt><trkpt lat="59.405574230477214" lon="34.705983716994524"><ele>165.9600067138672</ele><time>2026-08-17T12:09:38.000Z</time><extensions/></trkpt><trkpt lat="59.40557557158172" lon="34.705955469980836"><ele>165.9600067138672</ele><time>2026-08-17T12:09:39.000Z</time><extensions/></trkpt><trkpt lat="59.40560876391828" lon="34.70556076616049"><ele>165.9600067138672</ele><time>2026-08-17T12:09:53.000Z</time><extensions/></trkpt><trkpt lat="59.40563617274165" lon="34.70519045367837"><ele>165.47999572753906</ele><time>2026-08-17T12:10:07.000Z</time><extensions/></trkpt><trkpt lat="59.40565419383347" lon="34.70509607344866"><ele>165.9600067138672</ele><time>2026-08-17T12:10:11.000Z</time><extensions/></trkpt><trkpt lat="59.40566098317504" lon="34.70505659468472"><ele>165.47999572753906</ele><time>2026-08-17T12:10:32.000Z</time><extensions/></trkpt><trkpt lat="59.40576936118305" lon="34.70474956557155"><ele>165.47999572753906</ele><time>2026-08-17T12:11:21.000Z</time><extensions/></trkpt><trkpt lat="59.40586097538471" lon="34.70442183315754"><ele>165.0</ele><time>2026-08-17T12:11:38.000Z</time><extensions/></trkpt><trkpt lat="59.405985949561" lon="34.703945657238364"><ele>165.0</ele><time>2026-08-17T12:12:02.000Z</time><extensions/></trkpt><trkpt lat="59.40614805556834" lon="34.70339337363839"><ele>165.47999572753906</ele><time>2026-08-17T12:12:29.000Z</time><extensions/></trkpt><trkpt lat="59.406216870993376" lon="34.70286648720503"><ele>166.4499969482422</ele><time>2026-08-17T12:12:48.000Z</time><extensions/></trkpt><trkpt lat="59.40628174692392" lon="34.702474465593696"><ele>166.92999267578125</ele><time>2026-08-17T12:13:02.000Z</time><extensions/></trkpt><trkpt lat="59.406338995322585" lon="34.702198365703225"><ele>167.41000366210938</ele><time>2026-08-17T12:13:13.000Z</time><extensions/></trkpt><trkpt lat="59.40641535446048" lon="34.70189712010324"><ele>166.92999267578125</ele><time>2026-08-17T12:13:28.000Z</time><extensions/></trkpt><trkpt lat="59.40647075884044" lon="34.7016176674515"><ele>166.92999267578125</ele><time>2026-08-17T12:13:41.000Z</time><extensions/></trkpt><trkpt lat="59.406556421890855" lon="34.70120754092932"><ele>167.41000366210938</ele><time>2026-08-17T12:13:59.000Z</time><extensions/></trkpt><trkpt lat="59.406610233709216" lon="34.7010132484138"><ele>167.41000366210938</ele><time>2026-08-17T12:14:07.000Z</time><extensions/></trkpt><trkpt lat="59.40661149099469" lon="34.70098835416138"><ele>167.41000366210938</ele><time>2026-08-17T12:14:08.000Z</time><extensions/></trkpt><trkpt lat="59.40661425702274" lon="34.70096203498542"><ele>167.41000366210938</ele><time>2026-08-17T12:14:09.000Z</time><extensions/></trkpt><trkpt lat="59.4066215492785" lon="34.70093605108559"><ele>167.88999938964844</ele><time>2026-08-17T12:14:10.000Z</time><extensions/></trkpt><trkpt lat="59.40662574023008" lon="34.700908390805125"><ele>167.88999938964844</ele><time>2026-08-17T12:14:11.000Z</time><extensions/></trkpt><trkpt lat="59.40662909299135" lon="34.70087838359177"><ele>167.88999938964844</ele><time>2026-08-17T12:14:12.000Z</time><extensions/></trkpt><trkpt lat="59.406632697209716" lon="34.70085256733"><ele>167.88999938964844</ele><time>2026-08-17T12:14:13.000Z</time><extensions/></trkpt><trkpt lat="59.40663621760905" lon="34.70080537721515"><ele>167.88999938964844</ele><time>2026-08-17T12:14:15.000Z</time><extensions/></trkpt><trkpt lat="59.40664082765579" lon="34.70076606608927"><ele>167.88999938964844</ele><time>2026-08-17T12:14:17.000Z</time><extensions/></trkpt><trkpt lat="59.40673151984811" lon="34.70042928121984"><ele>167.41000366210938</ele><time>2026-08-17T12:14:32.000Z</time><extensions/></trkpt><trkpt lat="59.406755743548274" lon="34.70034973695874"><ele>167.41000366210938</ele><time>2026-08-17T12:14:36.000Z</time><extensions/></trkpt><trkpt lat="59.406825732439756" lon="34.70002066344023"><ele>167.41000366210938</ele><time>2026-08-17T12:14:49.000Z</time><extensions/></trkpt><trkpt lat="59.406835958361626" lon="34.699994595721364"><ele>167.41000366210938</ele><time>2026-08-17T12:14:50.000Z</time><extensions/></trkpt><trkpt lat="59.4068406522274" lon="34.69996794126928"><ele>167.41000366210938</ele><time>2026-08-17T12:14:51.000Z</time><extensions/></trkpt><trkpt lat="59.40686319954693" lon="34.699787897989154"><ele>167.41000366210938</ele><time>2026-08-17T12:14:59.000Z</time><extensions/></trkpt><trkpt lat="59.406867139041424" lon="34.69976518303156"><ele>167.41000366210938</ele><time>2026-08-17T12:15:00.000Z</time><extensions/></trkpt><trkpt lat="59.406876023858786" lon="34.699743054807186"><ele>167.41000366210938</ele><time>2026-08-17T12:15:01.000Z</time><extensions/></trkpt><trkpt lat="59.40688004717231" lon="34.699716567993164"><ele>167.41000366210938</ele><time>2026-08-17T12:15:02.000Z</time><extensions/></trkpt><trkpt lat="59.40688909962773" lon="34.69969226047397"><ele>167.41000366210938</ele><time>2026-08-17T12:15:03.000Z</time><extensions/></trkpt><trkpt lat="59.406894128769636" lon="34.69966736622155"><ele>167.41000366210938</ele><time>2026-08-17T12:15:04.000Z</time><extensions/></trkpt><trkpt lat="59.40690259449184" lon="34.699638951569796"><ele>167.41000366210938</ele><time>2026-08-17T12:15:05.000Z</time><extensions/></trkpt><trkpt lat="59.406909216195345" lon="34.69961338676512"><ele>167.88999938964844</ele><time>2026-08-17T12:15:06.000Z</time><extensions/></trkpt><trkpt lat="59.40691684372723" lon="34.699586145579815"><ele>167.88999938964844</ele><time>2026-08-17T12:15:07.000Z</time><extensions/></trkpt><trkpt lat="59.40692153759301" lon="34.699556892737746"><ele>167.88999938964844</ele><time>2026-08-17T12:15:08.000Z</time><extensions/></trkpt><trkpt lat="59.40692765638232" lon="34.69953216612339"><ele>167.88999938964844</ele><time>2026-08-17T12:15:09.000Z</time><extensions/></trkpt><trkpt lat="59.40693645738065" lon="34.69950366765261"><ele>167.88999938964844</ele><time>2026-08-17T12:15:10.000Z</time><extensions/></trkpt><trkpt lat="59.406944839283824" lon="34.69947542063892"><ele>167.88999938964844</ele><time>2026-08-17T12:15:11.000Z</time><extensions/></trkpt><trkpt lat="59.40695523284376" lon="34.6994486823678"><ele>167.88999938964844</ele><time>2026-08-17T12:15:12.000Z</time><extensions/></trkpt><trkpt lat="59.40696428529918" lon="34.69942429102957"><ele>167.88999938964844</ele><time>2026-08-17T12:15:13.000Z</time><extensions/></trkpt><trkpt lat="59.40697249956429" lon="34.69939964823425"><ele>167.88999938964844</ele><time>2026-08-17T12:15:14.000Z</time><extensions/></trkpt><trkpt lat="59.40698213875294" lon="34.699377017095685"><ele>167.88999938964844</ele><time>2026-08-17T12:15:15.000Z</time><extensions/></trkpt><trkpt lat="59.40704718232155" lon="34.69913394190371"><ele>168.3699951171875</ele><time>2026-08-17T12:15:26.000Z</time><extensions/></trkpt><trkpt lat="59.40705372020602" lon="34.69911349005997"><ele>168.3699951171875</ele><time>2026-08-17T12:15:27.000Z</time><extensions/></trkpt><trkpt lat="59.40706042572856" lon="34.699093122035265"><ele>168.3699951171875</ele><time>2026-08-17T12:15:28.000Z</time><extensions/></trkpt><trkpt lat="59.40715614706278" lon="34.6987321972847"><ele>168.85000610351562</ele><time>2026-08-17T12:15:44.000Z</time><extensions/></trkpt><trkpt lat="59.407250275835395" lon="34.69848887063563"><ele>168.85000610351562</ele><time>2026-08-17T12:15:57.000Z</time><extensions/></trkpt><trkpt lat="59.40734884701669" lon="34.69827144406736"><ele>168.3699951171875</ele><time>2026-08-17T12:16:10.000Z</time><extensions/></trkpt><trkpt lat="59.40747139044106" lon="34.69797288067639"><ele>167.41000366210938</ele><time>2026-08-17T12:16:29.000Z</time><extensions/></trkpt><trkpt lat="59.4076073449105" lon="34.69754112884402"><ele>167.41000366210938</ele><time>2026-08-17T12:16:51.000Z</time><extensions/></trkpt><trkpt lat="59.4076263718307" lon="34.69749075360596"><ele>167.41000366210938</ele><time>2026-08-17T12:16:54.000Z</time><extensions/></trkpt><trkpt lat="59.40769267268479" lon="34.697358487173915"><ele>167.88999938964844</ele><time>2026-08-17T12:17:09.000Z</time><extensions/></trkpt><trkpt lat="59.40770884975791" lon="34.69732755795121"><ele>167.88999938964844</ele><time>2026-08-17T12:17:11.000Z</time><extensions/></trkpt><trkpt lat="59.40786416642368" lon="34.69718246720731"><ele>167.41000366210938</ele><time>2026-08-17T12:17:28.000Z</time><extensions/></trkpt><trkpt lat="59.40788956359029" lon="34.6971520408988"><ele>166.4499969482422</ele><time>2026-08-17T12:17:46.000Z</time><extensions/></trkpt><trkpt lat="59.40795376896858" lon="34.69699705950916"><ele>166.92999267578125</ele><time>2026-08-17T12:18:23.000Z</time><extensions/></trkpt><trkpt lat="59.40795695409179" lon="34.696971494704485"><ele>166.92999267578125</ele><time>2026-08-17T12:18:24.000Z</time><extensions/></trkpt><trkpt lat="59.40799282863736" lon="34.69667804427445"><ele>167.41000366210938</ele><time>2026-08-17T12:18:39.000Z</time><extensions/></trkpt><trkpt lat="59.408005736768246" lon="34.69655156135559"><ele>167.41000366210938</ele><time>2026-08-17T12:18:56.000Z</time><extensions/></trkpt><trkpt lat="59.40806315280497" lon="34.6962402574718"><ele>166.4499969482422</ele><time>2026-08-17T12:20:12.000Z</time><extensions/></trkpt><trkpt lat="59.408098524436355" lon="34.69591981731355"><ele>166.4499969482422</ele><time>2026-08-17T12:20:26.000Z</time><extensions/></trkpt><trkpt lat="59.40810916945338" lon="34.69588369131088"><ele>166.4499969482422</ele><time>2026-08-17T12:20:28.000Z</time><extensions/></trkpt><trkpt lat="59.40812794491649" lon="34.695781264454126"><ele>166.4499969482422</ele><time>2026-08-17T12:20:33.000Z</time><extensions/></trkpt><trkpt lat="59.40813364461064" lon="34.69576098024845"><ele>166.4499969482422</ele><time>2026-08-17T12:20:34.000Z</time><extensions/></trkpt><trkpt lat="59.40816222690046" lon="34.69548597000539"><ele>166.4499969482422</ele><time>2026-08-17T12:20:47.000Z</time><extensions/></trkpt><trkpt lat="59.40817999653518" lon="34.695251025259495"><ele>166.92999267578125</ele><time>2026-08-17T12:20:57.000Z</time><extensions/></trkpt><trkpt lat="59.4081824272871" lon="34.695225125178695"><ele>166.92999267578125</ele><time>2026-08-17T12:20:58.000Z</time><extensions/></trkpt><trkpt lat="59.40818418748677" lon="34.69518204219639"><ele>166.92999267578125</ele><time>2026-08-17T12:21:00.000Z</time><extensions/></trkpt><trkpt lat="59.40818343311548" lon="34.69515396282077"><ele>166.92999267578125</ele><time>2026-08-17T12:21:01.000Z</time><extensions/></trkpt><trkpt lat="59.40818091854453" lon="34.69508908689022"><ele>166.92999267578125</ele><time>2026-08-17T12:21:04.000Z</time><extensions/></trkpt><trkpt lat="59.40820187330246" lon="34.6948207821697"><ele>166.92999267578125</ele><time>2026-08-17T12:21:17.000Z</time><extensions/></trkpt><trkpt lat="59.4082048907876" lon="34.694797648116946"><ele>166.92999267578125</ele><time>2026-08-17T12:21:18.000Z</time><extensions/></trkpt><trkpt lat="59.408208997920156" lon="34.6947708260268"><ele>166.92999267578125</ele><time>2026-08-17T12:21:19.000Z</time><extensions/></trkpt><trkpt lat="59.40821276977658" lon="34.694747691974044"><ele>166.92999267578125</ele><time>2026-08-17T12:21:20.000Z</time><extensions/></trkpt><trkpt lat="59.40821737982333" lon="34.6947274915874"><ele>166.92999267578125</ele><time>2026-08-17T12:21:21.000Z</time><extensions/></trkpt><trkpt lat="59.4082239177078" lon="34.694706285372376"><ele>166.92999267578125</ele><time>2026-08-17T12:21:22.000Z</time><extensions/></trkpt><trkpt lat="59.4082291983068" lon="34.6946825645864"><ele>166.92999267578125</ele><time>2026-08-17T12:21:23.000Z</time><extensions/></trkpt><trkpt lat="59.408269599080086" lon="34.694426162168384"><ele>167.41000366210938</ele><time>2026-08-17T12:21:36.000Z</time><extensions/></trkpt><trkpt lat="59.40832198597491" lon="34.694220973178744"><ele>167.41000366210938</ele><time>2026-08-17T12:21:46.000Z</time><extensions/></trkpt><trkpt lat="59.40835936926305" lon="34.69393598847091"><ele>167.41000366210938</ele><time>2026-08-17T12:21:59.000Z</time><extensions/></trkpt><trkpt lat="59.40837445668876" lon="34.69379425048828"><ele>167.88999938964844</ele><time>2026-08-17T12:22:06.000Z</time><extensions/></trkpt><trkpt lat="59.40839926712215" lon="34.693619487807155"><ele>168.3699951171875</ele><time>2026-08-17T12:22:15.000Z</time><extensions/></trkpt><trkpt lat="59.408419132232666" lon="34.69352007843554"><ele>168.3699951171875</ele><time>2026-08-17T12:22:21.000Z</time><extensions/></trkpt><trkpt lat="59.40842089243233" lon="34.69349577091634"><ele>168.3699951171875</ele><time>2026-08-17T12:22:22.000Z</time><extensions/></trkpt><trkpt lat="59.408428352326155" lon="34.69343215227127"><ele>168.3699951171875</ele><time>2026-08-17T12:22:25.000Z</time><extensions/></trkpt><trkpt lat="59.40843413583934" lon="34.69340809620917"><ele>168.3699951171875</ele><time>2026-08-17T12:22:26.000Z</time><extensions/></trkpt><trkpt lat="59.408468920737505" lon="34.693192932754755"><ele>168.85000610351562</ele><time>2026-08-17T12:22:38.000Z</time><extensions/></trkpt><trkpt lat="59.408469842746854" lon="34.693163596093655"><ele>168.85000610351562</ele><time>2026-08-17T12:22:39.000Z</time><extensions/></trkpt><trkpt lat="59.4084710162133" lon="34.693134762346745"><ele>168.85000610351562</ele><time>2026-08-17T12:22:40.000Z</time><extensions/></trkpt><trkpt lat="59.40847394987941" lon="34.693110873922706"><ele>168.85000610351562</ele><time>2026-08-17T12:22:41.000Z</time><extensions/></trkpt><trkpt lat="59.40850739367306" lon="34.69286972656846"><ele>168.85000610351562</ele><time>2026-08-17T12:22:52.000Z</time><extensions/></trkpt><trkpt lat="59.40853748470545" lon="34.69271005131304"><ele>168.3699951171875</ele><time>2026-08-17T12:22:59.000Z</time><extensions/></trkpt><trkpt lat="59.408597499132156" lon="34.692492792382836"><ele>168.3699951171875</ele><time>2026-08-17T12:23:10.000Z</time><extensions/></trkpt><trkpt lat="59.408601857721806" lon="34.69246957451105"><ele>168.3699951171875</ele><time>2026-08-17T12:23:11.000Z</time><extensions/></trkpt><trkpt lat="59.40862507559359" lon="34.692406794056296"><ele>168.3699951171875</ele><time>2026-08-17T12:23:15.000Z</time><extensions/></trkpt><trkpt lat="59.408640917390585" lon="34.69235365279019"><ele>168.85000610351562</ele><time>2026-08-17T12:23:18.000Z</time><extensions/></trkpt><trkpt lat="59.40865533426404" lon="34.6923010982573"><ele>168.3699951171875</ele><time>2026-08-17T12:23:21.000Z</time><extensions/></trkpt><trkpt lat="59.40868215635419" lon="34.69222029671073"><ele>168.85000610351562</ele><time>2026-08-17T12:23:26.000Z</time><extensions/></trkpt><trkpt lat="59.40869405865669" lon="34.69216363504529"><ele>169.3300018310547</ele><time>2026-08-17T12:23:29.000Z</time><extensions/></trkpt><trkpt lat="59.40869732759893" lon="34.69214075244963"><ele>169.3300018310547</ele><time>2026-08-17T12:23:30.000Z</time><extensions/></trkpt><trkpt lat="59.408780727535486" lon="34.69188644550741"><ele>169.3300018310547</ele><time>2026-08-17T12:23:43.000Z</time><extensions/></trkpt><trkpt lat="59.40886898897588" lon="34.691651836037636"><ele>169.80999755859375</ele><time>2026-08-17T12:23:56.000Z</time><extensions/></trkpt><trkpt lat="59.408901343122125" lon="34.69157681800425"><ele>169.80999755859375</ele><time>2026-08-17T12:24:01.000Z</time><extensions/></trkpt><trkpt lat="59.40890586934984" lon="34.69155133701861"><ele>169.80999755859375</ele><time>2026-08-17T12:24:02.000Z</time><extensions/></trkpt><trkpt lat="59.408913580700755" lon="34.691489143297076"><ele>170.2899932861328</ele><time>2026-08-17T12:24:05.000Z</time><extensions/></trkpt><trkpt lat="59.408915592357516" lon="34.691466595977545"><ele>170.2899932861328</ele><time>2026-08-17T12:24:06.000Z</time><extensions/></trkpt><trkpt lat="59.40893864259124" lon="34.691242380067706"><ele>169.80999755859375</ele><time>2026-08-17T12:24:21.000Z</time><extensions/></trkpt><trkpt lat="59.40899496898055" lon="34.69087743200362"><ele>168.3699951171875</ele><time>2026-08-17T12:25:45.000Z</time><extensions/></trkpt><trkpt lat="59.40907057374716" lon="34.69054299406707"><ele>168.3699951171875</ele><time>2026-08-17T12:26:01.000Z</time><extensions/></trkpt><trkpt lat="59.40911952406168" lon="34.69027787446976"><ele>167.88999938964844</ele><time>2026-08-17T12:26:14.000Z</time><extensions/></trkpt><trkpt lat="59.4091462623328" lon="34.690157594159245"><ele>167.41000366210938</ele><time>2026-08-17T12:26:20.000Z</time><extensions/></trkpt><trkpt lat="59.40915405750275" lon="34.69013865105808"><ele>167.41000366210938</ele><time>2026-08-17T12:26:21.000Z</time><extensions/></trkpt><trkpt lat="59.40916202031076" lon="34.690119037404656"><ele>167.41000366210938</ele><time>2026-08-17T12:26:22.000Z</time><extensions/></trkpt><trkpt lat="59.409178448840976" lon="34.69008115120232"><ele>167.41000366210938</ele><time>2026-08-17T12:26:24.000Z</time><extensions/></trkpt><trkpt lat="59.40918708220124" lon="34.69005768187344"><ele>167.41000366210938</ele><time>2026-08-17T12:26:25.000Z</time><extensions/></trkpt><trkpt lat="59.409249778836966" lon="34.6898699272424"><ele>167.88999938964844</ele><time>2026-08-17T12:26:41.000Z</time><extensions/></trkpt><trkpt lat="59.40931582823396" lon="34.6896661631763"><ele>167.88999938964844</ele><time>2026-08-17T12:26:52.000Z</time><extensions/></trkpt><trkpt lat="59.40932907164097" lon="34.689643029123545"><ele>167.88999938964844</ele><time>2026-08-17T12:26:54.000Z</time><extensions/></trkpt><trkpt lat="59.40933485515416" lon="34.689627438783646"><ele>167.88999938964844</ele><time>2026-08-17T12:26:55.000Z</time><extensions/></trkpt><trkpt lat="59.409341560676694" lon="34.68961159698665"><ele>167.88999938964844</ele><time>2026-08-17T12:26:56.000Z</time><extensions/></trkpt><trkpt lat="59.4093481823802" lon="34.68959298916161"><ele>167.88999938964844</ele><time>2026-08-17T12:26:57.000Z</time><extensions/></trkpt><trkpt lat="59.40935472026467" lon="34.68957304023206"><ele>167.88999938964844</ele><time>2026-08-17T12:26:58.000Z</time><extensions/></trkpt><trkpt lat="59.40936301834881" lon="34.68955761753023"><ele>167.88999938964844</ele><time>2026-08-17T12:26:59.000Z</time><extensions/></trkpt><trkpt lat="59.409470055252314" lon="34.68935091979802"><ele>169.3300018310547</ele><time>2026-08-17T12:27:13.000Z</time><extensions/></trkpt><trkpt lat="59.40949084237218" lon="34.689248744398355"><ele>170.77000427246094</ele><time>2026-08-17T12:27:29.000Z</time><extensions/></trkpt><trkpt lat="59.409590754657984" lon="34.68904037028551"><ele>171.25</ele><time>2026-08-17T12:28:25.000Z</time><extensions/></trkpt><trkpt lat="59.40962478518486" lon="34.68884088099003"><ele>172.2100067138672</ele><time>2026-08-17T12:28:38.000Z</time><extensions/></trkpt><trkpt lat="59.40962662920356" lon="34.68881908804178"><ele>172.2100067138672</ele><time>2026-08-17T12:28:39.000Z</time><extensions/></trkpt><trkpt lat="59.409625539556146" lon="34.68876862898469"><ele>171.72999572753906</ele><time>2026-08-17T12:28:41.000Z</time><extensions/></trkpt><trkpt lat="59.40962294116616" lon="34.68874423764646"><ele>171.72999572753906</ele><time>2026-08-17T12:28:42.000Z</time><extensions/></trkpt><trkpt lat="59.40959779545665" lon="34.68842715024948"><ele>171.25</ele><time>2026-08-17T12:28:56.000Z</time><extensions/></trkpt><trkpt lat="59.40957047045231" lon="34.688060358166695"><ele>171.25</ele><time>2026-08-17T12:29:12.000Z</time><extensions/></trkpt><trkpt lat="59.40955974161625" lon="34.68768727965653"><ele>170.77000427246094</ele><time>2026-08-17T12:29:29.000Z</time><extensions/></trkpt><trkpt lat="59.40956108272076" lon="34.687584936618805"><ele>170.2899932861328</ele><time>2026-08-17T12:29:34.000Z</time><extensions/></trkpt><trkpt lat="59.4095638487488" lon="34.687563981860876"><ele>170.77000427246094</ele><time>2026-08-17T12:29:35.000Z</time><extensions/></trkpt><trkpt lat="59.40956451930106" lon="34.68754269182682"><ele>170.77000427246094</ele><time>2026-08-17T12:29:36.000Z</time><extensions/></trkpt><trkpt lat="59.409553119912744" lon="34.68731286004186"><ele>170.2899932861328</ele><time>2026-08-17T12:29:48.000Z</time><extensions/></trkpt><trkpt lat="59.409555634483695" lon="34.68727245926857"><ele>170.2899932861328</ele><time>2026-08-17T12:29:50.000Z</time><extensions/></trkpt><trkpt lat="59.409558987244964" lon="34.687208253890276"><ele>170.2899932861328</ele><time>2026-08-17T12:29:53.000Z</time><extensions/></trkpt><trkpt lat="59.40956133417785" lon="34.687184197828174"><ele>170.2899932861328</ele><time>2026-08-17T12:29:54.000Z</time><extensions/></trkpt><trkpt lat="59.40956334583461" lon="34.68716005794704"><ele>170.2899932861328</ele><time>2026-08-17T12:29:55.000Z</time><extensions/></trkpt><trkpt lat="59.409564435482025" lon="34.68713407404721"><ele>170.2899932861328</ele><time>2026-08-17T12:29:56.000Z</time><extensions/></trkpt><trkpt lat="59.40957918763161" lon="34.68690013512969"><ele>169.80999755859375</ele><time>2026-08-17T12:30:06.000Z</time><extensions/></trkpt><trkpt lat="59.409577678889036" lon="34.68687524087727"><ele>169.80999755859375</ele><time>2026-08-17T12:30:07.000Z</time><extensions/></trkpt><trkpt lat="59.40956326201558" lon="34.686574498191476"><ele>168.85000610351562</ele><time>2026-08-17T12:30:21.000Z</time><extensions/></trkpt><trkpt lat="59.409559071063995" lon="34.686551447957754"><ele>168.3699951171875</ele><time>2026-08-17T12:30:22.000Z</time><extensions/></trkpt><trkpt lat="59.40954113379121" lon="34.686388755217195"><ele>168.85000610351562</ele><time>2026-08-17T12:30:33.000Z</time><extensions/></trkpt><trkpt lat="59.409496542066336" lon="34.68613335862756"><ele>168.85000610351562</ele><time>2026-08-17T12:30:47.000Z</time><extensions/></trkpt><trkpt lat="59.40939453430474" lon="34.685872765257955"><ele>169.80999755859375</ele><time>2026-08-17T12:31:02.000Z</time><extensions/></trkpt><trkpt lat="59.40929302945733" lon="34.68561787158251"><ele>169.80999755859375</ele><time>2026-08-17T12:31:17.000Z</time><extensions/></trkpt><trkpt lat="59.409280037507415" lon="34.68558174557984"><ele>169.80999755859375</ele><time>2026-08-17T12:31:19.000Z</time><extensions/></trkpt><trkpt lat="59.409274673089385" lon="34.68555936589837"><ele>169.80999755859375</ele><time>2026-08-17T12:31:20.000Z</time><extensions/></trkpt><trkpt lat="59.40922329202294" lon="34.68538586050272"><ele>170.2899932861328</ele><time>2026-08-17T12:31:30.000Z</time><extensions/></trkpt><trkpt lat="59.409137377515435" lon="34.68512836843729"><ele>170.2899932861328</ele><time>2026-08-17T12:31:48.000Z</time><extensions/></trkpt><trkpt lat="59.409058168530464" lon="34.68486391939223"><ele>170.2899932861328</ele><time>2026-08-17T12:32:04.000Z</time><extensions/></trkpt><trkpt lat="59.4089665543288" lon="34.68457315117121"><ele>170.2899932861328</ele><time>2026-08-17T12:32:21.000Z</time><extensions/></trkpt><trkpt lat="59.40895892679691" lon="34.68455513007939"><ele>170.2899932861328</ele><time>2026-08-17T12:32:22.000Z</time><extensions/></trkpt><trkpt lat="59.408859349787235" lon="34.68429998494685"><ele>170.2899932861328</ele><time>2026-08-17T12:32:36.000Z</time><extensions/></trkpt><trkpt lat="59.40884384326637" lon="34.68426578678191"><ele>170.2899932861328</ele><time>2026-08-17T12:32:38.000Z</time><extensions/></trkpt><trkpt lat="59.40881266258657" lon="34.684191942214966"><ele>170.2899932861328</ele><time>2026-08-17T12:32:43.000Z</time><extensions/></trkpt><trkpt lat="59.40877988934517" lon="34.68410116620362"><ele>170.2899932861328</ele><time>2026-08-17T12:32:49.000Z</time><extensions/></trkpt><trkpt lat="59.40866136923432" lon="34.683857252821326"><ele>170.2899932861328</ele><time>2026-08-17T12:33:05.000Z</time><extensions/></trkpt><trkpt lat="59.40859909169376" lon="34.68367603607476"><ele>170.77000427246094</ele><time>2026-08-17T12:33:19.000Z</time><extensions/></trkpt><trkpt lat="59.40858006477356" lon="34.68362834304571"><ele>170.2899932861328</ele><time>2026-08-17T12:33:48.000Z</time><extensions/></trkpt><trkpt lat="59.408469423651695" lon="34.68351636081934"><ele>170.77000427246094</ele><time>2026-08-17T12:34:58.000Z</time><extensions/></trkpt><trkpt lat="59.40839624963701" lon="34.68336942605674"><ele>170.77000427246094</ele><time>2026-08-17T12:35:13.000Z</time><extensions/></trkpt><trkpt lat="59.40825551748276" lon="34.683105144649744"><ele>170.77000427246094</ele><time>2026-08-17T12:35:39.000Z</time><extensions/></trkpt><trkpt lat="59.408075055107474" lon="34.682769030332565"><ele>171.25</ele><time>2026-08-17T12:36:03.000Z</time><extensions/></trkpt><trkpt lat="59.407927030697465" lon="34.68258513137698"><ele>172.2100067138672</ele><time>2026-08-17T12:36:26.000Z</time><extensions/></trkpt><trkpt lat="59.40784287638962" lon="34.682498797774315"><ele>172.2100067138672</ele><time>2026-08-17T12:36:41.000Z</time><extensions/></trkpt><trkpt lat="59.40776349976659" lon="34.68234666623175"><ele>172.2100067138672</ele><time>2026-08-17T12:37:01.000Z</time><extensions/></trkpt><trkpt lat="59.40773902460933" lon="34.68224247917533"><ele>171.72999572753906</ele><time>2026-08-17T12:37:42.000Z</time><extensions/></trkpt><trkpt lat="59.40774799324572" lon="34.682243317365646"><ele>172.2100067138672</ele><time>2026-08-17T12:38:42.000Z</time><extensions/></trkpt><trkpt lat="59.40753475762904" lon="34.681971576064825"><ele>173.1699981689453</ele><time>2026-08-17T12:40:42.000Z</time><extensions/></trkpt><trkpt lat="59.40737172961235" lon="34.6816448494792"><ele>173.66000366210938</ele><time>2026-08-17T12:41:03.000Z</time><extensions/></trkpt><trkpt lat="59.4073620904237" lon="34.68162045814097"><ele>173.66000366210938</ele><time>2026-08-17T12:41:04.000Z</time><extensions/></trkpt><trkpt lat="59.407284054905176" lon="34.68141074292362"><ele>173.1699981689453</ele><time>2026-08-17T12:41:16.000Z</time><extensions/></trkpt><trkpt lat="59.40721104852855" lon="34.68119683675468"><ele>172.69000244140625</ele><time>2026-08-17T12:41:27.000Z</time><extensions/></trkpt><trkpt lat="59.40720065496862" lon="34.68118065968156"><ele>172.69000244140625</ele><time>2026-08-17T12:41:28.000Z</time><extensions/></trkpt><trkpt lat="59.4071929436177" lon="34.6811630576849"><ele>172.69000244140625</ele><time>2026-08-17T12:41:29.000Z</time><extensions/></trkpt><trkpt lat="59.40718305297196" lon="34.68114696443081"><ele>172.69000244140625</ele><time>2026-08-17T12:41:30.000Z</time><extensions/></trkpt><trkpt lat="59.40710719674826" lon="34.680871199816465"><ele>172.69000244140625</ele><time>2026-08-17T12:41:45.000Z</time><extensions/></trkpt><trkpt lat="59.40708448179066" lon="34.680587723851204"><ele>172.2100067138672</ele><time>2026-08-17T12:42:04.000Z</time><extensions/></trkpt><trkpt lat="59.40707752481103" lon="34.68008263036609"><ele>172.2100067138672</ele><time>2026-08-17T12:42:34.000Z</time><extensions/></trkpt><trkpt lat="59.40702589228749" lon="34.679684238508344"><ele>170.77000427246094</ele><time>2026-08-17T12:43:00.000Z</time><extensions/></trkpt><trkpt lat="59.40699923783541" lon="34.67953344807029"><ele>170.2899932861328</ele><time>2026-08-17T12:43:26.000Z</time><extensions/></trkpt><trkpt lat="59.40702966414392" lon="34.6793963201344"><ele>170.2899932861328</ele><time>2026-08-17T12:43:44.000Z</time><extensions/></trkpt><trkpt lat="59.40702756866813" lon="34.679176546633244"><ele>170.2899932861328</ele><time>2026-08-17T12:44:18.000Z</time><extensions/></trkpt><trkpt lat="59.40707132220268" lon="34.67921108007431"><ele>170.2899932861328</ele><time>2026-08-17T12:47:33.000Z</time><extensions/></trkpt><trkpt lat="59.4070893432945" lon="34.67891117557883"><ele>170.2899932861328</ele><time>2026-08-17T12:48:01.000Z</time><extensions/></trkpt><trkpt lat="59.40723049454391" lon="34.67861386947334"><ele>170.2899932861328</ele><time>2026-08-17T12:48:28.000Z</time><extensions/></trkpt><trkpt lat="59.40735714510083" lon="34.67835294082761"><ele>169.80999755859375</ele><time>2026-08-17T12:48:53.000Z</time><extensions/></trkpt><trkpt lat="59.407445741817355" lon="34.67798313125968"><ele>170.2899932861328</ele><time>2026-08-17T12:49:21.000Z</time><extensions/></trkpt><trkpt lat="59.40745244733989" lon="34.67775397002697"><ele>170.2899932861328</ele><time>2026-08-17T12:49:46.000Z</time><extensions/></trkpt><trkpt lat="59.4074381981045" lon="34.67738558538258"><ele>169.80999755859375</ele><time>2026-08-17T12:50:07.000Z</time><extensions/></trkpt><trkpt lat="59.4074175786227" lon="34.677014853805304"><ele>169.80999755859375</ele><time>2026-08-17T12:50:31.000Z</time><extensions/></trkpt><trkpt lat="59.40735597163439" lon="34.67688082717359"><ele>169.80999755859375</ele><time>2026-08-17T12:50:47.000Z</time><extensions/></trkpt><trkpt lat="59.407292855903506" lon="34.67663515359163"><ele>170.2899932861328</ele><time>2026-08-17T12:51:05.000Z</time><extensions/></trkpt><trkpt lat="59.40720316953957" lon="34.67637305147946"><ele>170.77000427246094</ele><time>2026-08-17T12:51:23.000Z</time><extensions/></trkpt><trkpt lat="59.407051960006356" lon="34.676173562183976"><ele>170.77000427246094</ele><time>2026-08-17T12:51:41.000Z</time><extensions/></trkpt><trkpt lat="59.406961519271135" lon="34.67608672566712"><ele>170.2899932861328</ele><time>2026-08-17T12:52:05.000Z</time><extensions/></trkpt><trkpt lat="59.40688641741872" lon="34.67598647810519"><ele>170.77000427246094</ele><time>2026-08-17T12:52:18.000Z</time><extensions/></trkpt><trkpt lat="59.40675842575729" lon="34.67589712701738"><ele>170.77000427246094</ele><time>2026-08-17T12:52:33.000Z</time><extensions/></trkpt><trkpt lat="59.40664174966514" lon="34.6759307384491"><ele>170.77000427246094</ele><time>2026-08-17T12:52:56.000Z</time><extensions/></trkpt><trkpt lat="59.40643899142742" lon="34.67603215947747"><ele>170.77000427246094</ele><time>2026-08-17T12:53:26.000Z</time><extensions/></trkpt><trkpt lat="59.406273532658815" lon="34.676150595769286"><ele>170.77000427246094</ele><time>2026-08-17T12:54:49.000Z</time><extensions/></trkpt><trkpt lat="59.40613154321909" lon="34.67629476450384"><ele>170.2899932861328</ele><time>2026-08-17T12:55:10.000Z</time><extensions/></trkpt><trkpt lat="59.40595326013863" lon="34.676506239920855"><ele>169.80999755859375</ele><time>2026-08-17T12:55:55.000Z</time><extensions/></trkpt><trkpt lat="59.40569182857871" lon="34.676545299589634"><ele>170.2899932861328</ele><time>2026-08-17T12:56:20.000Z</time><extensions/></trkpt><trkpt lat="59.40555294044316" lon="34.676485285162926"><ele>170.2899932861328</ele><time>2026-08-17T12:56:43.000Z</time><extensions/></trkpt><trkpt lat="59.40548764541745" lon="34.676399789750576"><ele>170.2899932861328</ele><time>2026-08-17T12:57:02.000Z</time><extensions/></trkpt><trkpt lat="59.40538119524717" lon="34.676344972103834"><ele>170.2899932861328</ele><time>2026-08-17T12:57:19.000Z</time><extensions/></trkpt><trkpt lat="59.4052435643971" lon="34.67623106203973"><ele>170.77000427246094</ele><time>2026-08-17T12:57:34.000Z</time><extensions/></trkpt><trkpt lat="59.40512043423951" lon="34.67610784806311"><ele>170.77000427246094</ele><time>2026-08-17T12:57:54.000Z</time><extensions/></trkpt><trkpt lat="59.40519796684384" lon="34.676212538033724"><ele>170.77000427246094</ele><time>2026-08-17T12:58:35.000Z</time><extensions/></trkpt><trkpt lat="59.40504633821547" lon="34.676092928275466"><ele>170.77000427246094</ele><time>2026-08-17T12:59:42.000Z</time><extensions/></trkpt><trkpt lat="59.404982551932335" lon="34.67595035210252"><ele>170.77000427246094</ele><time>2026-08-17T12:59:56.000Z</time><extensions/></trkpt><trkpt lat="59.40493385307491" lon="34.67582177370787"><ele>170.77000427246094</ele><time>2026-08-17T13:00:09.000Z</time><extensions/></trkpt><trkpt lat="59.40483184531331" lon="34.67566452920437"><ele>170.77000427246094</ele><time>2026-08-17T13:00:26.000Z</time><extensions/></trkpt><trkpt lat="59.40479236654937" lon="34.675516840070486"><ele>170.77000427246094</ele><time>2026-08-17T13:00:49.000Z</time><extensions/></trkpt><trkpt lat="59.404791025444865" lon="34.67549714259803"><ele>170.77000427246094</ele><time>2026-08-17T13:00:50.000Z</time><extensions/></trkpt><trkpt lat="59.404786666855216" lon="34.67547585256398"><ele>170.77000427246094</ele><time>2026-08-17T13:00:51.000Z</time><extensions/></trkpt><trkpt lat="59.40476587973535" lon="34.67531567439437"><ele>170.77000427246094</ele><time>2026-08-17T13:01:06.000Z</time><extensions/></trkpt><trkpt lat="59.40469245426357" lon="34.67506161890924"><ele>170.77000427246094</ele><time>2026-08-17T13:01:26.000Z</time><extensions/></trkpt><trkpt lat="59.4046579208225" lon="34.67479381710291"><ele>170.77000427246094</ele><time>2026-08-17T13:01:42.000Z</time><extensions/></trkpt><trkpt lat="59.404603438451886" lon="34.67455158010125"><ele>170.2899932861328</ele><time>2026-08-17T13:01:59.000Z</time><extensions/></trkpt><trkpt lat="59.404553063213825" lon="34.6743003744632"><ele>170.2899932861328</ele><time>2026-08-17T13:02:19.000Z</time><extensions/></trkpt><trkpt lat="59.40451752394438" lon="34.67405864037573"><ele>170.2899932861328</ele><time>2026-08-17T13:02:37.000Z</time><extensions/></trkpt><trkpt lat="59.404507633298635" lon="34.673935091122985"><ele>170.77000427246094</ele><time>2026-08-17T13:02:53.000Z</time><extensions/></trkpt><trkpt lat="59.404447032138705" lon="34.673678521066904"><ele>170.2899932861328</ele><time>2026-08-17T13:03:55.000Z</time><extensions/></trkpt><trkpt lat="59.40438919700682" lon="34.673529071733356"><ele>170.77000427246094</ele><time>2026-08-17T13:04:21.000Z</time><extensions/></trkpt><trkpt lat="59.40418132580817" lon="34.67325858771801"><ele>170.77000427246094</ele><time>2026-08-17T13:04:48.000Z</time><extensions/></trkpt><trkpt lat="59.404045874252915" lon="34.67315448448062"><ele>170.2899932861328</ele><time>2026-08-17T13:05:03.000Z</time><extensions/></trkpt><trkpt lat="59.40403053537011" lon="34.67312724329531"><ele>170.2899932861328</ele><time>2026-08-17T13:05:05.000Z</time><extensions/></trkpt><trkpt lat="59.4039964210242" lon="34.67310318723321"><ele>170.2899932861328</ele><time>2026-08-17T13:05:09.000Z</time><extensions/></trkpt><trkpt lat="59.403986278921366" lon="34.673090698197484"><ele>170.2899932861328</ele><time>2026-08-17T13:05:10.000Z</time><extensions/></trkpt><trkpt lat="59.40397638827562" lon="34.6730777900666"><ele>170.2899932861328</ele><time>2026-08-17T13:05:11.000Z</time><extensions/></trkpt><trkpt lat="59.403966162353754" lon="34.67306739650667"><ele>170.2899932861328</ele><time>2026-08-17T13:05:12.000Z</time><extensions/></trkpt><trkpt lat="59.40387848764658" lon="34.67296295799315"><ele>169.80999755859375</ele><time>2026-08-17T13:05:23.000Z</time><extensions/></trkpt><trkpt lat="59.40376994200051" lon="34.67283789999783"><ele>169.80999755859375</ele><time>2026-08-17T13:05:39.000Z</time><extensions/></trkpt><trkpt lat="59.40368729643524" lon="34.67275684699416"><ele>170.2899932861328</ele><time>2026-08-17T13:05:55.000Z</time><extensions/></trkpt><trkpt lat="59.40360356122255" lon="34.67266623862088"><ele>170.2899932861328</ele><time>2026-08-17T13:06:08.000Z</time><extensions/></trkpt><trkpt lat="59.40351689234376" lon="34.67255056835711"><ele>170.2899932861328</ele><time>2026-08-17T13:06:23.000Z</time><extensions/></trkpt><trkpt lat="59.4034110289067" lon="34.67235962860286"><ele>170.2899932861328</ele><time>2026-08-17T13:06:43.000Z</time><extensions/></trkpt><trkpt lat="59.403313882648945" lon="34.672130048274994"><ele>170.77000427246094</ele><time>2026-08-17T13:07:04.000Z</time><extensions/></trkpt><trkpt lat="59.40320374444127" lon="34.67178546823561"><ele>171.72999572753906</ele><time>2026-08-17T13:07:34.000Z</time><extensions/></trkpt><trkpt lat="59.403172228485346" lon="34.67146234586835"><ele>171.72999572753906</ele><time>2026-08-17T13:07:55.000Z</time><extensions/></trkpt><trkpt lat="59.40312805585563" lon="34.671286242082715"><ele>171.72999572753906</ele><time>2026-08-17T13:08:22.000Z</time><extensions/></trkpt><trkpt lat="59.40310215577483" lon="34.67128045856953"><ele>172.2100067138672</ele><time>2026-08-17T13:09:39.000Z</time><extensions/></trkpt><trkpt lat="59.40308706834912" lon="34.67089078389108"><ele>171.25</ele><time>2026-08-17T13:10:00.000Z</time><extensions/></trkpt><trkpt lat="59.403057396411896" lon="34.6705221477896"><ele>171.25</ele><time>2026-08-17T13:10:23.000Z</time><extensions/></trkpt><trkpt lat="59.403027975931764" lon="34.670274797827005"><ele>171.25</ele><time>2026-08-17T13:10:41.000Z</time><extensions/></trkpt><trkpt lat="59.40292479470372" lon="34.66986274346709"><ele>172.2100067138672</ele><time>2026-08-17T13:11:03.000Z</time><extensions/></trkpt><trkpt lat="59.402748523280025" lon="34.6696394495666"><ele>172.69000244140625</ele><time>2026-08-17T13:11:30.000Z</time><extensions/></trkpt><trkpt lat="59.40262648276985" lon="34.66955638490617"><ele>172.69000244140625</ele><time>2026-08-17T13:11:53.000Z</time><extensions/></trkpt><trkpt lat="59.40255875699222" lon="34.66943032108247"><ele>172.69000244140625</ele><time>2026-08-17T13:14:28.000Z</time><extensions/></trkpt><trkpt lat="59.40235935151577" lon="34.669194957241416"><ele>172.2100067138672</ele><time>2026-08-17T13:14:55.000Z</time><extensions/></trkpt><trkpt lat="59.40225675702095" lon="34.66905782930553"><ele>172.69000244140625</ele><time>2026-08-17T13:15:19.000Z</time><extensions/></trkpt><trkpt lat="59.40216405317187" lon="34.66893805190921"><ele>173.66000366210938</ele><time>2026-08-17T13:15:38.000Z</time><extensions/></trkpt><trkpt lat="59.40215231850743" lon="34.66881659813225"><ele>173.1699981689453</ele><time>2026-08-17T13:15:59.000Z</time><extensions/></trkpt><trkpt lat="59.40208341926336" lon="34.66865583322942"><ele>173.1699981689453</ele><time>2026-08-17T13:16:15.000Z</time><extensions/></trkpt><trkpt lat="59.4020433537662" lon="34.66860244050622"><ele>173.1699981689453</ele><time>2026-08-17T13:16:30.000Z</time><extensions/></trkpt><trkpt lat="59.40195182338357" lon="34.6685878559947"><ele>173.1699981689453</ele><time>2026-08-17T13:16:48.000Z</time><extensions/></trkpt><trkpt lat="59.401933047920465" lon="34.66859607025981"><ele>173.1699981689453</ele><time>2026-08-17T13:16:50.000Z</time><extensions/></trkpt><trkpt lat="59.401867082342505" lon="34.668541168794036"><ele>173.1699981689453</ele><time>2026-08-17T13:17:08.000Z</time><extensions/></trkpt><trkpt lat="59.401772199198604" lon="34.66849925927818"><ele>173.66000366210938</ele><time>2026-08-17T13:17:24.000Z</time><extensions/></trkpt><trkpt lat="59.40159316174686" lon="34.668238162994385"><ele>174.6199951171875</ele><time>2026-08-17T13:18:52.000Z</time><extensions/></trkpt><trkpt lat="59.40152275376022" lon="34.668111596256495"><ele>175.5800018310547</ele><time>2026-08-17T13:19:17.000Z</time><extensions/></trkpt><trkpt lat="59.40141923725605" lon="34.66781755909324"><ele>175.5800018310547</ele><time>2026-08-17T13:19:47.000Z</time><extensions/></trkpt><trkpt lat="59.401300298050046" lon="34.66738664545119"><ele>174.6199951171875</ele><time>2026-08-17T13:20:18.000Z</time><extensions/></trkpt><trkpt lat="59.40120315179229" lon="34.66702429577708"><ele>174.6199951171875</ele><time>2026-08-17T13:20:44.000Z</time><extensions/></trkpt><trkpt lat="59.401166858151555" lon="34.66679647564888"><ele>174.6199951171875</ele><time>2026-08-17T13:21:08.000Z</time><extensions/></trkpt><trkpt lat="59.40108957700431" lon="34.66644166968763"><ele>175.10000610351562</ele><time>2026-08-17T13:21:32.000Z</time><extensions/></trkpt><trkpt lat="59.40103995613754" lon="34.66624729335308"><ele>175.10000610351562</ele><time>2026-08-17T13:21:57.000Z</time><extensions/></trkpt><trkpt lat="59.40101799555123" lon="34.66613866388798"><ele>175.10000610351562</ele><time>2026-08-17T13:24:10.000Z</time><extensions/></trkpt><trkpt lat="59.400945995002985" lon="34.665840519592166"><ele>175.10000610351562</ele><time>2026-08-17T13:24:36.000Z</time><extensions/></trkpt><trkpt lat="59.400865864008665" lon="34.66555972583592"><ele>175.5800018310547</ele><time>2026-08-17T13:25:03.000Z</time><extensions/></trkpt><trkpt lat="59.40084608271718" lon="34.6655107755214"><ele>175.10000610351562</ele><time>2026-08-17T13:25:37.000Z</time><extensions/></trkpt><trkpt lat="59.40079285763204" lon="34.665382616221905"><ele>175.5800018310547</ele><time>2026-08-17T13:26:13.000Z</time><extensions/></trkpt><trkpt lat="59.400733429938555" lon="34.66525722295046"><ele>175.5800018310547</ele><time>2026-08-17T13:26:54.000Z</time><extensions/></trkpt><trkpt lat="59.40062957815826" lon="34.66492647305131"><ele>175.5800018310547</ele><time>2026-08-17T13:27:22.000Z</time><extensions/></trkpt><trkpt lat="59.400560176" lon="34.66454928740859"><ele>175.5800018310547</ele><time>2026-08-17T13:27:47.000Z</time><extensions/></trkpt><trkpt lat="59.40062128007412" lon="34.66414863243699"><ele>175.10000610351562</ele><time>2026-08-17T13:29:37.000Z</time><extensions/></trkpt><trkpt lat="59.40080224536359" lon="34.66348151676357"><ele>173.66000366210938</ele><time>2026-08-17T13:30:10.000Z</time><extensions/></trkpt><trkpt lat="59.40081154927611" lon="34.66322846710682"><ele>173.66000366210938</ele><time>2026-08-17T13:30:27.000Z</time><extensions/></trkpt><trkpt lat="59.400764778256416" lon="34.66302118264139"><ele>173.1699981689453</ele><time>2026-08-17T13:30:51.000Z</time><extensions/></trkpt><trkpt lat="59.400763688609004" lon="34.66298706829548"><ele>173.66000366210938</ele><time>2026-08-17T13:31:52.000Z</time><extensions/></trkpt><trkpt lat="59.400709960609674" lon="34.662735695019364"><ele>173.1699981689453</ele><time>2026-08-17T13:32:21.000Z</time><extensions/></trkpt><trkpt lat="59.4005620200187" lon="34.662357587367296"><ele>173.1699981689453</ele><time>2026-08-17T13:32:49.000Z</time><extensions/></trkpt><trkpt lat="59.400492617860436" lon="34.66219464316964"><ele>173.1699981689453</ele><time>2026-08-17T13:33:10.000Z</time><extensions/></trkpt><trkpt lat="59.40040435642004" lon="34.66189146973193"><ele>173.1699981689453</ele><time>2026-08-17T13:33:37.000Z</time><extensions/></trkpt><trkpt lat="59.40031257458031" lon="34.6616561897099"><ele>173.66000366210938</ele><time>2026-08-17T13:34:03.000Z</time><extensions/></trkpt><trkpt lat="59.400303019210696" lon="34.66161989606917"><ele>173.66000366210938</ele><time>2026-08-17T13:34:05.000Z</time><extensions/></trkpt><trkpt lat="59.40019958652556" lon="34.6613731328398"><ele>173.1699981689453</ele><time>2026-08-17T13:34:22.000Z</time><extensions/></trkpt><trkpt lat="59.40018625929952" lon="34.6612954325974"><ele>173.66000366210938</ele><time>2026-08-17T13:34:57.000Z</time><extensions/></trkpt><trkpt lat="59.40005801618099" lon="34.66103785671294"><ele>173.66000366210938</ele><time>2026-08-17T13:38:07.000Z</time><extensions/></trkpt><trkpt lat="59.399914517998695" lon="34.66097239404917"><ele>173.66000366210938</ele><time>2026-08-17T13:38:25.000Z</time><extensions/></trkpt><trkpt lat="59.399786442518234" lon="34.66079712845385"><ele>174.13999938964844</ele><time>2026-08-17T13:38:43.000Z</time><extensions/></trkpt><trkpt lat="59.39973975531757" lon="34.66073116287589"><ele>173.66000366210938</ele><time>2026-08-17T13:39:21.000Z</time><extensions/></trkpt><trkpt lat="59.39962693490088" lon="34.6605736669153"><ele>173.66000366210938</ele><time>2026-08-17T13:39:40.000Z</time><extensions/></trkpt><trkpt lat="59.39951646141708" lon="34.660448022186756"><ele>173.66000366210938</ele><time>2026-08-17T13:39:57.000Z</time><extensions/></trkpt><trkpt lat="59.39942082390189" lon="34.66033863835037"><ele>173.66000366210938</ele><time>2026-08-17T13:40:08.000Z</time><extensions/></trkpt><trkpt lat="59.399366676807404" lon="34.66030536219478"><ele>173.1699981689453</ele><time>2026-08-17T13:40:31.000Z</time><extensions/></trkpt><trkpt lat="59.39919149503112" lon="34.660209976136684"><ele>172.69000244140625</ele><time>2026-08-17T13:41:57.000Z</time><extensions/></trkpt><trkpt lat="59.398959232494235" lon="34.66009941883385"><ele>172.69000244140625</ele><time>2026-08-17T13:42:17.000Z</time><extensions/></trkpt><trkpt lat="59.39878832548857" lon="34.6600881870836"><ele>172.69000244140625</ele><time>2026-08-17T13:42:33.000Z</time><extensions/></trkpt><trkpt lat="59.398655723780394" lon="34.66014124453068"><ele>172.2100067138672</ele><time>2026-08-17T13:42:47.000Z</time><extensions/></trkpt><trkpt lat="59.398496467620134" lon="34.66028239578009"><ele>171.72999572753906</ele><time>2026-08-17T13:43:07.000Z</time><extensions/></trkpt><trkpt lat="59.3984186835587" lon="34.66038423590362"><ele>172.2100067138672</ele><time>2026-08-17T13:43:40.000Z</time><extensions/></trkpt><trkpt lat="59.39831969328225" lon="34.660536870360374"><ele>172.2100067138672</ele><time>2026-08-17T13:44:35.000Z</time><extensions/></trkpt><trkpt lat="59.39805516041815" lon="34.660832583904266"><ele>172.2100067138672</ele><time>2026-08-17T13:45:05.000Z</time><extensions/></trkpt><trkpt lat="59.39782239496708" lon="34.66113148257136"><ele>171.25</ele><time>2026-08-17T13:45:29.000Z</time><extensions/></trkpt><trkpt lat="59.39771049655974" lon="34.661233741790056"><ele>171.72999572753906</ele><time>2026-08-17T13:45:55.000Z</time><extensions/></trkpt><trkpt lat="59.39761184155941" lon="34.661257378757"><ele>172.2100067138672</ele><time>2026-08-17T13:46:19.000Z</time><extensions/></trkpt><trkpt lat="59.39740941859782" lon="34.661443289369345"><ele>172.2100067138672</ele><time>2026-08-17T13:47:30.000Z</time><extensions/></trkpt><trkpt lat="59.39718143083155" lon="34.661588883027434"><ele>172.2100067138672</ele><time>2026-08-17T13:47:54.000Z</time><extensions/></trkpt><trkpt lat="59.39701312221587" lon="34.66175174340606"><ele>172.2100067138672</ele><time>2026-08-17T13:48:12.000Z</time><extensions/></trkpt><trkpt lat="59.39688328653574" lon="34.66196338646114"><ele>172.2100067138672</ele><time>2026-08-17T13:48:29.000Z</time><extensions/></trkpt><trkpt lat="59.39673928543925" lon="34.662256836891174"><ele>172.2100067138672</ele><time>2026-08-17T13:48:51.000Z</time><extensions/></trkpt><trkpt lat="59.39671807922423" lon="34.66235716827214"><ele>172.2100067138672</ele><time>2026-08-17T13:49:14.000Z</time><extensions/></trkpt><trkpt lat="59.39673023298383" lon="34.66230385936797"><ele>172.2100067138672</ele><time>2026-08-17T13:49:37.000Z</time><extensions/></trkpt><trkpt lat="59.39672201871872" lon="34.66238549910486"><ele>172.2100067138672</ele><time>2026-08-17T13:51:05.000Z</time><extensions/></trkpt><trkpt lat="59.39662185497582" lon="34.662614492699504"><ele>171.72999572753906</ele><time>2026-08-17T13:52:15.000Z</time><extensions/></trkpt><trkpt lat="59.39648229628801" lon="34.66271641664207"><ele>171.72999572753906</ele><time>2026-08-17T13:52:33.000Z</time><extensions/></trkpt><trkpt lat="59.396459916606545" lon="34.662731755524874"><ele>171.72999572753906</ele><time>2026-08-17T13:52:35.000Z</time><extensions/></trkpt><trkpt lat="59.396326057612896" lon="34.66286536306143"><ele>171.25</ele><time>2026-08-17T13:52:51.000Z</time><extensions/></trkpt><trkpt lat="59.396285992115736" lon="34.66291875578463"><ele>171.25</ele><time>2026-08-17T13:53:08.000Z</time><extensions/></trkpt><trkpt lat="59.39612313173711" lon="34.663087064400315"><ele>171.25</ele><time>2026-08-17T13:55:07.000Z</time><extensions/></trkpt><trkpt lat="59.39604476094246" lon="34.6631863899529"><ele>170.77000427246094</ele><time>2026-08-17T13:55:27.000Z</time><extensions/></trkpt><trkpt lat="59.39595524221659" lon="34.66330658644438"><ele>170.77000427246094</ele><time>2026-08-17T13:55:51.000Z</time><extensions/></trkpt><trkpt lat="59.39587485976517" lon="34.66338981874287"><ele>171.25</ele><time>2026-08-17T13:57:04.000Z</time><extensions/></trkpt><trkpt lat="59.39583278261125" lon="34.66346886008978"><ele>170.77000427246094</ele><time>2026-08-17T13:57:44.000Z</time><extensions/></trkpt><trkpt lat="59.39572767354548" lon="34.663602132350206"><ele>169.80999755859375</ele><time>2026-08-17T13:58:43.000Z</time><extensions/></trkpt><trkpt lat="59.39557118341327" lon="34.663706654682755"><ele>170.77000427246094</ele><time>2026-08-17T13:59:07.000Z</time><extensions/></trkpt><trkpt lat="59.395347721874714" lon="34.66364873573184"><ele>171.25</ele><time>2026-08-17T13:59:27.000Z</time><extensions/></trkpt><trkpt lat="59.39532324671745" lon="34.663771195337176"><ele>171.25</ele><time>2026-08-17T13:59:48.000Z</time><extensions/></trkpt><trkpt lat="59.395288629457355" lon="34.66398778371513"><ele>170.77000427246094</ele><time>2026-08-17T14:00:13.000Z</time><extensions/></trkpt><trkpt lat="59.39530547708273" lon="34.66375183314085"><ele>170.77000427246094</ele><time>2026-08-17T14:01:06.000Z</time><extensions/></trkpt><trkpt lat="59.395058546215296" lon="34.66354748234153"><ele>171.25</ele><time>2026-08-17T14:01:29.000Z</time><extensions/></trkpt><trkpt lat="59.39502066001296" lon="34.663508674129844"><ele>171.25</ele><time>2026-08-17T14:01:33.000Z</time><extensions/></trkpt><trkpt lat="59.3949340749532" lon="34.66343717649579"><ele>170.77000427246094</ele><time>2026-08-17T14:01:50.000Z</time><extensions/></trkpt><trkpt lat="59.394913874566555" lon="34.66342359781265"><ele>170.77000427246094</ele><time>2026-08-17T14:02:36.000Z</time><extensions/></trkpt><trkpt lat="59.394829887896776" lon="34.66341286897659"><ele>170.77000427246094</ele><time>2026-08-17T14:03:04.000Z</time><extensions/></trkpt><trkpt lat="59.394722264260054" lon="34.663391495123506"><ele>170.77000427246094</ele><time>2026-08-17T14:03:21.000Z</time><extensions/></trkpt><trkpt lat="59.39463794231415" lon="34.66330826282501"><ele>170.2899932861328</ele><time>2026-08-17T14:03:43.000Z</time><extensions/></trkpt><trkpt lat="59.39453727565706" lon="34.66328043490648"><ele>170.2899932861328</ele><time>2026-08-17T14:04:01.000Z</time><extensions/></trkpt><trkpt lat="59.3944625928998" lon="34.663275238126516"><ele>169.80999755859375</ele><time>2026-08-17T14:04:22.000Z</time><extensions/></trkpt><trkpt lat="59.39444951713085" lon="34.66326802968979"><ele>169.80999755859375</ele><time>2026-08-17T14:04:55.000Z</time><extensions/></trkpt><trkpt lat="59.3945109564811" lon="34.66336383484304"><ele>169.80999755859375</ele><time>2026-08-17T14:05:35.000Z</time><extensions/></trkpt><trkpt lat="59.39453534781933" lon="34.663462825119495"><ele>170.2899932861328</ele><time>2026-08-17T14:05:51.000Z</time><extensions/></trkpt><trkpt lat="59.39457549713552" lon="34.66359559446573"><ele>170.2899932861328</ele><time>2026-08-17T14:06:04.000Z</time><extensions/></trkpt><trkpt lat="59.39461262896657" lon="34.663759376853704"><ele>170.2899932861328</ele><time>2026-08-17T14:06:22.000Z</time><extensions/></trkpt><trkpt lat="59.39461648464203" lon="34.66389399021864"><ele>169.80999755859375</ele><time>2026-08-17T14:06:39.000Z</time><extensions/></trkpt><trkpt lat="59.39462587237358" lon="34.66409046202898"><ele>169.80999755859375</ele><time>2026-08-17T14:06:55.000Z</time><extensions/></trkpt><trkpt lat="59.3946039956063" lon="34.66429925523698"><ele>170.2899932861328</ele><time>2026-08-17T14:07:13.000Z</time><extensions/></trkpt><trkpt lat="59.39452797174454" lon="34.6644002571702"><ele>169.80999755859375</ele><time>2026-08-17T14:07:35.000Z</time><extensions/></trkpt><trkpt lat="59.39452528953552" lon="34.66444409452379"><ele>169.80999755859375</ele><time>2026-08-17T14:07:55.000Z</time><extensions/></trkpt><trkpt lat="59.39444415271282" lon="34.66437762603164"><ele>169.80999755859375</ele><time>2026-08-17T14:09:10.000Z</time><extensions/></trkpt><trkpt lat="59.39441087655723" lon="34.66429908759892"><ele>169.80999755859375</ele><time>2026-08-17T14:09:28.000Z</time><extensions/></trkpt><trkpt lat="59.39432085491717" lon="34.664341835305095"><ele>169.80999755859375</ele><time>2026-08-17T14:09:50.000Z</time><extensions/></trkpt><trkpt lat="59.394288919866085" lon="34.66448089107871"><ele>169.80999755859375</ele><time>2026-08-17T14:10:13.000Z</time><extensions/></trkpt><trkpt lat="59.39422647468746" lon="34.66456923633814"><ele>169.80999755859375</ele><time>2026-08-17T14:11:30.000Z</time><extensions/></trkpt><trkpt lat="59.39409077167511" lon="34.664742574095726"><ele>169.80999755859375</ele><time>2026-08-17T14:11:48.000Z</time><extensions/></trkpt><trkpt lat="59.39399463124573" lon="34.66503602452576"><ele>169.80999755859375</ele><time>2026-08-17T14:12:09.000Z</time><extensions/></trkpt><trkpt lat="59.39394702203572" lon="34.665283458307385"><ele>169.3300018310547</ele><time>2026-08-17T14:12:27.000Z</time><extensions/></trkpt><trkpt lat="59.39390351995826" lon="34.66552116908133"><ele>169.3300018310547</ele><time>2026-08-17T14:12:48.000Z</time><extensions/></trkpt><trkpt lat="59.39391056075692" lon="34.66574831865728"><ele>168.85000610351562</ele><time>2026-08-17T14:13:05.000Z</time><extensions/></trkpt><trkpt lat="59.39394132234156" lon="34.66596566140652"><ele>168.85000610351562</ele><time>2026-08-17T14:13:28.000Z</time><extensions/></trkpt><trkpt lat="59.393998654559255" lon="34.66624779626727"><ele>168.85000610351562</ele><time>2026-08-17T14:13:55.000Z</time><extensions/></trkpt><trkpt lat="59.394000079482794" lon="34.66647444292903"><ele>168.3699951171875</ele><time>2026-08-17T14:14:21.000Z</time><extensions/></trkpt><trkpt lat="59.3940378818661" lon="34.66649648733437"><ele>168.3699951171875</ele><time>2026-08-17T14:15:14.000Z</time><extensions/></trkpt><trkpt lat="59.39412304200232" lon="34.666691198945045"><ele>168.85000610351562</ele><time>2026-08-17T14:18:36.000Z</time><extensions/></trkpt><trkpt lat="59.39416268840432" lon="34.66694944538176"><ele>169.3300018310547</ele><time>2026-08-17T14:18:55.000Z</time><extensions/></trkpt><trkpt lat="59.394216584041715" lon="34.667149940505624"><ele>168.85000610351562</ele><time>2026-08-17T14:19:16.000Z</time><extensions/></trkpt><trkpt lat="59.394220942631364" lon="34.6673668641597"><ele>168.3699951171875</ele><time>2026-08-17T14:19:44.000Z</time><extensions/></trkpt><trkpt lat="59.394263438880444" lon="34.66747314669192"><ele>168.3699951171875</ele><time>2026-08-17T14:20:02.000Z</time><extensions/></trkpt><trkpt lat="59.39430836588144" lon="34.66765335761011"><ele>167.88999938964844</ele><time>2026-08-17T14:20:20.000Z</time><extensions/></trkpt><trkpt lat="59.39438137225807" lon="34.66782594099641"><ele>167.41000366210938</ele><time>2026-08-17T14:20:37.000Z</time><extensions/></trkpt><trkpt lat="59.39438799396157" lon="34.667877573519945"><ele>167.41000366210938</ele><time>2026-08-17T14:21:09.000Z</time><extensions/></trkpt><trkpt lat="59.39429981634021" lon="34.66788662597537"><ele>167.41000366210938</ele><time>2026-08-17T14:22:14.000Z</time><extensions/></trkpt><trkpt lat="59.39418909139931" lon="34.66795125044882"><ele>167.41000366210938</ele><time>2026-08-17T14:22:28.000Z</time><extensions/></trkpt><trkpt lat="59.39411365427077" lon="34.6680024638772"><ele>167.41000366210938</ele><time>2026-08-17T14:22:44.000Z</time><extensions/></trkpt><trkpt lat="59.393995720893145" lon="34.667986538261175"><ele>167.41000366210938</ele><time>2026-08-17T14:23:00.000Z</time><extensions/></trkpt><trkpt lat="59.3938407395035" lon="34.66795762069523"><ele>167.41000366210938</ele><time>2026-08-17T14:23:18.000Z</time><extensions/></trkpt><trkpt lat="59.39374133013189" lon="34.66788427904248"><ele>167.41000366210938</ele><time>2026-08-17T14:23:36.000Z</time><extensions/></trkpt><trkpt lat="59.393679555505514" lon="34.667831137776375"><ele>167.41000366210938</ele><time>2026-08-17T14:23:52.000Z</time><extensions/></trkpt><trkpt lat="59.393599927425385" lon="34.66782049275935"><ele>167.41000366210938</ele><time>2026-08-17T14:24:03.000Z</time><extensions/></trkpt><trkpt lat="59.39351367764175" lon="34.66780406422913"><ele>166.92999267578125</ele><time>2026-08-17T14:24:29.000Z</time><extensions/></trkpt><trkpt lat="59.393475288525224" lon="34.66770524159074"><ele>166.92999267578125</ele><time>2026-08-17T14:24:43.000Z</time><extensions/></trkpt><trkpt lat="59.39344628714025" lon="34.66756836511195"><ele>166.92999267578125</ele><time>2026-08-17T14:25:01.000Z</time><extensions/></trkpt><trkpt lat="59.39342809841037" lon="34.667469039559364"><ele>166.92999267578125</ele><time>2026-08-17T14:25:29.000Z</time><extensions/></trkpt><trkpt lat="59.39333589747548" lon="34.66730324551463"><ele>166.92999267578125</ele><time>2026-08-17T14:26:49.000Z</time><extensions/></trkpt><trkpt lat="59.393255934119225" lon="34.667244236916304"><ele>166.92999267578125</ele><time>2026-08-17T14:27:13.000Z</time><extensions/></trkpt><trkpt lat="59.393200781196356" lon="34.66721238568425"><ele>166.92999267578125</ele><time>2026-08-17T14:27:36.000Z</time><extensions/></trkpt><trkpt lat="59.39312366768718" lon="34.66723912395537"><ele>166.92999267578125</ele><time>2026-08-17T14:28:09.000Z</time><extensions/></trkpt><trkpt lat="59.392942786216736" lon="34.6669749263674"><ele>166.4499969482422</ele><time>2026-08-17T14:28:59.000Z</time><extensions/></trkpt><trkpt lat="59.39284639433026" lon="34.666760098189116"><ele>166.92999267578125</ele><time>2026-08-17T14:29:18.000Z</time><extensions/></trkpt><trkpt lat="59.392827954143286" lon="34.66658399440348"><ele>166.4499969482422</ele><time>2026-08-17T14:29:40.000Z</time><extensions/></trkpt><trkpt lat="59.3928100168705" lon="34.66644988395274"><ele>166.92999267578125</ele><time>2026-08-17T14:30:00.000Z</time><extensions/></trkpt><trkpt lat="59.39279928803444" lon="34.66632499359548"><ele>166.92999267578125</ele><time>2026-08-17T14:30:21.000Z</time><extensions/></trkpt><trkpt lat="59.392776656895876" lon="34.6661286894232"><ele>166.92999267578125</ele><time>2026-08-17T14:30:49.000Z</time><extensions/></trkpt><trkpt lat="59.392741871997714" lon="34.66596079990268"><ele>165.9600067138672</ele><time>2026-08-17T14:32:47.000Z</time><extensions/></trkpt><trkpt lat="59.39259493723512" lon="34.666092563420534"><ele>166.4499969482422</ele><time>2026-08-17T14:33:12.000Z</time><extensions/></trkpt><trkpt lat="59.39245177432895" lon="34.66607378795743"><ele>166.4499969482422</ele><time>2026-08-17T14:33:30.000Z</time><extensions/></trkpt><trkpt lat="59.39233954064548" lon="34.66594152152538"><ele>166.4499969482422</ele><time>2026-08-17T14:33:48.000Z</time><extensions/></trkpt><trkpt lat="59.39226184040308" lon="34.66582945547998"><ele>166.4499969482422</ele><time>2026-08-17T14:34:02.000Z</time><extensions/></trkpt><trkpt lat="59.392144829034805" lon="34.66583792120218"><ele>166.4499969482422</ele><time>2026-08-17T14:34:22.000Z</time><extensions/></trkpt><trkpt lat="59.39205313101411" lon="34.66583917848766"><ele>165.9600067138672</ele><time>2026-08-17T14:34:51.000Z</time><extensions/></trkpt><trkpt lat="59.39206888899207" lon="34.666007654741406"><ele>166.4499969482422</ele><time>2026-08-17T14:35:07.000Z</time><extensions/></trkpt><trkpt lat="59.392101746052504" lon="34.66618384234607"><ele>166.4499969482422</ele><time>2026-08-17T14:35:21.000Z</time><extensions/></trkpt><trkpt lat="59.39210493117571" lon="34.66642155312002"><ele>166.4499969482422</ele><time>2026-08-17T14:35:40.000Z</time><extensions/></trkpt><trkpt lat="59.392122365534306" lon="34.666643841192126"><ele>166.4499969482422</ele><time>2026-08-17T14:35:59.000Z</time><extensions/></trkpt><trkpt lat="59.39211222343147" lon="34.66685087420046"><ele>166.4499969482422</ele><time>2026-08-17T14:36:32.000Z</time><extensions/></trkpt><trkpt lat="59.39194567501545" lon="34.666783483698964"><ele>166.4499969482422</ele><time>2026-08-17T14:38:31.000Z</time><extensions/></trkpt><trkpt lat="59.3918326869607" lon="34.66682866215706"><ele>166.4499969482422</ele><time>2026-08-17T14:38:47.000Z</time><extensions/></trkpt><trkpt lat="59.3917460180819" lon="34.6668472699821"><ele>166.92999267578125</ele><time>2026-08-17T14:39:00.000Z</time><extensions/></trkpt><trkpt lat="59.39168172888458" lon="34.666892532259226"><ele>166.92999267578125</ele><time>2026-08-17T14:39:16.000Z</time><extensions/></trkpt><trkpt lat="59.391652727499604" lon="34.66695665381849"><ele>166.4499969482422</ele><time>2026-08-17T14:39:42.000Z</time><extensions/></trkpt><trkpt lat="59.391545690596104" lon="34.667006861418486"><ele>166.92999267578125</ele><time>2026-08-17T14:40:22.000Z</time><extensions/></trkpt><trkpt lat="59.391473857685924" lon="34.667010717093945"><ele>166.4499969482422</ele><time>2026-08-17T14:40:51.000Z</time><extensions/></trkpt><trkpt lat="59.391473438590765" lon="34.66701926663518"><ele>166.4499969482422</ele><time>2026-08-17T14:41:32.000Z</time><extensions/></trkpt><trkpt lat="59.39134142361581" lon="34.667077688500285"><ele>166.92999267578125</ele><time>2026-08-17T14:42:55.000Z</time><extensions/></trkpt><trkpt lat="59.391239332035184" lon="34.66722738929093"><ele>166.92999267578125</ele><time>2026-08-17T14:43:15.000Z</time><extensions/></trkpt><trkpt lat="59.39114084467292" lon="34.66729796491563"><ele>166.92999267578125</ele><time>2026-08-17T14:43:33.000Z</time><extensions/></trkpt><trkpt lat="59.39110815525055" lon="34.66751975007355"><ele>166.92999267578125</ele><time>2026-08-17T14:43:48.000Z</time><extensions/></trkpt><trkpt lat="59.39106456935406" lon="34.66767364181578"><ele>167.41000366210938</ele><time>2026-08-17T14:44:05.000Z</time><extensions/></trkpt><trkpt lat="59.39094906672835" lon="34.66786206699908"><ele>166.92999267578125</ele><time>2026-08-17T14:44:25.000Z</time><extensions/></trkpt><trkpt lat="59.3908498249948" lon="34.66800581663847"><ele>166.92999267578125</ele><time>2026-08-17T14:44:41.000Z</time><extensions/></trkpt><trkpt lat="59.39074555411935" lon="34.66813322156668"><ele>166.92999267578125</ele><time>2026-08-17T14:44:59.000Z</time><extensions/></trkpt><trkpt lat="59.390698950737715" lon="34.66820849105716"><ele>166.92999267578125</ele><time>2026-08-17T14:45:16.000Z</time><extensions/></trkpt><trkpt lat="59.390576323494315" lon="34.668416026979685"><ele>166.92999267578125</ele><time>2026-08-17T14:46:38.000Z</time><extensions/></trkpt><trkpt lat="59.39052879810333" lon="34.66850504279137"><ele>166.92999267578125</ele><time>2026-08-17T14:46:46.000Z</time><extensions/></trkpt><trkpt lat="59.39047724939883" lon="34.668683744966984"><ele>166.92999267578125</ele><time>2026-08-17T14:47:01.000Z</time><extensions/></trkpt><trkpt lat="59.39045864157379" lon="34.66871626675129"><ele>166.92999267578125</ele><time>2026-08-17T14:47:04.000Z</time><extensions/></trkpt><trkpt lat="59.39036786556244" lon="34.66881307773292"><ele>166.92999267578125</ele><time>2026-08-17T14:47:20.000Z</time><extensions/></trkpt><trkpt lat="59.39030718058348" lon="34.669014662504196"><ele>166.92999267578125</ele><time>2026-08-17T14:47:53.000Z</time><extensions/></trkpt><trkpt lat="59.39026007428765" lon="34.6692009922117"><ele>166.4499969482422</ele><time>2026-08-17T14:48:10.000Z</time><extensions/></trkpt><trkpt lat="59.39029804430902" lon="34.66936661861837"><ele>166.4499969482422</ele><time>2026-08-17T14:48:26.000Z</time><extensions/></trkpt><trkpt lat="59.390226630494" lon="34.669535430148244"><ele>166.4499969482422</ele><time>2026-08-17T14:48:47.000Z</time><extensions/></trkpt><trkpt lat="59.39017918892205" lon="34.669720251113176"><ele>166.4499969482422</ele><time>2026-08-17T14:49:03.000Z</time><extensions/></trkpt><trkpt lat="59.39009729772806" lon="34.6699692774564"><ele>166.4499969482422</ele><time>2026-08-17T14:49:21.000Z</time><extensions/></trkpt><trkpt lat="59.390030577778816" lon="34.670108668506145"><ele>166.4499969482422</ele><time>2026-08-17T14:49:37.000Z</time><extensions/></trkpt><trkpt lat="59.3899742513895" lon="34.67017731629312"><ele>166.4499969482422</ele><time>2026-08-17T14:49:50.000Z</time><extensions/></trkpt><trkpt lat="59.38992504961789" lon="34.67024437151849"><ele>166.4499969482422</ele><time>2026-08-17T14:50:47.000Z</time><extensions/></trkpt><trkpt lat="59.389848690479994" lon="34.67032634653151"><ele>166.4499969482422</ele><time>2026-08-17T14:51:00.000Z</time><extensions/></trkpt><trkpt lat="59.389757327735424" lon="34.67035476118326"><ele>166.4499969482422</ele><time>2026-08-17T14:51:23.000Z</time><extensions/></trkpt><trkpt lat="59.3896634504199" lon="34.67040589079261"><ele>165.9600067138672</ele><time>2026-08-17T14:51:40.000Z</time><extensions/></trkpt><trkpt lat="59.38948893919587" lon="34.67048426158726"><ele>166.4499969482422</ele><time>2026-08-17T14:52:02.000Z</time><extensions/></trkpt><trkpt lat="59.38942045904696" lon="34.670515274629"><ele>165.9600067138672</ele><time>2026-08-17T14:52:19.000Z</time><extensions/></trkpt><trkpt lat="59.38926933333278" lon="34.6706688310951"><ele>166.4499969482422</ele><time>2026-08-17T14:54:17.000Z</time><extensions/></trkpt><trkpt lat="59.38917084597051" lon="34.67072373256087"><ele>166.4499969482422</ele><time>2026-08-17T14:54:34.000Z</time><extensions/></trkpt><trkpt lat="59.38906908966601" lon="34.67081509530544"><ele>166.4499969482422</ele><time>2026-08-17T14:54:50.000Z</time><extensions/></trkpt><trkpt lat="59.388944366946816" lon="34.670869493857026"><ele>166.4499969482422</ele><time>2026-08-17T14:55:10.000Z</time><extensions/></trkpt><trkpt lat="59.3888552673161" lon="34.67093411833048"><ele>165.9600067138672</ele><time>2026-08-17T14:55:33.000Z</time><extensions/></trkpt><trkpt lat="59.38880153931677" lon="34.67096638865769"><ele>165.9600067138672</ele><time>2026-08-17T14:56:06.000Z</time><extensions/></trkpt><trkpt lat="59.38872107304633" lon="34.670975524932146"><ele>165.47999572753906</ele><time>2026-08-17T14:57:44.000Z</time><extensions/></trkpt><trkpt lat="59.38859417103231" lon="34.67117249965668"><ele>165.47999572753906</ele><time>2026-08-17T14:58:09.000Z</time><extensions/></trkpt><trkpt lat="59.38852527178824" lon="34.67126687988639"><ele>165.47999572753906</ele><time>2026-08-17T14:58:26.000Z</time><extensions/></trkpt><trkpt lat="59.388426868245006" lon="34.67137794010341"><ele>165.47999572753906</ele><time>2026-08-17T14:59:18.000Z</time><extensions/></trkpt><trkpt lat="59.38842276111245" lon="34.67148288153112"><ele>165.47999572753906</ele><time>2026-08-17T14:59:54.000Z</time><extensions/></trkpt><trkpt lat="59.388316897675395" lon="34.67174867168069"><ele>165.9600067138672</ele><time>2026-08-17T15:00:25.000Z</time><extensions/></trkpt><trkpt lat="59.38820717856288" lon="34.671934582293034"><ele>165.9600067138672</ele><time>2026-08-17T15:00:49.000Z</time><extensions/></trkpt><trkpt lat="59.38817993737757" lon="34.671967858448625"><ele>165.9600067138672</ele><time>2026-08-17T15:01:15.000Z</time><extensions/></trkpt><trkpt lat="59.38805328682065" lon="34.672114457935095"><ele>165.9600067138672</ele><time>2026-08-17T15:01:36.000Z</time><extensions/></trkpt><trkpt lat="59.38800475560129" lon="34.672189224511385"><ele>165.9600067138672</ele><time>2026-08-17T15:02:06.000Z</time><extensions/></trkpt><trkpt lat="59.3879418913275" lon="34.67223993502557"><ele>165.47999572753906</ele><time>2026-08-17T15:02:32.000Z</time><extensions/></trkpt><trkpt lat="59.387914817780256" lon="34.67219634912908"><ele>165.47999572753906</ele><time>2026-08-17T15:10:29.000Z</time><extensions/></trkpt><trkpt lat="59.38790509477258" lon="34.67217673547566"><ele>165.47999572753906</ele><time>2026-08-17T15:10:48.000Z</time><extensions/></trkpt><trkpt lat="59.387825382873416" lon="34.67203063890338"><ele>165.9600067138672</ele><time>2026-08-17T15:21:40.000Z</time><extensions/></trkpt><trkpt lat="59.387797974050045" lon="34.67186702415347"><ele>165.9600067138672</ele><time>2026-08-17T15:22:02.000Z</time><extensions/></trkpt><trkpt lat="59.387730583548546" lon="34.67188546434045"><ele>165.47999572753906</ele><time>2026-08-17T15:22:21.000Z</time><extensions/></trkpt><trkpt lat="59.38761885277927" lon="34.67192351818085"><ele>165.47999572753906</ele><time>2026-08-17T15:23:01.000Z</time><extensions/></trkpt><trkpt lat="59.38751977868378" lon="34.6719516813755"><ele>165.47999572753906</ele><time>2026-08-17T15:23:20.000Z</time><extensions/></trkpt><trkpt lat="59.38750879839063" lon="34.6719347499311"><ele>165.47999572753906</ele><time>2026-08-17T15:23:22.000Z</time><extensions/></trkpt><trkpt lat="59.38738918863237" lon="34.67187465168536"><ele>165.47999572753906</ele><time>2026-08-17T15:23:38.000Z</time><extensions/></trkpt><trkpt lat="59.387320624664426" lon="34.67174724675715"><ele>165.47999572753906</ele><time>2026-08-17T15:23:55.000Z</time><extensions/></trkpt><trkpt lat="59.387313751503825" lon="34.671554462984204"><ele>165.47999572753906</ele><time>2026-08-17T15:24:11.000Z</time><extensions/></trkpt><trkpt lat="59.387260442599654" lon="34.67127786017954"><ele>165.47999572753906</ele><time>2026-08-17T15:24:29.000Z</time><extensions/></trkpt><trkpt lat="59.387180898338556" lon="34.671116676181555"><ele>165.47999572753906</ele><time>2026-08-17T15:24:45.000Z</time><extensions/></trkpt><trkpt lat="59.38713219948113" lon="34.67092146165669"><ele>165.47999572753906</ele><time>2026-08-17T15:25:03.000Z</time><extensions/></trkpt><trkpt lat="59.38709422945976" lon="34.670695988461375"><ele>165.9600067138672</ele><time>2026-08-17T15:26:24.000Z</time><extensions/></trkpt><trkpt lat="59.38700085505843" lon="34.67053874395788"><ele>165.9600067138672</ele><time>2026-08-17T15:26:40.000Z</time><extensions/></trkpt><trkpt lat="59.386961376294494" lon="34.670470682904124"><ele>165.9600067138672</ele><time>2026-08-17T15:26:46.000Z</time><extensions/></trkpt><trkpt lat="59.38690647482872" lon="34.670271864160895"><ele>165.9600067138672</ele><time>2026-08-17T15:27:02.000Z</time><extensions/></trkpt><trkpt lat="59.386899853125215" lon="34.670256273820996"><ele>165.9600067138672</ele><time>2026-08-17T15:27:03.000Z</time><extensions/></trkpt><trkpt lat="59.38685576431453" lon="34.67013783752918"><ele>165.9600067138672</ele><time>2026-08-17T15:27:19.000Z</time><extensions/></trkpt><trkpt lat="59.38676976598799" lon="34.6700247656554"><ele>165.9600067138672</ele><time>2026-08-17T15:27:39.000Z</time><extensions/></trkpt><trkpt lat="59.386712266132236" lon="34.669859977439046"><ele>165.9600067138672</ele><time>2026-08-17T15:27:55.000Z</time><extensions/></trkpt><trkpt lat="59.386669183149934" lon="34.66973374597728"><ele>165.9600067138672</ele><time>2026-08-17T15:28:10.000Z</time><extensions/></trkpt><trkpt lat="59.38657505437732" lon="34.669667864218354"><ele>166.4499969482422</ele><time>2026-08-17T15:28:28.000Z</time><extensions/></trkpt><trkpt lat="59.386473298072815" lon="34.669644394889474"><ele>165.9600067138672</ele><time>2026-08-17T15:28:44.000Z</time><extensions/></trkpt><trkpt lat="59.386359890922904" lon="34.669790491461754"><ele>165.9600067138672</ele><time>2026-08-17T15:29:06.000Z</time><extensions/></trkpt><trkpt lat="59.38635033555329" lon="34.66982804238796"><ele>165.9600067138672</ele><time>2026-08-17T15:29:08.000Z</time><extensions/></trkpt><trkpt lat="59.38630415126681" lon="34.66974732466042"><ele>165.9600067138672</ele><time>2026-08-17T15:29:26.000Z</time><extensions/></trkpt><trkpt lat="59.38616082072258" lon="34.6694874856621"><ele>165.47999572753906</ele><time>2026-08-17T15:29:48.000Z</time><extensions/></trkpt><trkpt lat="59.38614388927817" lon="34.66946275904775"><ele>165.0</ele><time>2026-08-17T15:30:21.000Z</time><extensions/></trkpt><trkpt lat="59.3863186519593" lon="34.66926746070385"><ele>165.0</ele><time>2026-08-17T15:31:33.000Z</time><extensions/></trkpt><trkpt lat="59.38643356785178" lon="34.66916888952255"><ele>165.47999572753906</ele><time>2026-08-17T15:31:50.000Z</time><extensions/></trkpt><trkpt lat="59.386557368561625" lon="34.66914055868983"><ele>165.9600067138672</ele><time>2026-08-17T15:32:07.000Z</time><extensions/></trkpt><trkpt lat="59.38659332692623" lon="34.668995635584"><ele>165.9600067138672</ele><time>2026-08-17T15:32:21.000Z</time><extensions/></trkpt><trkpt lat="59.386632638052106" lon="34.66877242550254"><ele>165.47999572753906</ele><time>2026-08-17T15:32:38.000Z</time><extensions/></trkpt><trkpt lat="59.386738082394004" lon="34.66863512992859"><ele>166.4499969482422</ele><time>2026-08-17T15:32:57.000Z</time><extensions/></trkpt><trkpt lat="59.38690982758999" lon="34.66868223622441"><ele>166.92999267578125</ele><time>2026-08-17T15:33:22.000Z</time><extensions/></trkpt><trkpt lat="59.38692742958665" lon="34.66868206858635"><ele>166.92999267578125</ele><time>2026-08-17T15:34:13.000Z</time><extensions/></trkpt><trkpt lat="59.387011835351586" lon="34.66865667141974"><ele>166.92999267578125</ele><time>2026-08-17T15:34:44.000Z</time><extensions/></trkpt><trkpt lat="59.38708425499499" lon="34.66840881854296"><ele>166.92999267578125</ele><time>2026-08-17T15:35:03.000Z</time><extensions/></trkpt><trkpt lat="59.38725843094289" lon="34.66833874583244"><ele>166.4499969482422</ele><time>2026-08-17T15:35:23.000Z</time><extensions/></trkpt><trkpt lat="59.38742699101567" lon="34.668282670900226"><ele>166.92999267578125</ele><time>2026-08-17T15:35:43.000Z</time><extensions/></trkpt><trkpt lat="59.38757384195924" lon="34.6680870372802"><ele>167.41000366210938</ele><time>2026-08-17T15:36:04.000Z</time><extensions/></trkpt><trkpt lat="59.38765732571483" lon="34.66801076196134"><ele>167.41000366210938</ele><time>2026-08-17T15:36:23.000Z</time><extensions/></trkpt><trkpt lat="59.387726644054055" lon="34.668082259595394"><ele>167.41000366210938</ele><time>2026-08-17T15:36:43.000Z</time><extensions/></trkpt><trkpt lat="59.387733517214656" lon="34.66814403422177"><ele>167.41000366210938</ele><time>2026-08-17T15:37:15.000Z</time><extensions/></trkpt><trkpt lat="59.38774994574487" lon="34.668137580156326"><ele>167.88999938964844</ele><time>2026-08-17T15:37:49.000Z</time><extensions/></trkpt><trkpt lat="59.38784566707909" lon="34.66807245276868"><ele>167.88999938964844</ele><time>2026-08-17T15:38:25.000Z</time><extensions/></trkpt><trkpt lat="59.38787491992116" lon="34.667918141931295"><ele>167.88999938964844</ele><time>2026-08-17T15:38:41.000Z</time><extensions/></trkpt><trkpt lat="59.38795999623835" lon="34.66782024130225"><ele>167.88999938964844</ele><time>2026-08-17T15:39:05.000Z</time><extensions/></trkpt><trkpt lat="59.38811673782766" lon="34.66770247556269"><ele>167.88999938964844</ele><time>2026-08-17T15:39:22.000Z</time><extensions/></trkpt><trkpt lat="59.388144398108125" lon="34.667541375383735"><ele>167.41000366210938</ele><time>2026-08-17T15:39:35.000Z</time><extensions/></trkpt><trkpt lat="59.388294434174895" lon="34.66735638678074"><ele>166.92999267578125</ele><time>2026-08-17T15:39:56.000Z</time><extensions/></trkpt><trkpt lat="59.38841253519058" lon="34.66728103347123"><ele>166.4499969482422</ele><time>2026-08-17T15:40:14.000Z</time><extensions/></trkpt><trkpt lat="59.38853566534817" lon="34.667139295488596"><ele>165.9600067138672</ele><time>2026-08-17T15:40:33.000Z</time><extensions/></trkpt><trkpt lat="59.388539269566536" lon="34.66711448505521"><ele>166.4499969482422</ele><time>2026-08-17T15:41:04.000Z</time><extensions/></trkpt><trkpt lat="59.388610096648335" lon="34.66684207320213"><ele>166.4499969482422</ele><time>2026-08-17T15:41:53.000Z</time><extensions/></trkpt><trkpt lat="59.38873984850943" lon="34.666808964684606"><ele>167.41000366210938</ele><time>2026-08-17T15:42:11.000Z</time><extensions/></trkpt><trkpt lat="59.38889457844198" lon="34.66693117283285"><ele>167.41000366210938</ele><time>2026-08-17T15:42:27.000Z</time><extensions/></trkpt><trkpt lat="59.38899725675583" lon="34.66708774678409"><ele>167.41000366210938</ele><time>2026-08-17T15:42:43.000Z</time><extensions/></trkpt><trkpt lat="59.389121141284704" lon="34.66717273928225"><ele>166.92999267578125</ele><time>2026-08-17T15:43:01.000Z</time><extensions/></trkpt><trkpt lat="59.38914427533746" lon="34.66705187223852"><ele>166.92999267578125</ele><time>2026-08-17T15:43:16.000Z</time><extensions/></trkpt><trkpt lat="59.3892508931458" lon="34.66692689806223"><ele>166.92999267578125</ele><time>2026-08-17T15:43:33.000Z</time><extensions/></trkpt><trkpt lat="59.389344938099384" lon="34.66686403378844"><ele>166.92999267578125</ele><time>2026-08-17T15:43:58.000Z</time><extensions/></trkpt><trkpt lat="59.38942397944629" lon="34.666648199781775"><ele>166.92999267578125</ele><time>2026-08-17T15:44:14.000Z</time><extensions/></trkpt><trkpt lat="59.38953327946365" lon="34.666548455134034"><ele>166.92999267578125</ele><time>2026-08-17T15:44:34.000Z</time><extensions/></trkpt><trkpt lat="59.38961785286665" lon="34.66644971631467"><ele>166.92999267578125</ele><time>2026-08-17T15:45:43.000Z</time><extensions/></trkpt><trkpt lat="59.38971214927733" lon="34.6663567610085"><ele>166.4499969482422</ele><time>2026-08-17T15:46:00.000Z</time><extensions/></trkpt><trkpt lat="59.389763781800866" lon="34.66637478210032"><ele>166.92999267578125</ele><time>2026-08-17T15:46:09.000Z</time><extensions/></trkpt><trkpt lat="59.38985246233642" lon="34.6663118340075"><ele>166.4499969482422</ele><time>2026-08-17T15:46:26.000Z</time><extensions/></trkpt><trkpt lat="59.38993167132139" lon="34.66636539436877"><ele>166.4499969482422</ele><time>2026-08-17T15:46:42.000Z</time><extensions/></trkpt><trkpt lat="59.39001649618149" lon="34.66637277044356"><ele>166.4499969482422</ele><time>2026-08-17T15:46:55.000Z</time><extensions/></trkpt><trkpt lat="59.390121353790164" lon="34.66641937382519"><ele>165.9600067138672</ele><time>2026-08-17T15:47:10.000Z</time><extensions/></trkpt><trkpt lat="59.39015722833574" lon="34.66632734052837"><ele>166.4499969482422</ele><time>2026-08-17T15:47:29.000Z</time><extensions/></trkpt><trkpt lat="59.390205424278975" lon="34.666033973917365"><ele>167.41000366210938</ele><time>2026-08-17T15:47:53.000Z</time><extensions/></trkpt><trkpt lat="59.390232749283314" lon="34.66590388678014"><ele>167.88999938964844</ele><time>2026-08-17T15:48:10.000Z</time><extensions/></trkpt><trkpt lat="59.390230821445584" lon="34.66575753875077"><ele>168.3699951171875</ele><time>2026-08-17T15:48:26.000Z</time><extensions/></trkpt><trkpt lat="59.39018522389233" lon="34.66566466726363"><ele>168.3699951171875</ele><time>2026-08-17T15:48:42.000Z</time><extensions/></trkpt><trkpt lat="59.390198551118374" lon="34.66546878218651"><ele>168.85000610351562</ele><time>2026-08-17T15:48:59.000Z</time><extensions/></trkpt><trkpt lat="59.390113642439246" lon="34.66525437310338"><ele>168.85000610351562</ele><time>2026-08-17T15:50:52.000Z</time><extensions/></trkpt><trkpt lat="59.39002194441855" lon="34.66508044861257"><ele>168.85000610351562</ele><time>2026-08-17T15:51:09.000Z</time><extensions/></trkpt><trkpt lat="59.39000476151705" lon="34.66504222713411"><ele>168.85000610351562</ele><time>2026-08-17T15:51:12.000Z</time><extensions/></trkpt><trkpt lat="59.389940639957786" lon="34.6647974755615"><ele>168.3699951171875</ele><time>2026-08-17T15:51:29.000Z</time><extensions/></trkpt><trkpt lat="59.38988531939685" lon="34.6645522210747"><ele>167.88999938964844</ele><time>2026-08-17T15:51:46.000Z</time><extensions/></trkpt><trkpt lat="59.38983226194978" lon="34.66437133960426"><ele>167.88999938964844</ele><time>2026-08-17T15:52:07.000Z</time><extensions/></trkpt><trkpt lat="59.38977534882724" lon="34.664126839488745"><ele>168.3699951171875</ele><time>2026-08-17T15:52:26.000Z</time><extensions/></trkpt><trkpt lat="59.389778366312385" lon="34.664059365168214"><ele>168.3699951171875</ele><time>2026-08-17T15:52:54.000Z</time><extensions/></trkpt><trkpt lat="59.389739725738764" lon="34.663869347423315"><ele>168.3699951171875</ele><time>2026-08-17T15:54:19.000Z</time><extensions/></trkpt><trkpt lat="59.389633694663644" lon="34.663750659674406"><ele>168.3699951171875</ele><time>2026-08-17T15:54:36.000Z</time><extensions/></trkpt><trkpt lat="59.389597149565816" lon="34.663695925846696"><ele>168.3699951171875</ele><time>2026-08-17T15:54:53.000Z</time><extensions/></trkpt><trkpt lat="59.3894855864346" lon="34.66385342180729"><ele>168.3699951171875</ele><time>2026-08-17T15:55:19.000Z</time><extensions/></trkpt><trkpt lat="59.38932775519788" lon="34.663800867274404"><ele>166.92999267578125</ele><time>2026-08-17T15:55:38.000Z</time><extensions/></trkpt><trkpt lat="59.38920454122126" lon="34.66372735798359"><ele>165.9600067138672</ele><time>2026-08-17T15:55:56.000Z</time><extensions/></trkpt><trkpt lat="59.38913304358721" lon="34.66358821839094"><ele>165.9600067138672</ele><time>2026-08-17T15:56:12.000Z</time><extensions/></trkpt><trkpt lat="59.38904285430908" lon="34.663563994690776"><ele>165.9600067138672</ele><time>2026-08-17T15:56:30.000Z</time><extensions/></trkpt><trkpt lat="59.388965321704745" lon="34.66344949789345"><ele>165.9600067138672</ele><time>2026-08-17T15:56:47.000Z</time><extensions/></trkpt><trkpt lat="59.38892894424498" lon="34.66354672797024"><ele>165.9600067138672</ele><time>2026-08-17T15:57:11.000Z</time><extensions/></trkpt><trkpt lat="59.388854932039976" lon="34.663706570863724"><ele>165.9600067138672</ele><time>2026-08-17T15:57:32.000Z</time><extensions/></trkpt><trkpt lat="59.388817716389894" lon="34.66380656696856"><ele>165.9600067138672</ele><time>2026-08-17T15:58:01.000Z</time><extensions/></trkpt><trkpt lat="59.38883154653013" lon="34.66406414285302"><ele>166.92999267578125</ele><time>2026-08-17T15:58:23.000Z</time><extensions/></trkpt><trkpt lat="59.3888486456126" lon="34.66409842483699"><ele>166.92999267578125</ele><time>2026-08-17T15:58:25.000Z</time><extensions/></trkpt><trkpt lat="59.388820147141814" lon="34.66432607732713"><ele>166.4499969482422</ele><time>2026-08-17T15:58:41.000Z</time><extensions/></trkpt><trkpt lat="59.388711685314775" lon="34.664321383461356"><ele>166.4499969482422</ele><time>2026-08-17T15:59:08.000Z</time><extensions/></trkpt><trkpt lat="59.388578832149506" lon="34.66438349336386"><ele>165.9600067138672</ele><time>2026-08-17T16:00:10.000Z</time><extensions/></trkpt><trkpt lat="59.388489816337824" lon="34.66448223218322"><ele>165.9600067138672</ele><time>2026-08-17T16:00:25.000Z</time><extensions/></trkpt><trkpt lat="59.388420497998595" lon="34.66458625160158"><ele>165.9600067138672</ele><time>2026-08-17T16:00:39.000Z</time><extensions/></trkpt><trkpt lat="59.38828529790044" lon="34.6646938752383"><ele>165.9600067138672</ele><time>2026-08-17T16:01:02.000Z</time><extensions/></trkpt><trkpt lat="59.38813894987106" lon="34.66468465514481"><ele>166.4499969482422</ele><time>2026-08-17T16:01:22.000Z</time><extensions/></trkpt><trkpt lat="59.38800542615354" lon="34.664507042616606"><ele>167.41000366210938</ele><time>2026-08-17T16:01:41.000Z</time><extensions/></trkpt><trkpt lat="59.38791347667575" lon="34.66438248753548"><ele>167.41000366210938</ele><time>2026-08-17T16:02:01.000Z</time><extensions/></trkpt><trkpt lat="59.38782865181565" lon="34.66428986750543"><ele>166.92999267578125</ele><time>2026-08-17T16:02:19.000Z</time><extensions/></trkpt><trkpt lat="59.387811636552215" lon="34.664265559986234"><ele>166.92999267578125</ele><time>2026-08-17T16:02:43.000Z</time><extensions/></trkpt><trkpt lat="59.38772915862501" lon="34.66414167545736"><ele>166.92999267578125</ele><time>2026-08-17T16:03:48.000Z</time><extensions/></trkpt><trkpt lat="59.38771264627576" lon="34.66414117254317"><ele>166.92999267578125</ele><time>2026-08-17T16:03:50.000Z</time><extensions/></trkpt><trkpt lat="59.387604435905814" lon="34.664221219718456"><ele>166.92999267578125</ele><time>2026-08-17T16:04:05.000Z</time><extensions/></trkpt><trkpt lat="59.38753327354789" lon="34.66462899930775"><ele>167.41000366210938</ele><time>2026-08-17T16:04:31.000Z</time><extensions/></trkpt><trkpt lat="59.38748549669981" lon="34.66496645472944"><ele>167.41000366210938</ele><time>2026-08-17T16:04:52.000Z</time><extensions/></trkpt><trkpt lat="59.38744585029781" lon="34.66524272225797"><ele>166.92999267578125</ele><time>2026-08-17T16:05:15.000Z</time><extensions/></trkpt><trkpt lat="59.38744928687811" lon="34.665401224046946"><ele>166.4499969482422</ele><time>2026-08-17T16:05:39.000Z</time><extensions/></trkpt><trkpt lat="59.38730662688613" lon="34.66529795899987"><ele>166.4499969482422</ele><time>2026-08-17T16:05:59.000Z</time><extensions/></trkpt><trkpt lat="59.387233536690474" lon="34.665187234058976"><ele>166.4499969482422</ele><time>2026-08-17T16:06:14.000Z</time><extensions/></trkpt><trkpt lat="59.387087943032384" lon="34.66521464288235"><ele>166.92999267578125</ele><time>2026-08-17T16:06:34.000Z</time><extensions/></trkpt><trkpt lat="59.38700756058097" lon="34.665178852155805"><ele>166.92999267578125</ele><time>2026-08-17T16:06:52.000Z</time><extensions/></trkpt><trkpt lat="59.38684847205877" lon="34.66519854962826"><ele>166.92999267578125</ele><time>2026-08-17T16:08:05.000Z</time><extensions/></trkpt><trkpt lat="59.38669282011688" lon="34.66527683660388"><ele>167.41000366210938</ele><time>2026-08-17T16:08:21.000Z</time><extensions/></trkpt><trkpt lat="59.38651252537966" lon="34.665382197126746"><ele>167.41000366210938</ele><time>2026-08-17T16:08:41.000Z</time><extensions/></trkpt><trkpt lat="59.38632787205279" lon="34.6655847877264"><ele>167.41000366210938</ele><time>2026-08-17T16:09:03.000Z</time><extensions/></trkpt><trkpt lat="59.38623072579503" lon="34.665651926770806"><ele>166.92999267578125</ele><time>2026-08-17T16:09:25.000Z</time><extensions/></trkpt><trkpt lat="59.386170292273164" lon="34.66563289985061"><ele>166.4499969482422</ele><time>2026-08-17T16:10:55.000Z</time><extensions/></trkpt><trkpt lat="59.38607348129153" lon="34.6654986217618"><ele>165.9600067138672</ele><time>2026-08-17T16:11:12.000Z</time><extensions/></trkpt><trkpt lat="59.38604003749788" lon="34.665422681719065"><ele>165.9600067138672</ele><time>2026-08-17T16:11:36.000Z</time><extensions/></trkpt><trkpt lat="59.38584465533495" lon="34.66550666838884"><ele>166.4499969482422</ele><time>2026-08-17T16:12:44.000Z</time><extensions/></trkpt><trkpt lat="59.38565572723746" lon="34.665610352531075"><ele>166.4499969482422</ele><time>2026-08-17T16:13:06.000Z</time><extensions/></trkpt><trkpt lat="59.38553502783179" lon="34.66581084765494"><ele>165.9600067138672</ele><time>2026-08-17T16:13:23.000Z</time><extensions/></trkpt><trkpt lat="59.38537945970893" lon="34.66594328172505"><ele>165.9600067138672</ele><time>2026-08-17T16:13:42.000Z</time><extensions/></trkpt><trkpt lat="59.38530578278005" lon="34.66601083986461"><ele>165.47999572753906</ele><time>2026-08-17T16:14:10.000Z</time><extensions/></trkpt><trkpt lat="59.3852892704308" lon="34.6657816786319"><ele>165.47999572753906</ele><time>2026-08-17T16:15:15.000Z</time><extensions/></trkpt><trkpt lat="59.38527887687087" lon="34.66565536335111"><ele>165.47999572753906</ele><time>2026-08-17T16:15:26.000Z</time><extensions/></trkpt><trkpt lat="59.38537602312863" lon="34.66574496589601"><ele>165.9600067138672</ele><time>2026-08-17T16:15:45.000Z</time><extensions/></trkpt><trkpt lat="59.38540393486619" lon="34.665531730279326"><ele>165.9600067138672</ele><time>2026-08-17T16:16:00.000Z</time><extensions/></trkpt><trkpt lat="59.38537501730025" lon="34.66533785685897"><ele>165.0</ele><time>2026-08-17T16:16:14.000Z</time><extensions/></trkpt><trkpt lat="59.3853862490505" lon="34.66505547054112"><ele>165.0</ele><time>2026-08-17T16:16:32.000Z</time><extensions/></trkpt><trkpt lat="59.38543184660375" lon="34.664810383692384"><ele>165.0</ele><time>2026-08-17T16:16:48.000Z</time><extensions/></trkpt><trkpt lat="59.385476019233465" lon="34.66460485942662"><ele>165.47999572753906</ele><time>2026-08-17T16:17:08.000Z</time><extensions/></trkpt><trkpt lat="59.38552119769156" lon="34.664476197212934"><ele>165.0</ele><time>2026-08-17T16:17:22.000Z</time><extensions/></trkpt><trkpt lat="59.38554625958204" lon="34.66421686112881"><ele>165.0</ele><time>2026-08-17T16:17:38.000Z</time><extensions/></trkpt><trkpt lat="59.385563526302576" lon="34.66437838040292"><ele>165.0</ele><time>2026-08-17T16:17:59.000Z</time><extensions/></trkpt><trkpt lat="59.38560174778104" lon="34.66458884999156"><ele>165.0</ele><time>2026-08-17T16:19:18.000Z</time><extensions/></trkpt><trkpt lat="59.38563502393663" lon="34.66469504870474"><ele>165.0</ele><time>2026-08-17T16:19:43.000Z</time><extensions/></trkpt><trkpt lat="59.385678861290216" lon="34.664610056206584"><ele>165.47999572753906</ele><time>2026-08-17T16:20:13.000Z</time><extensions/></trkpt><trkpt lat="59.38582168892026" lon="34.66448332183063"><ele>165.47999572753906</ele><time>2026-08-17T16:21:39.000Z</time><extensions/></trkpt><trkpt lat="59.3858228623867" lon="34.66437737457454"><ele>165.47999572753906</ele><time>2026-08-17T16:21:56.000Z</time><extensions/></trkpt><trkpt lat="59.38588622957468" lon="34.66412306763232"><ele>165.47999572753906</ele><time>2026-08-17T16:22:22.000Z</time><extensions/></trkpt><trkpt lat="59.385996870696545" lon="34.663913436234"><ele>165.47999572753906</ele><time>2026-08-17T16:22:49.000Z</time><extensions/></trkpt><trkpt lat="59.38601455651224" lon="34.66379223391414"><ele>165.9600067138672</ele><time>2026-08-17T16:23:04.000Z</time><extensions/></trkpt><trkpt lat="59.38607079908252" lon="34.663562066853046"><ele>165.9600067138672</ele><time>2026-08-17T16:23:19.000Z</time><extensions/></trkpt><trkpt lat="59.38614967279136" lon="34.66329258866608"><ele>165.9600067138672</ele><time>2026-08-17T16:23:39.000Z</time><extensions/></trkpt><trkpt lat="59.38615897670388" lon="34.662928730249405"><ele>165.9600067138672</ele><time>2026-08-17T16:24:04.000Z</time><extensions/></trkpt><trkpt lat="59.386168867349625" lon="34.66274097561836"><ele>165.9600067138672</ele><time>2026-08-17T16:24:23.000Z</time><extensions/></trkpt><trkpt lat="59.38618085347116" lon="34.66250435449183"><ele>166.4499969482422</ele><time>2026-08-17T16:24:51.000Z</time><extensions/></trkpt><trkpt lat="59.38620046712458" lon="34.66232716105878"><ele>166.92999267578125</ele><time>2026-08-17T16:25:41.000Z</time><extensions/></trkpt><trkpt lat="59.3861442245543" lon="34.66218047775328"><ele>166.92999267578125</ele><time>2026-08-17T16:25:56.000Z</time><extensions/></trkpt><trkpt lat="59.38612796366215" lon="34.66210596263409"><ele>166.4499969482422</ele><time>2026-08-17T16:26:15.000Z</time><extensions/></trkpt><trkpt lat="59.38624774105847" lon="34.66228399425745"><ele>166.92999267578125</ele><time>2026-08-17T16:27:27.000Z</time><extensions/></trkpt><trkpt lat="59.38643985427916" lon="34.66247702948749"><ele>166.92999267578125</ele><time>2026-08-17T16:27:57.000Z</time><extensions/></trkpt><trkpt lat="59.38647019676864" lon="34.66220428235829"><ele>166.92999267578125</ele><time>2026-08-17T16:28:13.000Z</time><extensions/></trkpt><trkpt lat="59.386543622240424" lon="34.66182164847851"><ele>167.41000366210938</ele><time>2026-08-17T16:28:39.000Z</time><extensions/></trkpt><trkpt lat="59.386603720486164" lon="34.662075117230415"><ele>167.41000366210938</ele><time>2026-08-17T16:29:03.000Z</time><extensions/></trkpt><trkpt lat="59.386576395481825" lon="34.66229765675962"><ele>167.41000366210938</ele><time>2026-08-17T16:29:32.000Z</time><extensions/></trkpt><trkpt lat="59.38670178875327" lon="34.662308720871806"><ele>167.41000366210938</ele><time>2026-08-17T16:29:51.000Z</time><extensions/></trkpt><trkpt lat="59.38681662082672" lon="34.66230444610119"><ele>167.41000366210938</ele><time>2026-08-17T16:30:07.000Z</time><extensions/></trkpt><trkpt lat="59.38692986033857" lon="34.662213334813714"><ele>167.41000366210938</ele><time>2026-08-17T16:30:27.000Z</time><extensions/></trkpt><trkpt lat="59.38709313981235" lon="34.662029184401035"><ele>166.92999267578125</ele><time>2026-08-17T16:30:51.000Z</time><extensions/></trkpt><trkpt lat="59.38726899214089" lon="34.66201476752758"><ele>166.4499969482422</ele><time>2026-08-17T16:31:16.000Z</time><extensions/></trkpt><trkpt lat="59.38737326301634" lon="34.66198107227683"><ele>166.4499969482422</ele><time>2026-08-17T16:31:40.000Z</time><extensions/></trkpt><trkpt lat="59.38752648420632" lon="34.66190278530121"><ele>167.41000366210938</ele><time>2026-08-17T16:32:05.000Z</time><extensions/></trkpt><trkpt lat="59.387589851394296" lon="34.66189691796899"><ele>167.41000366210938</ele><time>2026-08-17T16:33:05.000Z</time><extensions/></trkpt><trkpt lat="59.387704683467746" lon="34.66199674643576"><ele>166.92999267578125</ele><time>2026-08-17T16:33:23.000Z</time><extensions/></trkpt><trkpt lat="59.387840051203966" lon="34.66216027736664"><ele>166.92999267578125</ele><time>2026-08-17T16:33:45.000Z</time><extensions/></trkpt><trkpt lat="59.38790073618293" lon="34.66230251826346"><ele>166.92999267578125</ele><time>2026-08-17T16:34:02.000Z</time><extensions/></trkpt><trkpt lat="59.38804842531681" lon="34.66239823959768"><ele>166.92999267578125</ele><time>2026-08-17T16:34:27.000Z</time><extensions/></trkpt><trkpt lat="59.38817457295954" lon="34.66235825791955"><ele>166.92999267578125</ele><time>2026-08-17T16:34:44.000Z</time><extensions/></trkpt><trkpt lat="59.388324776664376" lon="34.662253987044096"><ele>166.92999267578125</ele><time>2026-08-17T16:35:08.000Z</time><extensions/></trkpt><trkpt lat="59.38844991847873" lon="34.66208592988551"><ele>166.92999267578125</ele><time>2026-08-17T16:35:25.000Z</time><extensions/></trkpt><trkpt lat="59.38854639418423" lon="34.661941174417734"><ele>166.92999267578125</ele><time>2026-08-17T16:35:43.000Z</time><extensions/></trkpt><trkpt lat="59.38862937502563" lon="34.66170388273895"><ele>166.92999267578125</ele><time>2026-08-17T16:36:07.000Z</time><extensions/></trkpt><trkpt lat="59.38870598562062" lon="34.66141034848988"><ele>167.41000366210938</ele><time>2026-08-17T16:36:26.000Z</time><extensions/></trkpt><trkpt lat="59.388805981725454" lon="34.661304987967014"><ele>167.41000366210938</ele><time>2026-08-17T16:36:44.000Z</time><extensions/></trkpt><trkpt lat="59.38893539831042" lon="34.661194095388055"><ele>167.41000366210938</ele><time>2026-08-17T16:36:57.000Z</time><extensions/></trkpt><trkpt lat="59.389079147949815" lon="34.66123164631426"><ele>167.41000366210938</ele><time>2026-08-17T16:37:14.000Z</time><extensions/></trkpt><trkpt lat="59.389161290600896" lon="34.6613490767777"><ele>167.41000366210938</ele><time>2026-08-17T16:37:30.000Z</time><extensions/></trkpt><trkpt lat="59.38922901637852" lon="34.66133197769523"><ele>167.41000366210938</ele><time>2026-08-17T16:38:34.000Z</time><extensions/></trkpt><trkpt lat="59.389318535104394" lon="34.66123164631426"><ele>167.41000366210938</ele><time>2026-08-17T16:38:54.000Z</time><extensions/></trkpt><trkpt lat="59.38933194614947" lon="34.661218486726284"><ele>166.92999267578125</ele><time>2026-08-17T16:39:17.000Z</time><extensions/></trkpt><trkpt lat="59.38942104578018" lon="34.66114833019674"><ele>166.92999267578125</ele><time>2026-08-17T16:39:41.000Z</time><extensions/></trkpt><trkpt lat="59.389473516494036" lon="34.66095965355635"><ele>167.41000366210938</ele><time>2026-08-17T16:39:57.000Z</time><extensions/></trkpt><trkpt lat="59.38950897194445" lon="34.660871643573046"><ele>167.88999938964844</ele><time>2026-08-17T16:40:24.000Z</time><extensions/></trkpt><trkpt lat="59.38960075378418" lon="34.66071289032698"><ele>168.3699951171875</ele><time>2026-08-17T16:42:15.000Z</time><extensions/></trkpt><trkpt lat="59.389698738232255" lon="34.66061197221279"><ele>168.85000610351562</ele><time>2026-08-17T16:42:29.000Z</time><extensions/></trkpt><trkpt lat="59.3898362852633" lon="34.66052304022014"><ele>169.3300018310547</ele><time>2026-08-17T16:42:50.000Z</time><extensions/></trkpt><trkpt lat="59.389889845624566" lon="34.660545252263546"><ele>169.3300018310547</ele><time>2026-08-17T16:44:42.000Z</time><extensions/></trkpt><trkpt lat="59.389935191720724" lon="34.66052295640111"><ele>169.3300018310547</ele><time>2026-08-17T16:44:46.000Z</time><extensions/></trkpt><trkpt lat="59.390052035450935" lon="34.660465540364385"><ele>169.3300018310547</ele><time>2026-08-17T16:45:02.000Z</time><extensions/></trkpt><trkpt lat="59.39020927995443" lon="34.66028365306556"><ele>169.3300018310547</ele><time>2026-08-17T16:45:24.000Z</time><extensions/></trkpt><trkpt lat="59.39036015421152" lon="34.66018424369395"><ele>168.85000610351562</ele><time>2026-08-17T16:45:47.000Z</time><extensions/></trkpt><trkpt lat="59.39040315337479" lon="34.66011039912701"><ele>168.85000610351562</ele><time>2026-08-17T16:46:06.000Z</time><extensions/></trkpt><trkpt lat="59.39046216197312" lon="34.65979834087193"><ele>168.3699951171875</ele><time>2026-08-17T16:46:48.000Z</time><extensions/></trkpt><trkpt lat="59.39057942479849" lon="34.65949013829231"><ele>167.88999938964844</ele><time>2026-08-17T16:47:07.000Z</time><extensions/></trkpt><trkpt lat="59.390693083405495" lon="34.65935577638447"><ele>168.3699951171875</ele><time>2026-08-17T16:47:23.000Z</time><extensions/></trkpt><trkpt lat="59.39082434400916" lon="34.659297186881304"><ele>168.3699951171875</ele><time>2026-08-17T16:47:40.000Z</time><extensions/></trkpt><trkpt lat="59.390896428376436" lon="34.65919157490134"><ele>168.3699951171875</ele><time>2026-08-17T16:48:01.000Z</time><extensions/></trkpt><trkpt lat="59.390823589637876" lon="34.65890315361321"><ele>168.3699951171875</ele><time>2026-08-17T16:48:59.000Z</time><extensions/></trkpt><trkpt lat="59.390764916315675" lon="34.65876929461956"><ele>168.3699951171875</ele><time>2026-08-17T16:49:11.000Z</time><extensions/></trkpt><trkpt lat="59.390724431723356" lon="34.65867633931339"><ele>168.3699951171875</ele><time>2026-08-17T16:49:17.000Z</time><extensions/></trkpt><trkpt lat="59.390612952411175" lon="34.65851666405797"><ele>167.88999938964844</ele><time>2026-08-17T16:49:33.000Z</time><extensions/></trkpt><trkpt lat="59.390426790341735" lon="34.65825707651675"><ele>167.41000366210938</ele><time>2026-08-17T16:49:55.000Z</time><extensions/></trkpt><trkpt lat="59.39019829966128" lon="34.65798709541559"><ele>168.3699951171875</ele><time>2026-08-17T16:50:25.000Z</time><extensions/></trkpt><trkpt lat="59.39009855501354" lon="34.65784485451877"><ele>168.3699951171875</ele><time>2026-08-17T16:50:58.000Z</time><extensions/></trkpt><trkpt lat="59.39008288085461" lon="34.657818619161844"><ele>167.88999938964844</ele><time>2026-08-17T16:51:39.000Z</time><extensions/></trkpt><trkpt lat="59.389891270548105" lon="34.6576670743525"><ele>168.3699951171875</ele><time>2026-08-17T16:52:17.000Z</time><extensions/></trkpt><trkpt lat="59.38982647843659" lon="34.657570933923125"><ele>168.3699951171875</ele><time>2026-08-17T16:52:29.000Z</time><extensions/></trkpt><trkpt lat="59.389778869226575" lon="34.657474122941494"><ele>168.3699951171875</ele><time>2026-08-17T16:52:46.000Z</time><extensions/></trkpt><trkpt lat="59.389759758487344" lon="34.657454676926136"><ele>167.88999938964844</ele><time>2026-08-17T16:53:07.000Z</time><extensions/></trkpt><trkpt lat="59.38957644626498" lon="34.6574825886637"><ele>167.88999938964844</ele><time>2026-08-17T16:53:33.000Z</time><extensions/></trkpt><trkpt lat="59.38941895030439" lon="34.65758493170142"><ele>167.88999938964844</ele><time>2026-08-17T16:53:48.000Z</time><extensions/></trkpt><trkpt lat="59.38945792615414" lon="34.6576361451298"><ele>167.88999938964844</ele><time>2026-08-17T16:54:17.000Z</time><extensions/></trkpt><trkpt lat="59.3895167671144" lon="34.65768802911043"><ele>167.41000366210938</ele><time>2026-08-17T16:54:53.000Z</time><extensions/></trkpt><trkpt lat="59.38946236856282" lon="34.657803447917104"><ele>167.88999938964844</ele><time>2026-08-17T17:00:42.000Z</time><extensions/></trkpt><trkpt lat="59.38928358256817" lon="34.657846530899405"><ele>168.3699951171875</ele><time>2026-08-17T17:01:08.000Z</time><extensions/></trkpt><trkpt lat="59.38911326229572" lon="34.65785566717386"><ele>168.3699951171875</ele><time>2026-08-17T17:01:33.000Z</time><extensions/></trkpt><trkpt lat="59.389063054695725" lon="34.65781677514315"><ele>168.3699951171875</ele><time>2026-08-17T17:01:45.000Z</time><extensions/></trkpt><trkpt lat="59.388975044712424" lon="34.657627595588565"><ele>167.88999938964844</ele><time>2026-08-17T17:02:00.000Z</time><extensions/></trkpt><trkpt lat="59.38893975690007" lon="34.65751687064767"><ele>168.3699951171875</ele><time>2026-08-17T17:02:33.000Z</time><extensions/></trkpt><trkpt lat="59.38893238082528" lon="34.65743347071111"><ele>168.85000610351562</ele><time>2026-08-17T17:03:26.000Z</time><extensions/></trkpt><trkpt lat="59.38900496810675" lon="34.657218139618635"><ele>168.3699951171875</ele><time>2026-08-17T17:03:41.000Z</time><extensions/></trkpt><trkpt lat="59.38908828422427" lon="34.656998785212636"><ele>168.3699951171875</ele><time>2026-08-17T17:03:58.000Z</time><extensions/></trkpt><trkpt lat="59.38919532112777" lon="34.6568485815078"><ele>168.3699951171875</ele><time>2026-08-17T17:04:20.000Z</time><extensions/></trkpt><trkpt lat="59.38925785012543" lon="34.65675604529679"><ele>168.3699951171875</ele><time>2026-08-17T17:04:28.000Z</time><extensions/></trkpt><trkpt lat="59.38936421647668" lon="34.656593184918165"><ele>168.3699951171875</ele><time>2026-08-17T17:04:44.000Z</time><extensions/></trkpt><trkpt lat="59.389442251995206" lon="34.65644826181233"><ele>167.88999938964844</ele><time>2026-08-17T17:05:06.000Z</time><extensions/></trkpt><trkpt lat="59.389401096850634" lon="34.65619898401201"><ele>167.41000366210938</ele><time>2026-08-17T17:06:13.000Z</time><extensions/></trkpt><trkpt lat="59.3893217202276" lon="34.656047355383635"><ele>167.41000366210938</ele><time>2026-08-17T17:06:28.000Z</time><extensions/></trkpt><trkpt lat="59.389304453507066" lon="34.656030256301165"><ele>167.41000366210938</ele><time>2026-08-17T17:06:30.000Z</time><extensions/></trkpt><trkpt lat="59.38918459229171" lon="34.65580771677196"><ele>167.88999938964844</ele><time>2026-08-17T17:06:50.000Z</time><extensions/></trkpt><trkpt lat="59.38916648738086" lon="34.655770752578974"><ele>168.3699951171875</ele><time>2026-08-17T17:07:19.000Z</time><extensions/></trkpt><trkpt lat="59.389055175706744" lon="34.65596755966544"><ele>168.3699951171875</ele><time>2026-08-17T17:07:39.000Z</time><extensions/></trkpt><trkpt lat="59.388973116874695" lon="34.655992118641734"><ele>167.88999938964844</ele><time>2026-08-17T17:07:59.000Z</time><extensions/></trkpt><trkpt lat="59.38882576301694" lon="34.65593906119466"><ele>168.3699951171875</ele><time>2026-08-17T17:08:18.000Z</time><extensions/></trkpt><trkpt lat="59.388698022812605" lon="34.6559005882591"><ele>168.3699951171875</ele><time>2026-08-17T17:08:32.000Z</time><extensions/></trkpt><trkpt lat="59.38859567977488" lon="34.655853817239404"><ele>168.3699951171875</ele><time>2026-08-17T17:08:53.000Z</time><extensions/></trkpt><trkpt lat="59.38852426595986" lon="34.65585214085877"><ele>168.3699951171875</ele><time>2026-08-17T17:09:05.000Z</time><extensions/></trkpt><trkpt lat="59.38836609944701" lon="34.655748372897506"><ele>168.85000610351562</ele><time>2026-08-17T17:09:24.000Z</time><extensions/></trkpt><trkpt lat="59.388299295678735" lon="34.655739068984985"><ele>168.3699951171875</ele><time>2026-08-17T17:09:51.000Z</time><extensions/></trkpt><trkpt lat="59.388241628184915" lon="34.65587938204408"><ele>168.85000610351562</ele><time>2026-08-17T17:10:15.000Z</time><extensions/></trkpt><trkpt lat="59.388169376179576" lon="34.65600368566811"><ele>168.85000610351562</ele><time>2026-08-17T17:10:30.000Z</time><extensions/></trkpt><trkpt lat="59.388137524947524" lon="34.65607987716794"><ele>168.3699951171875</ele><time>2026-08-17T17:10:51.000Z</time><extensions/></trkpt><trkpt lat="59.38801514916122" lon="34.656147016212344"><ele>168.85000610351562</ele><time>2026-08-17T17:11:07.000Z</time><extensions/></trkpt><trkpt lat="59.38795102760196" lon="34.656251622363925"><ele>168.85000610351562</ele><time>2026-08-17T17:13:12.000Z</time><extensions/></trkpt><trkpt lat="59.38781524077058" lon="34.65631146915257"><ele>168.85000610351562</ele><time>2026-08-17T17:13:26.000Z</time><extensions/></trkpt><trkpt lat="59.38774039037526" lon="34.65627743862569"><ele>168.85000610351562</ele><time>2026-08-17T17:13:39.000Z</time><extensions/></trkpt><trkpt lat="59.387682722881436" lon="34.65612907893956"><ele>168.3699951171875</ele><time>2026-08-17T17:13:51.000Z</time><extensions/></trkpt><trkpt lat="59.38760217279196" lon="34.656170485541224"><ele>168.3699951171875</ele><time>2026-08-17T17:14:04.000Z</time><extensions/></trkpt><trkpt lat="59.38754458911717" lon="34.65622153133154"><ele>168.3699951171875</ele><time>2026-08-17T17:14:24.000Z</time><extensions/></trkpt><trkpt lat="59.38751642592251" lon="34.656290682032704"><ele>168.3699951171875</ele><time>2026-08-17T17:15:03.000Z</time><extensions/></trkpt><trkpt lat="59.38749136403203" lon="34.65632672421634"><ele>168.3699951171875</ele><time>2026-08-17T17:15:06.000Z</time><extensions/></trkpt><trkpt lat="59.3873739335686" lon="34.656342566013336"><ele>167.88999938964844</ele><time>2026-08-17T17:15:20.000Z</time><extensions/></trkpt><trkpt lat="59.38729682005942" lon="34.6563133969903"><ele>167.88999938964844</ele><time>2026-08-17T17:15:32.000Z</time><extensions/></trkpt><trkpt lat="59.38724267296493" lon="34.6562026720494"><ele>167.41000366210938</ele><time>2026-08-17T17:15:48.000Z</time><extensions/></trkpt><trkpt lat="59.38716069795191" lon="34.656159253790975"><ele>166.92999267578125</ele><time>2026-08-17T17:16:01.000Z</time><extensions/></trkpt><trkpt lat="59.38708978705108" lon="34.656307362020016"><ele>166.92999267578125</ele><time>2026-08-17T17:16:20.000Z</time><extensions/></trkpt><trkpt lat="59.387073861435056" lon="34.65634407475591"><ele>166.92999267578125</ele><time>2026-08-17T17:16:22.000Z</time><extensions/></trkpt><trkpt lat="59.387056678533554" lon="34.65639688074589"><ele>166.92999267578125</ele><time>2026-08-17T17:16:25.000Z</time><extensions/></trkpt><trkpt lat="59.38705223612487" lon="34.65643895789981"><ele>166.92999267578125</ele><time>2026-08-17T17:16:27.000Z</time><extensions/></trkpt><trkpt lat="59.38697922974825" lon="34.65647801756859"><ele>166.92999267578125</ele><time>2026-08-17T17:16:35.000Z</time><extensions/></trkpt><trkpt lat="59.38694888725877" lon="34.65649017132819"><ele>166.92999267578125</ele><time>2026-08-17T17:16:38.000Z</time><extensions/></trkpt><trkpt lat="59.386825589463115" lon="34.65650215744972"><ele>166.92999267578125</ele><time>2026-08-17T17:16:52.000Z</time><extensions/></trkpt><trkpt lat="59.386815782636404" lon="34.656505174934864"><ele>167.41000366210938</ele><time>2026-08-17T17:16:53.000Z</time><extensions/></trkpt><trkpt lat="59.38679264858365" lon="34.65652319602668"><ele>167.41000366210938</ele><time>2026-08-17T17:16:56.000Z</time><extensions/></trkpt><trkpt lat="59.386753253638744" lon="34.65656988322735"><ele>167.41000366210938</ele><time>2026-08-17T17:17:01.000Z</time><extensions/></trkpt><trkpt lat="59.386669769883156" lon="34.65660475194454"><ele>167.41000366210938</ele><time>2026-08-17T17:17:13.000Z</time><extensions/></trkpt><trkpt lat="59.38663867302239" lon="34.656608356162906"><ele>167.41000366210938</ele><time>2026-08-17T17:17:33.000Z</time><extensions/></trkpt><trkpt lat="59.38655477017164" lon="34.65663853101432"><ele>167.41000366210938</ele><time>2026-08-17T17:18:00.000Z</time><extensions/></trkpt><trkpt lat="59.38648084178567" lon="34.65659159235656"><ele>167.41000366210938</ele><time>2026-08-17T17:18:15.000Z</time><extensions/></trkpt><trkpt lat="59.38649224117398" lon="34.65651263482869"><ele>166.92999267578125</ele><time>2026-08-17T17:18:30.000Z</time><extensions/></trkpt><trkpt lat="59.38637766055763" lon="34.65641557238996"><ele>167.41000366210938</ele><time>2026-08-17T17:19:05.000Z</time><extensions/></trkpt><trkpt lat="59.38621077686548" lon="34.65633577667177"><ele>167.41000366210938</ele><time>2026-08-17T17:19:43.000Z</time><extensions/></trkpt><trkpt lat="59.386115139350295" lon="34.65634239837527"><ele>167.41000366210938</ele><time>2026-08-17T17:19:59.000Z</time><extensions/></trkpt><trkpt lat="59.38607825897634" lon="34.65653266757727"><ele>166.92999267578125</ele><time>2026-08-17T17:20:15.000Z</time><extensions/></trkpt><trkpt lat="59.38607876189053" lon="34.656705083325505"><ele>166.92999267578125</ele><time>2026-08-17T17:20:31.000Z</time><extensions/></trkpt><trkpt lat="59.38603165559471" lon="34.65673131868243"><ele>167.41000366210938</ele><time>2026-08-17T17:20:52.000Z</time><extensions/></trkpt><trkpt lat="59.385980274528265" lon="34.65675889514387"><ele>167.41000366210938</ele><time>2026-08-17T17:21:06.000Z</time><extensions/></trkpt><trkpt lat="59.385972479358315" lon="34.65676593594253"><ele>167.41000366210938</ele><time>2026-08-17T17:21:09.000Z</time><extensions/></trkpt><trkpt lat="59.38590902835131" lon="34.65688378550112"><ele>167.41000366210938</ele><time>2026-08-17T17:21:21.000Z</time><extensions/></trkpt><trkpt lat="59.3858577311039" lon="34.65681027621031"><ele>167.41000366210938</ele><time>2026-08-17T17:21:36.000Z</time><extensions/></trkpt><trkpt lat="59.385783383622766" lon="34.65671296231449"><ele>167.41000366210938</ele><time>2026-08-17T17:21:48.000Z</time><extensions/></trkpt><trkpt lat="59.38569461926818" lon="34.656746573746204"><ele>167.41000366210938</ele><time>2026-08-17T17:22:06.000Z</time><extensions/></trkpt><trkpt lat="59.38564273528755" lon="34.656806169077754"><ele>167.41000366210938</ele><time>2026-08-17T17:22:55.000Z</time><extensions/></trkpt><trkpt lat="59.38561314716935" lon="34.65671254321933"><ele>167.41000366210938</ele><time>2026-08-17T17:23:10.000Z</time><extensions/></trkpt><trkpt lat="59.385616248473525" lon="34.6567293908447"><ele>167.41000366210938</ele><time>2026-08-17T17:23:30.000Z</time><extensions/></trkpt><trkpt lat="59.38568816520274" lon="34.65670106001198"><ele>167.41000366210938</ele><time>2026-08-17T17:24:36.000Z</time><extensions/></trkpt><trkpt lat="59.38575052656233" lon="34.65656862594187"><ele>167.41000366210938</ele><time>2026-08-17T17:24:50.000Z</time><extensions/></trkpt><trkpt lat="59.3857348524034" lon="34.65633527375758"><ele>167.41000366210938</ele><time>2026-08-17T17:25:07.000Z</time><extensions/></trkpt><trkpt lat="59.385721776634455" lon="34.656157828867435"><ele>167.41000366210938</ele><time>2026-08-17T17:25:21.000Z</time><extensions/></trkpt><trkpt lat="59.3858558870852" lon="34.65607593767345"><ele>167.41000366210938</ele><time>2026-08-17T17:26:14.000Z</time><extensions/></trkpt><trkpt lat="59.38586971722543" lon="34.65600125491619"><ele>167.41000366210938</ele><time>2026-08-17T17:26:37.000Z</time><extensions/></trkpt><trkpt lat="59.38582596369088" lon="34.655727837234735"><ele>167.88999938964844</ele><time>2026-08-17T17:27:04.000Z</time><extensions/></trkpt><trkpt lat="59.38581699505448" lon="34.65555525384843"><ele>168.3699951171875</ele><time>2026-08-17T17:27:29.000Z</time><extensions/></trkpt><trkpt lat="59.3857900891453" lon="34.65534587390721"><ele>168.3699951171875</ele><time>2026-08-17T17:27:53.000Z</time><extensions/></trkpt><trkpt lat="59.38576905056834" lon="34.65559917502105"><ele>168.3699951171875</ele><time>2026-08-17T17:30:25.000Z</time><extensions/></trkpt><trkpt lat="59.385856641456485" lon="34.65578231960535"><ele>167.88999938964844</ele><time>2026-08-17T17:30:59.000Z</time><extensions/></trkpt><trkpt lat="59.38594322651625" lon="34.65574384666979"><ele>167.88999938964844</ele><time>2026-08-17T17:31:25.000Z</time><extensions/></trkpt><trkpt lat="59.38601774163544" lon="34.65569514781237"><ele>168.3699951171875</ele><time>2026-08-17T17:31:47.000Z</time><extensions/></trkpt><trkpt lat="59.38618529587984" lon="34.65552289970219"><ele>168.3699951171875</ele><time>2026-08-17T17:32:12.000Z</time><extensions/></trkpt><trkpt lat="59.38625905662775" lon="34.65535408817232"><ele>167.88999938964844</ele><time>2026-08-17T17:32:36.000Z</time><extensions/></trkpt><trkpt lat="59.38632594421506" lon="34.6551460493356"><ele>167.88999938964844</ele><time>2026-08-17T17:32:49.000Z</time><extensions/></trkpt><trkpt lat="59.38633432611823" lon="34.65498989447951"><ele>167.88999938964844</ele><time>2026-08-17T17:33:04.000Z</time><extensions/></trkpt><trkpt lat="59.38634254038334" lon="34.65498159639537"><ele>167.88999938964844</ele><time>2026-08-17T17:33:05.000Z</time><extensions/></trkpt><trkpt lat="59.38641018234193" lon="34.654971957206726"><ele>167.88999938964844</ele><time>2026-08-17T17:33:20.000Z</time><extensions/></trkpt><trkpt lat="59.386503556743264" lon="34.655053932219744"><ele>167.88999938964844</ele><time>2026-08-17T17:34:08.000Z</time><extensions/></trkpt><trkpt lat="59.38655946403742" lon="34.65516616590321"><ele>167.88999938964844</ele><time>2026-08-17T17:34:23.000Z</time><extensions/></trkpt><trkpt lat="59.38655812293291" lon="34.654970867559314"><ele>167.41000366210938</ele><time>2026-08-17T17:34:41.000Z</time><extensions/></trkpt><trkpt lat="59.386571533977985" lon="34.654936250299215"><ele>167.88999938964844</ele><time>2026-08-17T17:34:57.000Z</time><extensions/></trkpt><trkpt lat="59.38660648651421" lon="34.65480985119939"><ele>167.41000366210938</ele><time>2026-08-17T17:35:06.000Z</time><extensions/></trkpt><trkpt lat="59.386611096560955" lon="34.65474137105048"><ele>167.41000366210938</ele><time>2026-08-17T17:35:09.000Z</time><extensions/></trkpt><trkpt lat="59.386619394645095" lon="34.654685044661164"><ele>167.41000366210938</ele><time>2026-08-17T17:35:12.000Z</time><extensions/></trkpt><trkpt lat="59.386633057147264" lon="34.65461731888354"><ele>169.3300018310547</ele><time>2026-08-17T17:35:24.000Z</time><extensions/></trkpt><trkpt lat="59.386695669963956" lon="34.654688984155655"><ele>169.3300018310547</ele><time>2026-08-17T17:35:48.000Z</time><extensions/></trkpt><trkpt lat="59.38678183592856" lon="34.654805241152644"><ele>168.85000610351562</ele><time>2026-08-17T17:36:01.000Z</time><extensions/></trkpt><trkpt lat="59.38681033439934" lon="34.65481831692159"><ele>168.85000610351562</ele><time>2026-08-17T17:36:04.000Z</time><extensions/></trkpt><trkpt lat="59.38685216009617" lon="34.65486399829388"><ele>168.85000610351562</ele><time>2026-08-17T17:36:09.000Z</time><extensions/></trkpt><trkpt lat="59.386927681043744" lon="34.654895178973675"><ele>168.3699951171875</ele><time>2026-08-17T17:36:23.000Z</time><extensions/></trkpt><trkpt lat="59.38698233105242" lon="34.65495016425848"><ele>168.3699951171875</ele><time>2026-08-17T17:36:33.000Z</time><extensions/></trkpt><trkpt lat="59.387082578614354" lon="34.655046723783016"><ele>168.3699951171875</ele><time>2026-08-17T17:36:49.000Z</time><extensions/></trkpt><trkpt lat="59.38713848590851" lon="34.65512417256832"><ele>168.3699951171875</ele><time>2026-08-17T17:37:03.000Z</time><extensions/></trkpt><trkpt lat="59.38714502379298" lon="34.65513356029987"><ele>168.3699951171875</ele><time>2026-08-17T17:37:04.000Z</time><extensions/></trkpt><trkpt lat="59.38717972487211" lon="34.655134649947286"><ele>168.3699951171875</ele><time>2026-08-17T17:37:18.000Z</time><extensions/></trkpt><trkpt lat="59.387218952178955" lon="34.65508008375764"><ele>168.3699951171875</ele><time>2026-08-17T17:37:24.000Z</time><extensions/></trkpt><trkpt lat="59.38728508539498" lon="34.65500062331557"><ele>168.3699951171875</ele><time>2026-08-17T17:37:36.000Z</time><extensions/></trkpt><trkpt lat="59.38737845979631" lon="34.65491747483611"><ele>168.3699951171875</ele><time>2026-08-17T17:37:52.000Z</time><extensions/></trkpt><trkpt lat="59.38747233711183" lon="34.65483449399471"><ele>168.3699951171875</ele><time>2026-08-17T17:38:05.000Z</time><extensions/></trkpt><trkpt lat="59.38748608343303" lon="34.654819490388036"><ele>168.3699951171875</ele><time>2026-08-17T17:38:07.000Z</time><extensions/></trkpt><trkpt lat="59.387571243569255" lon="34.65466048568487"><ele>168.3699951171875</ele><time>2026-08-17T17:38:22.000Z</time><extensions/></trkpt><trkpt lat="59.38764567486942" lon="34.654536098241806"><ele>168.85000610351562</ele><time>2026-08-17T17:38:37.000Z</time><extensions/></trkpt><trkpt lat="59.3877103831619" lon="34.654523860663176"><ele>168.85000610351562</ele><time>2026-08-17T17:38:51.000Z</time><extensions/></trkpt><trkpt lat="59.38779537566006" lon="34.65447532944381"><ele>168.85000610351562</ele><time>2026-08-17T17:39:05.000Z</time><extensions/></trkpt><trkpt lat="59.38786427490413" lon="34.65446803718805"><ele>168.85000610351562</ele><time>2026-08-17T17:39:18.000Z</time><extensions/></trkpt><trkpt lat="59.387928983196616" lon="34.654455883428454"><ele>168.85000610351562</ele><time>2026-08-17T17:39:32.000Z</time><extensions/></trkpt><trkpt lat="59.38803375698626" lon="34.65449779294431"><ele>169.3300018310547</ele><time>2026-08-17T17:39:52.000Z</time><extensions/></trkpt><trkpt lat="59.388157138600945" lon="34.65452612377703"><ele>168.3699951171875</ele><time>2026-08-17T17:40:09.000Z</time><extensions/></trkpt><trkpt lat="59.38820566982031" lon="34.654523357748985"><ele>168.3699951171875</ele><time>2026-08-17T17:40:15.000Z</time><extensions/></trkpt><trkpt lat="59.388277838006616" lon="34.654549760743976"><ele>168.3699951171875</ele><time>2026-08-17T17:40:30.000Z</time><extensions/></trkpt><trkpt lat="59.3883893173188" lon="34.654549257829785"><ele>168.3699951171875</ele><time>2026-08-17T17:41:06.000Z</time><extensions/></trkpt><trkpt lat="59.3884342443198" lon="34.654530147090554"><ele>168.85000610351562</ele><time>2026-08-17T17:41:21.000Z</time><extensions/></trkpt><trkpt lat="59.38852317631245" lon="34.65450298972428"><ele>168.85000610351562</ele><time>2026-08-17T17:41:34.000Z</time><extensions/></trkpt><trkpt lat="59.388585118576884" lon="34.65442151762545"><ele>168.85000610351562</ele><time>2026-08-17T17:41:43.000Z</time><extensions/></trkpt><trkpt lat="59.38866499811411" lon="34.65419512242079"><ele>168.85000610351562</ele><time>2026-08-17T17:41:57.000Z</time><extensions/></trkpt><trkpt lat="59.38873842358589" lon="34.65399295091629"><ele>168.85000610351562</ele><time>2026-08-17T17:42:11.000Z</time><extensions/></trkpt><trkpt lat="59.3888002820313" lon="34.653810979798436"><ele>168.85000610351562</ele><time>2026-08-17T17:42:25.000Z</time><extensions/></trkpt><trkpt lat="59.38884696923196" lon="34.6536972373724"><ele>168.85000610351562</ele><time>2026-08-17T17:42:35.000Z</time><extensions/></trkpt><trkpt lat="59.388855351135135" lon="34.653632026165724"><ele>168.85000610351562</ele><time>2026-08-17T17:42:38.000Z</time><extensions/></trkpt><trkpt lat="59.388908157125115" lon="34.6534813195467"><ele>168.3699951171875</ele><time>2026-08-17T17:42:48.000Z</time><extensions/></trkpt><trkpt lat="59.38896716572344" lon="34.65331762097776"><ele>168.3699951171875</ele><time>2026-08-17T17:43:02.000Z</time><extensions/></trkpt><trkpt lat="59.3890228215605" lon="34.65325718745589"><ele>168.85000610351562</ele><time>2026-08-17T17:43:17.000Z</time><extensions/></trkpt><trkpt lat="59.38911711797118" lon="34.65305828489363"><ele>168.3699951171875</ele><time>2026-08-17T17:43:33.000Z</time><extensions/></trkpt><trkpt lat="59.389149975031614" lon="34.65301863849163"><ele>168.3699951171875</ele><time>2026-08-17T17:43:37.000Z</time><extensions/></trkpt><trkpt lat="59.3892231490463" lon="34.65291067957878"><ele>168.3699951171875</ele><time>2026-08-17T17:43:51.000Z</time><extensions/></trkpt><trkpt lat="59.38928768970072" lon="34.65271454304457"><ele>168.3699951171875</ele><time>2026-08-17T17:44:06.000Z</time><extensions/></trkpt><trkpt lat="59.38929095864296" lon="34.652523351833224"><ele>168.85000610351562</ele><time>2026-08-17T17:44:20.000Z</time><extensions/></trkpt><trkpt lat="59.389303447678685" lon="34.65242067351937"><ele>169.80999755859375</ele><time>2026-08-17T17:44:39.000Z</time><extensions/></trkpt><trkpt lat="59.38930914737284" lon="34.65236962772906"><ele>169.80999755859375</ele><time>2026-08-17T17:44:59.000Z</time><extensions/></trkpt><trkpt lat="59.38938098028302" lon="34.652314223349094"><ele>169.80999755859375</ele><time>2026-08-17T17:46:01.000Z</time><extensions/></trkpt><trkpt lat="59.389422722160816" lon="34.65229796245694"><ele>169.80999755859375</ele><time>2026-08-17T17:46:06.000Z</time><extensions/></trkpt><trkpt lat="59.38953286036849" lon="34.65231405571103"><ele>169.3300018310547</ele><time>2026-08-17T17:46:20.000Z</time><extensions/></trkpt><trkpt lat="59.3895497918129" lon="34.652332328259945"><ele>169.3300018310547</ele><time>2026-08-17T17:46:34.000Z</time><extensions/></trkpt><trkpt lat="59.389475863426924" lon="34.65234364382923"><ele>169.3300018310547</ele><time>2026-08-17T17:46:52.000Z</time><extensions/></trkpt><trkpt lat="59.38960528001189" lon="34.65232092887163"><ele>169.80999755859375</ele><time>2026-08-17T17:47:13.000Z</time><extensions/></trkpt><trkpt lat="59.38968197442591" lon="34.652322521433234"><ele>169.80999755859375</ele><time>2026-08-17T17:47:26.000Z</time><extensions/></trkpt><trkpt lat="59.389706617221236" lon="34.65229595080018"><ele>169.80999755859375</ele><time>2026-08-17T17:47:38.000Z</time><extensions/></trkpt><trkpt lat="59.38972111791372" lon="34.65229502879083"><ele>170.2899932861328</ele><time>2026-08-17T17:48:01.000Z</time><extensions/></trkpt><trkpt lat="59.38979999162257" lon="34.652299555018544"><ele>170.77000427246094</ele><time>2026-08-17T17:48:17.000Z</time><extensions/></trkpt><trkpt lat="59.38991406932473" lon="34.65228765271604"><ele>170.77000427246094</ele><time>2026-08-17T17:48:32.000Z</time><extensions/></trkpt><trkpt lat="59.38994508236647" lon="34.652277175337076"><ele>170.77000427246094</ele><time>2026-08-17T17:48:35.000Z</time><extensions/></trkpt><trkpt lat="59.39005178399384" lon="34.65226108208299"><ele>170.77000427246094</ele><time>2026-08-17T17:48:49.000Z</time><extensions/></trkpt><trkpt lat="59.39016669988632" lon="34.652213556692004"><ele>170.77000427246094</ele><time>2026-08-17T17:49:13.000Z</time><extensions/></trkpt><trkpt lat="59.39024674706161" lon="34.65219561941922"><ele>170.77000427246094</ele><time>2026-08-17T17:49:33.000Z</time><extensions/></trkpt><trkpt lat="59.39037482254207" lon="34.65217776596546"><ele>170.77000427246094</ele><time>2026-08-17T17:49:48.000Z</time><extensions/></trkpt><trkpt lat="59.39045646227896" lon="34.65210936963558"><ele>170.77000427246094</ele><time>2026-08-17T17:50:01.000Z</time><extensions/></trkpt><trkpt lat="59.3905390240252" lon="34.65208766050637"><ele>171.25</ele><time>2026-08-17T17:50:14.000Z</time><extensions/></trkpt><trkpt lat="59.390615383163095" lon="34.65209696441889"><ele>171.72999572753906</ele><time>2026-08-17T17:50:27.000Z</time><extensions/></trkpt><trkpt lat="59.39070993103087" lon="34.6520877443254"><ele>171.25</ele><time>2026-08-17T17:50:45.000Z</time><extensions/></trkpt><trkpt lat="59.39072887413204" lon="34.65205539017916"><ele>171.72999572753906</ele><time>2026-08-17T17:51:00.000Z</time><extensions/></trkpt><trkpt lat="59.39073834568262" lon="34.652000991627574"><ele>171.72999572753906</ele><time>2026-08-17T17:51:04.000Z</time><extensions/></trkpt><trkpt lat="59.39081369899213" lon="34.65196117758751"><ele>172.2100067138672</ele><time>2026-08-17T17:51:17.000Z</time><extensions/></trkpt><trkpt lat="59.39089852385223" lon="34.65196478180587"><ele>172.2100067138672</ele><time>2026-08-17T17:51:26.000Z</time><extensions/></trkpt><trkpt lat="59.39092786051333" lon="34.651972660794854"><ele>171.72999572753906</ele><time>2026-08-17T17:51:44.000Z</time><extensions/></trkpt><trkpt lat="59.39092895016074" lon="34.65195204131305"><ele>171.72999572753906</ele><time>2026-08-17T17:52:53.000Z</time><extensions/></trkpt><trkpt lat="59.39093716442585" lon="34.65176487341523"><ele>172.2100067138672</ele><time>2026-08-17T17:53:07.000Z</time><extensions/></trkpt><trkpt lat="59.39094646833837" lon="34.65167376212776"><ele>172.2100067138672</ele><time>2026-08-17T17:53:15.000Z</time><extensions/></trkpt><trkpt lat="59.39095485024154" lon="34.65158583596349"><ele>172.2100067138672</ele><time>2026-08-17T17:53:30.000Z</time><extensions/></trkpt><trkpt lat="59.39101813361049" lon="34.65145113877952"><ele>172.2100067138672</ele><time>2026-08-17T17:53:46.000Z</time><extensions/></trkpt><trkpt lat="59.39101939089596" lon="34.651327170431614"><ele>172.69000244140625</ele><time>2026-08-17T17:53:59.000Z</time><extensions/></trkpt><trkpt lat="59.391027269884944" lon="34.65121418237686"><ele>172.69000244140625</ele><time>2026-08-17T17:54:12.000Z</time><extensions/></trkpt><trkpt lat="59.39110027626157" lon="34.65109046548605"><ele>172.69000244140625</ele><time>2026-08-17T17:54:25.000Z</time><extensions/></trkpt><trkpt lat="59.39113564789295" lon="34.651022320613265"><ele>172.69000244140625</ele><time>2026-08-17T17:54:41.000Z</time><extensions/></trkpt><trkpt lat="59.39112936146557" lon="34.6508876234293"><ele>172.69000244140625</ele><time>2026-08-17T17:55:01.000Z</time><extensions/></trkpt><trkpt lat="59.39112416468561" lon="34.65074487961829"><ele>173.1699981689453</ele><time>2026-08-17T17:55:14.000Z</time><extensions/></trkpt><trkpt lat="59.391111843287945" lon="34.65061395429075"><ele>173.1699981689453</ele><time>2026-08-17T17:55:29.000Z</time><extensions/></trkpt><trkpt lat="59.39109591767192" lon="34.65054228901863"><ele>173.1699981689453</ele><time>2026-08-17T17:55:37.000Z</time><extensions/></trkpt><trkpt lat="59.39109709113836" lon="34.65043818578124"><ele>173.1699981689453</ele><time>2026-08-17T17:55:49.000Z</time><extensions/></trkpt><trkpt lat="59.391050236299634" lon="34.65036744251847"><ele>173.1699981689453</ele><time>2026-08-17T17:56:03.000Z</time><extensions/></trkpt><trkpt lat="59.39104118384421" lon="34.650344057008624"><ele>173.1699981689453</ele><time>2026-08-17T17:56:09.000Z</time><extensions/></trkpt><trkpt lat="59.39104177057743" lon="34.65028169564903"><ele>173.1699981689453</ele><time>2026-08-17T17:56:13.000Z</time><extensions/></trkpt><trkpt lat="59.39103925600648" lon="34.65017398819327"><ele>173.1699981689453</ele><time>2026-08-17T17:56:20.000Z</time><extensions/></trkpt><trkpt lat="59.391060043126345" lon="34.65010634623468"><ele>172.69000244140625</ele><time>2026-08-17T17:56:33.000Z</time><extensions/></trkpt><trkpt lat="59.391012685373425" lon="34.6499930229038"><ele>172.69000244140625</ele><time>2026-08-17T17:56:45.000Z</time><extensions/></trkpt><trkpt lat="59.39096515998244" lon="34.649759670719504"><ele>172.2100067138672</ele><time>2026-08-17T17:57:23.000Z</time><extensions/></trkpt><trkpt lat="59.390933476388454" lon="34.64955624192953"><ele>172.2100067138672</ele><time>2026-08-17T17:58:11.000Z</time><extensions/></trkpt><trkpt lat="59.390874132514" lon="34.6492934692651"><ele>172.69000244140625</ele><time>2026-08-17T17:58:36.000Z</time><extensions/></trkpt><trkpt lat="59.39084496349096" lon="34.64916539378464"><ele>172.69000244140625</ele><time>2026-08-17T17:59:06.000Z</time><extensions/></trkpt><trkpt lat="59.39072275534272" lon="34.64906757697463"><ele>172.2100067138672</ele><time>2026-08-17T18:03:17.000Z</time><extensions/></trkpt><trkpt lat="59.390639858320355" lon="34.64907553978264"><ele>172.69000244140625</ele><time>2026-08-17T18:03:35.000Z</time><extensions/></trkpt><trkpt lat="59.39050658605993" lon="34.649202693253756"><ele>172.69000244140625</ele><time>2026-08-17T18:03:56.000Z</time><extensions/></trkpt><trkpt lat="59.39045738428831" lon="34.64920336380601"><ele>173.1699981689453</ele><time>2026-08-17T18:04:28.000Z</time><extensions/></trkpt><trkpt lat="59.39025127328932" lon="34.64922842569649"><ele>172.69000244140625</ele><time>2026-08-17T18:05:30.000Z</time><extensions/></trkpt><trkpt lat="59.39012797549367" lon="34.64929975569248"><ele>172.69000244140625</ele><time>2026-08-17T18:05:45.000Z</time><extensions/></trkpt><trkpt lat="59.39005471765995" lon="34.6493264939636"><ele>172.2100067138672</ele><time>2026-08-17T18:05:54.000Z</time><extensions/></trkpt><trkpt lat="59.38996804878116" lon="34.64949698187411"><ele>171.72999572753906</ele><time>2026-08-17T18:06:08.000Z</time><extensions/></trkpt><trkpt lat="59.38992865383625" lon="34.64959488250315"><ele>171.72999572753906</ele><time>2026-08-17T18:06:27.000Z</time><extensions/></trkpt><trkpt lat="59.38983192667365" lon="34.6497599221766"><ele>171.72999572753906</ele><time>2026-08-17T18:06:42.000Z</time><extensions/></trkpt><trkpt lat="59.3897551484406" lon="34.64983804151416"><ele>171.72999572753906</ele><time>2026-08-17T18:06:55.000Z</time><extensions/></trkpt><trkpt lat="59.389742240309715" lon="34.64984315447509"><ele>171.72999572753906</ele><time>2026-08-17T18:06:57.000Z</time><extensions/></trkpt><trkpt lat="59.38965976238251" lon="34.64986779727042"><ele>171.72999572753906</ele><time>2026-08-17T18:07:15.000Z</time><extensions/></trkpt><trkpt lat="59.38959748484194" lon="34.64985329657793"><ele>171.25</ele><time>2026-08-17T18:07:30.000Z</time><extensions/></trkpt><trkpt lat="59.38954601995647" lon="34.64962279424071"><ele>170.77000427246094</ele><time>2026-08-17T18:07:47.000Z</time><extensions/></trkpt><trkpt lat="59.389478377997875" lon="34.64959127828479"><ele>170.77000427246094</ele><time>2026-08-17T18:08:06.000Z</time><extensions/></trkpt><trkpt lat="59.38938642852008" lon="34.649469992145896"><ele>169.80999755859375</ele><time>2026-08-17T18:08:22.000Z</time><extensions/></trkpt><trkpt lat="59.38931895419955" lon="34.64942472986877"><ele>169.80999755859375</ele><time>2026-08-17T18:08:42.000Z</time><extensions/></trkpt><trkpt lat="59.38916397280991" lon="34.649465549737215"><ele>169.3300018310547</ele><time>2026-08-17T18:09:07.000Z</time><extensions/></trkpt><trkpt lat="59.38913765363395" lon="34.64930453337729"><ele>169.80999755859375</ele><time>2026-08-17T18:09:33.000Z</time><extensions/></trkpt><trkpt lat="59.389053247869015" lon="34.64928735047579"><ele>169.80999755859375</ele><time>2026-08-17T18:10:19.000Z</time><extensions/></trkpt><trkpt lat="59.38900572247803" lon="34.64922683313489"><ele>169.80999755859375</ele><time>2026-08-17T18:10:45.000Z</time><extensions/></trkpt><trkpt lat="59.388959454372525" lon="34.649105882272124"><ele>169.80999755859375</ele><time>2026-08-17T18:11:00.000Z</time><extensions/></trkpt><trkpt lat="59.388959957286716" lon="34.64901074767113"><ele>169.80999755859375</ele><time>2026-08-17T18:11:24.000Z</time><extensions/></trkpt><trkpt lat="59.388974122703075" lon="34.64888367801905"><ele>169.80999755859375</ele><time>2026-08-17T18:12:04.000Z</time><extensions/></trkpt><trkpt lat="59.38875895924866" lon="34.64872148819268"><ele>169.80999755859375</ele><time>2026-08-17T18:12:55.000Z</time><extensions/></trkpt><trkpt lat="59.38865854404867" lon="34.648724757134914"><ele>170.2899932861328</ele><time>2026-08-17T18:13:26.000Z</time><extensions/></trkpt><trkpt lat="59.38854874111712" lon="34.6486287843436"><ele>170.2899932861328</ele><time>2026-08-17T18:13:49.000Z</time><extensions/></trkpt><trkpt lat="59.3885375931859" lon="34.64860397391021"><ele>170.77000427246094</ele><time>2026-08-17T18:14:18.000Z</time><extensions/></trkpt><trkpt lat="59.38845016993582" lon="34.648249335587025"><ele>171.25</ele><time>2026-08-17T18:15:13.000Z</time><extensions/></trkpt><trkpt lat="59.38841228373349" lon="34.64818353764713"><ele>171.25</ele><time>2026-08-17T18:15:36.000Z</time><extensions/></trkpt><trkpt lat="59.38831362873316" lon="34.64810483157635"><ele>171.25</ele><time>2026-08-17T18:16:56.000Z</time><extensions/></trkpt><trkpt lat="59.38822436146438" lon="34.64817926287651"><ele>171.25</ele><time>2026-08-17T18:17:17.000Z</time><extensions/></trkpt><trkpt lat="59.38808748498559" lon="34.648421332240105"><ele>170.77000427246094</ele><time>2026-08-17T18:18:56.000Z</time><extensions/></trkpt><trkpt lat="59.38797323964536" lon="34.64862341992557"><ele>170.2899932861328</ele><time>2026-08-17T18:19:16.000Z</time><extensions/></trkpt><trkpt lat="59.38777324743569" lon="34.64884319342673"><ele>169.80999755859375</ele><time>2026-08-17T18:20:05.000Z</time><extensions/></trkpt><trkpt lat="59.38768196851015" lon="34.64888175018132"><ele>169.3300018310547</ele><time>2026-08-17T18:20:27.000Z</time><extensions/></trkpt><trkpt lat="59.387554647400975" lon="34.648890886455774"><ele>169.3300018310547</ele><time>2026-08-17T18:20:45.000Z</time><extensions/></trkpt><trkpt lat="59.387446353212" lon="34.64892349205911"><ele>169.3300018310547</ele><time>2026-08-17T18:21:08.000Z</time><extensions/></trkpt><trkpt lat="59.38738633878529" lon="34.64895484037697"><ele>169.3300018310547</ele><time>2026-08-17T18:21:22.000Z</time><extensions/></trkpt><trkpt lat="59.38735708594322" lon="34.64887881651521"><ele>169.3300018310547</ele><time>2026-08-17T18:22:06.000Z</time><extensions/></trkpt><trkpt lat="59.387329341843724" lon="34.64882777072489"><ele>169.3300018310547</ele><time>2026-08-17T18:22:10.000Z</time><extensions/></trkpt><trkpt lat="59.38724996522069" lon="34.648666838184"><ele>169.3300018310547</ele><time>2026-08-17T18:22:25.000Z</time><extensions/></trkpt><trkpt lat="59.38717318698764" lon="34.64862291701138"><ele>168.85000610351562</ele><time>2026-08-17T18:22:39.000Z</time><extensions/></trkpt><trkpt lat="59.387034298852086" lon="34.6485944185406"><ele>169.3300018310547</ele><time>2026-08-17T18:23:07.000Z</time><extensions/></trkpt><trkpt lat="59.38690253533423" lon="34.64867035858333"><ele>168.85000610351562</ele><time>2026-08-17T18:23:23.000Z</time><extensions/></trkpt><trkpt lat="59.38679214566946" lon="34.64870707131922"><ele>168.85000610351562</ele><time>2026-08-17T18:23:40.000Z</time><extensions/></trkpt><trkpt lat="59.38670178875327" lon="34.648728277534246"><ele>168.85000610351562</ele><time>2026-08-17T18:23:54.000Z</time><extensions/></trkpt><trkpt lat="59.38660413958132" lon="34.64864144101739"><ele>168.85000610351562</ele><time>2026-08-17T18:24:09.000Z</time><extensions/></trkpt><trkpt lat="59.38648486509919" lon="34.648537589237094"><ele>168.85000610351562</ele><time>2026-08-17T18:24:26.000Z</time><extensions/></trkpt><trkpt lat="59.38636056147516" lon="34.64840481989086"><ele>169.3300018310547</ele><time>2026-08-17T18:24:46.000Z</time><extensions/></trkpt><trkpt lat="59.38626995310187" lon="34.64829686097801"><ele>169.3300018310547</ele><time>2026-08-17T18:25:05.000Z</time><extensions/></trkpt><trkpt lat="59.386214883998036" lon="34.64817297644913"><ele>169.3300018310547</ele><time>2026-08-17T18:25:22.000Z</time><extensions/></trkpt><trkpt lat="59.38617465086281" lon="34.64814003556967"><ele>168.85000610351562</ele><time>2026-08-17T18:25:43.000Z</time><extensions/></trkpt><trkpt lat="59.3861270416528" lon="34.64806149713695"><ele>168.85000610351562</ele><time>2026-08-17T18:26:17.000Z</time><extensions/></trkpt><trkpt lat="59.386058393865824" lon="34.64811388403177"><ele>169.3300018310547</ele><time>2026-08-17T18:26:48.000Z</time><extensions/></trkpt><trkpt lat="59.3859489262104" lon="34.64817741885781"><ele>168.85000610351562</ele><time>2026-08-17T18:27:27.000Z</time><extensions/></trkpt><trkpt lat="59.38586854375899" lon="34.64817088097334"><ele>168.85000610351562</ele><time>2026-08-17T18:27:45.000Z</time><extensions/></trkpt><trkpt lat="59.38576402142644" lon="34.64823877438903"><ele>168.3699951171875</ele><time>2026-08-17T18:28:38.000Z</time><extensions/></trkpt><trkpt lat="59.385563945397735" lon="34.648128720000386"><ele>168.85000610351562</ele><time>2026-08-17T18:29:32.000Z</time><extensions/></trkpt><trkpt lat="59.385491693392396" lon="34.64813802391291"><ele>168.85000610351562</ele><time>2026-08-17T18:29:45.000Z</time><extensions/></trkpt><trkpt lat="59.3854533880949" lon="34.648218993097544"><ele>168.85000610351562</ele><time>2026-08-17T18:30:00.000Z</time><extensions/></trkpt><trkpt lat="59.38534987159073" lon="34.64834329672158"><ele>168.85000610351562</ele><time>2026-08-17T18:30:29.000Z</time><extensions/></trkpt><trkpt lat="59.38522858545184" lon="34.6483782492578"><ele>169.3300018310547</ele><time>2026-08-17T18:30:48.000Z</time><extensions/></trkpt><trkpt lat="59.38521777279675" lon="34.648374393582344"><ele>169.3300018310547</ele><time>2026-08-17T18:30:49.000Z</time><extensions/></trkpt><trkpt lat="59.38510629348457" lon="34.64833466336131"><ele>169.3300018310547</ele><time>2026-08-17T18:31:04.000Z</time><extensions/></trkpt><trkpt lat="59.38504979945719" lon="34.648303566500545"><ele>169.3300018310547</ele><time>2026-08-17T18:31:31.000Z</time><extensions/></trkpt><trkpt lat="59.38511333428323" lon="34.64815244078636"><ele>168.85000610351562</ele><time>2026-08-17T18:31:49.000Z</time><extensions/></trkpt><trkpt lat="59.38517812639475" lon="34.647947922348976"><ele>168.85000610351562</ele><time>2026-08-17T18:32:03.000Z</time><extensions/></trkpt><trkpt lat="59.38525062985718" lon="34.64777274057269"><ele>168.85000610351562</ele><time>2026-08-17T18:32:16.000Z</time><extensions/></trkpt><trkpt lat="59.385288935154676" lon="34.6475822199136"><ele>168.85000610351562</ele><time>2026-08-17T18:32:32.000Z</time><extensions/></trkpt><trkpt lat="59.38531978055835" lon="34.64743453077972"><ele>168.85000610351562</ele><time>2026-08-17T18:32:58.000Z</time><extensions/></trkpt><trkpt lat="59.38536546193063" lon="34.64720143005252"><ele>168.85000610351562</ele><time>2026-08-17T18:33:15.000Z</time><extensions/></trkpt><trkpt lat="59.38538205809891" lon="34.64701719582081"><ele>168.85000610351562</ele><time>2026-08-17T18:33:32.000Z</time><extensions/></trkpt><trkpt lat="59.385377280414104" lon="34.647001856938004"><ele>168.85000610351562</ele><time>2026-08-17T18:33:33.000Z</time><extensions/></trkpt><trkpt lat="59.385361690074205" lon="34.64690395630896"><ele>168.85000610351562</ele><time>2026-08-17T18:33:47.000Z</time><extensions/></trkpt><trkpt lat="59.38537987880409" lon="34.64673724025488"><ele>168.85000610351562</ele><time>2026-08-17T18:34:03.000Z</time><extensions/></trkpt><trkpt lat="59.38539412803948" lon="34.64655543677509"><ele>168.85000610351562</ele><time>2026-08-17T18:34:19.000Z</time><extensions/></trkpt><trkpt lat="59.3854137416929" lon="34.64646809734404"><ele>169.3300018310547</ele><time>2026-08-17T18:34:35.000Z</time><extensions/></trkpt><trkpt lat="59.38546009361744" lon="34.646212281659245"><ele>168.85000610351562</ele><time>2026-08-17T18:35:06.000Z</time><extensions/></trkpt><trkpt lat="59.38553092069924" lon="34.646122846752405"><ele>168.85000610351562</ele><time>2026-08-17T18:35:24.000Z</time><extensions/></trkpt><trkpt lat="59.38563024625182" lon="34.64594506658614"><ele>168.85000610351562</ele><time>2026-08-17T18:35:41.000Z</time><extensions/></trkpt><trkpt lat="59.38567022792995" lon="34.645731998607516"><ele>168.85000610351562</ele><time>2026-08-17T18:36:01.000Z</time><extensions/></trkpt><trkpt lat="59.38576209358871" lon="34.64549487456679"><ele>169.3300018310547</ele><time>2026-08-17T18:36:20.000Z</time><extensions/></trkpt><trkpt lat="59.38579889014363" lon="34.64541072025895"><ele>169.3300018310547</ele><time>2026-08-17T18:36:39.000Z</time><extensions/></trkpt><trkpt lat="59.38593258149922" lon="34.645377192646265"><ele>169.3300018310547</ele><time>2026-08-17T18:37:41.000Z</time><extensions/></trkpt><trkpt lat="59.38597457483411" lon="34.64536612853408"><ele>169.3300018310547</ele><time>2026-08-17T18:37:58.000Z</time><extensions/></trkpt><trkpt lat="59.386056466028094" lon="34.6453841496259"><ele>169.3300018310547</ele><time>2026-08-17T18:38:41.000Z</time><extensions/></trkpt><trkpt lat="59.386161491274834" lon="34.64531726203859"><ele>169.80999755859375</ele><time>2026-08-17T18:39:46.000Z</time><extensions/></trkpt><trkpt lat="59.38625427894294" lon="34.64519178494811"><ele>169.3300018310547</ele><time>2026-08-17T18:40:07.000Z</time><extensions/></trkpt><trkpt lat="59.3863067496568" lon="34.64513646438718"><ele>169.3300018310547</ele><time>2026-08-17T18:41:18.000Z</time><extensions/></trkpt><trkpt lat="59.38630985096097" lon="34.64538029395044"><ele>169.80999755859375</ele><time>2026-08-17T18:42:53.000Z</time><extensions/></trkpt><trkpt lat="59.38630289398134" lon="34.645524797961116"><ele>170.2899932861328</ele><time>2026-08-17T18:43:12.000Z</time><extensions/></trkpt><trkpt lat="59.38631957396865" lon="34.64580458588898"><ele>170.77000427246094</ele><time>2026-08-17T18:43:42.000Z</time><extensions/></trkpt><trkpt lat="59.386395597830415" lon="34.64591262862086"><ele>170.77000427246094</ele><time>2026-08-17T18:43:56.000Z</time><extensions/></trkpt><trkpt lat="59.38639777712524" lon="34.645923441275954"><ele>170.2899932861328</ele><time>2026-08-17T18:45:00.000Z</time><extensions/></trkpt><trkpt lat="59.38632259145379" lon="34.6461265347898"><ele>170.77000427246094</ele><time>2026-08-17T18:45:31.000Z</time><extensions/></trkpt><trkpt lat="59.386308593675494" lon="34.64635309763253"><ele>170.2899932861328</ele><time>2026-08-17T18:45:57.000Z</time><extensions/></trkpt><trkpt lat="59.38629409298301" lon="34.6465152874589"><ele>170.2899932861328</ele><time>2026-08-17T18:46:15.000Z</time><extensions/></trkpt><trkpt lat="59.38631462864578" lon="34.64651972986758"><ele>169.80999755859375</ele><time>2026-08-17T18:46:35.000Z</time><extensions/></trkpt><trkpt lat="59.38649106770754" lon="34.64673338457942"><ele>169.80999755859375</ele><time>2026-08-17T18:48:23.000Z</time><extensions/></trkpt><trkpt lat="59.38653691671789" lon="34.64688526466489"><ele>169.3300018310547</ele><time>2026-08-17T18:48:49.000Z</time><extensions/></trkpt><trkpt lat="59.386557871475816" lon="34.64681854471564"><ele>169.80999755859375</ele><time>2026-08-17T18:49:53.000Z</time><extensions/></trkpt><trkpt lat="59.38651939854026" lon="34.646577229723334"><ele>169.80999755859375</ele><time>2026-08-17T18:50:16.000Z</time><extensions/></trkpt><trkpt lat="59.38665878959" lon="34.64639877900481"><ele>169.80999755859375</ele><time>2026-08-17T18:52:11.000Z</time><extensions/></trkpt><trkpt lat="59.38666557893157" lon="34.64644018560648"><ele>169.80999755859375</ele><time>2026-08-17T18:52:45.000Z</time><extensions/></trkpt><trkpt lat="59.38673313707113" lon="34.64668124914169"><ele>169.3300018310547</ele><time>2026-08-17T18:53:27.000Z</time><extensions/></trkpt><trkpt lat="59.386838832870126" lon="34.64665576815605"><ele>169.80999755859375</ele><time>2026-08-17T18:55:06.000Z</time><extensions/></trkpt><trkpt lat="59.38689172267914" lon="34.646907141432166"><ele>169.3300018310547</ele><time>2026-08-17T18:56:27.000Z</time><extensions/></trkpt><trkpt lat="59.386907229200006" lon="34.64703102596104"><ele>169.3300018310547</ele><time>2026-08-17T18:56:45.000Z</time><extensions/></trkpt><trkpt lat="59.386985851451755" lon="34.6472542360425"><ele>169.3300018310547</ele><time>2026-08-17T18:57:06.000Z</time><extensions/></trkpt><trkpt lat="59.38705801963806" lon="34.647294552996755"><ele>169.3300018310547</ele><time>2026-08-17T18:57:28.000Z</time><extensions/></trkpt><trkpt lat="59.38707562163472" lon="34.647352723404765"><ele>169.3300018310547</ele><time>2026-08-17T18:57:44.000Z</time><extensions/></trkpt><trkpt lat="59.38705449923873" lon="34.64752254076302"><ele>169.3300018310547</ele><time>2026-08-17T18:58:25.000Z</time><extensions/></trkpt><trkpt lat="59.38710722140968" lon="34.647697722539306"><ele>169.3300018310547</ele><time>2026-08-17T18:58:50.000Z</time><extensions/></trkpt><trkpt lat="59.38719724304974" lon="34.647700656205416"><ele>169.3300018310547</ele><time>2026-08-17T18:59:08.000Z</time><extensions/></trkpt><trkpt lat="59.38738089054823" lon="34.647708451375365"><ele>169.80999755859375</ele><time>2026-08-17T19:00:12.000Z</time><extensions/></trkpt><trkpt lat="59.38747979700565" lon="34.647672241553664"><ele>170.2899932861328</ele><time>2026-08-17T19:00:31.000Z</time><extensions/></trkpt><trkpt lat="59.38756906427443" lon="34.64763628318906"><ele>170.2899932861328</ele><time>2026-08-17T19:00:46.000Z</time><extensions/></trkpt><trkpt lat="59.38761197961867" lon="34.64761013165116"><ele>170.77000427246094</ele><time>2026-08-17T19:01:06.000Z</time><extensions/></trkpt><trkpt lat="59.38771507702768" lon="34.64754559099674"><ele>170.77000427246094</ele><time>2026-08-17T19:01:34.000Z</time><extensions/></trkpt><trkpt lat="59.387797471135855" lon="34.64745221659541"><ele>171.72999572753906</ele><time>2026-08-17T19:08:37.000Z</time><extensions/></trkpt><trkpt lat="59.38786176033318" lon="34.64730377309024"><ele>171.72999572753906</ele><time>2026-08-17T19:08:52.000Z</time><extensions/></trkpt><trkpt lat="59.38797223381698" lon="34.64704468846321"><ele>171.72999572753906</ele><time>2026-08-17T19:09:19.000Z</time><extensions/></trkpt><trkpt lat="59.38806602731347" lon="34.64682977646589"><ele>171.25</ele><time>2026-08-17T19:09:40.000Z</time><extensions/></trkpt><trkpt lat="59.38817834481597" lon="34.646734558045864"><ele>171.25</ele><time>2026-08-17T19:10:02.000Z</time><extensions/></trkpt><trkpt lat="59.38826107420027" lon="34.646819131448865"><ele>170.77000427246094</ele><time>2026-08-17T19:10:21.000Z</time><extensions/></trkpt><trkpt lat="59.388314969837666" lon="34.64687068015337"><ele>170.77000427246094</ele><time>2026-08-17T19:10:40.000Z</time><extensions/></trkpt><trkpt lat="59.38840423710644" lon="34.646995486691594"><ele>170.77000427246094</ele><time>2026-08-17T19:11:03.000Z</time><extensions/></trkpt><trkpt lat="59.38848227262497" lon="34.64701375924051"><ele>171.25</ele><time>2026-08-17T19:11:24.000Z</time><extensions/></trkpt><trkpt lat="59.38856424763799" lon="34.646984757855535"><ele>171.25</ele><time>2026-08-17T19:11:45.000Z</time><extensions/></trkpt><trkpt lat="59.38871243968606" lon="34.64697226881981"><ele>171.25</ele><time>2026-08-17T19:12:07.000Z</time><extensions/></trkpt><trkpt lat="59.388757199048996" lon="34.64704276062548"><ele>171.25</ele><time>2026-08-17T19:12:51.000Z</time><extensions/></trkpt><trkpt lat="59.38900999724865" lon="34.647078551352024"><ele>170.77000427246094</ele><time>2026-08-17T19:13:20.000Z</time><extensions/></trkpt><trkpt lat="59.38903044909239" lon="34.64717133902013"><ele>170.77000427246094</ele><time>2026-08-17T19:13:43.000Z</time><extensions/></trkpt><trkpt lat="59.389103120192885" lon="34.64729673229158"><ele>170.77000427246094</ele><time>2026-08-17T19:14:04.000Z</time><extensions/></trkpt><trkpt lat="59.389181826263666" lon="34.64740997180343"><ele>170.77000427246094</ele><time>2026-08-17T19:14:47.000Z</time><extensions/></trkpt><trkpt lat="59.389295065775514" lon="34.6475790347904"><ele>170.77000427246094</ele><time>2026-08-17T19:15:58.000Z</time><extensions/></trkpt><trkpt lat="59.38933948986232" lon="34.6476567350328"><ele>170.2899932861328</ele><time>2026-08-17T19:16:24.000Z</time><extensions/></trkpt><trkpt lat="59.389504278078675" lon="34.64787332341075"><ele>170.77000427246094</ele><time>2026-08-17T19:17:30.000Z</time><extensions/></trkpt><trkpt lat="59.38964266330004" lon="34.64810315519571"><ele>170.2899932861328</ele><time>2026-08-17T19:19:04.000Z</time><extensions/></trkpt><trkpt lat="59.38963579013944" lon="34.64819937944412"><ele>170.2899932861328</ele><time>2026-08-17T19:19:24.000Z</time><extensions/></trkpt><trkpt lat="59.38955549150705" lon="34.64830624870956"><ele>170.2899932861328</ele><time>2026-08-17T19:19:56.000Z</time><extensions/></trkpt><trkpt lat="59.389462284743786" lon="34.6482955198735"><ele>170.2899932861328</ele><time>2026-08-17T19:20:52.000Z</time><extensions/></trkpt><trkpt lat="59.38940076157451" lon="34.648314798250794"><ele>170.2899932861328</ele><time>2026-08-17T19:21:19.000Z</time><extensions/></trkpt><trkpt lat="59.38941014930606" lon="34.64829443022609"><ele>170.2899932861328</ele><time>2026-08-17T19:22:04.000Z</time><extensions/></trkpt><trkpt lat="59.38949765637517" lon="34.64813584461808"><ele>169.80999755859375</ele><time>2026-08-17T19:22:43.000Z</time><extensions/></trkpt><trkpt lat="59.38954518176615" lon="34.64809946715832"><ele>170.2899932861328</ele><time>2026-08-17T19:23:01.000Z</time><extensions/></trkpt><trkpt lat="59.38959572464228" lon="34.64814213104546"><ele>170.2899932861328</ele><time>2026-08-17T19:23:38.000Z</time><extensions/></trkpt><trkpt lat="59.38968884758651" lon="34.64815788902342"><ele>170.2899932861328</ele><time>2026-08-17T19:24:15.000Z</time><extensions/></trkpt><trkpt lat="59.38978188671172" lon="34.64811673387885"><ele>170.2899932861328</ele><time>2026-08-17T19:24:47.000Z</time><extensions/></trkpt><trkpt lat="59.38985665328801" lon="34.648115895688534"><ele>170.2899932861328</ele><time>2026-08-17T19:25:09.000Z</time><extensions/></trkpt><trkpt lat="59.38995488919318" lon="34.648181442171335"><ele>170.2899932861328</ele><time>2026-08-17T19:25:38.000Z</time><extensions/></trkpt><trkpt lat="59.39001079648733" lon="34.64820072054863"><ele>170.77000427246094</ele><time>2026-08-17T19:25:54.000Z</time><extensions/></trkpt><trkpt lat="59.39017843455076" lon="34.6482886467129"><ele>170.77000427246094</ele><time>2026-08-17T19:29:23.000Z</time><extensions/></trkpt><trkpt lat="59.39026225358248" lon="34.64838981628418"><ele>171.72999572753906</ele><time>2026-08-17T19:29:43.000Z</time><extensions/></trkpt><trkpt lat="59.390288069844246" lon="34.64839274995029"><ele>171.72999572753906</ele><time>2026-08-17T19:30:17.000Z</time><extensions/></trkpt><trkpt lat="59.39040021970868" lon="34.64833114296198"><ele>172.2100067138672</ele><time>2026-08-17T19:30:46.000Z</time><extensions/></trkpt><trkpt lat="59.39054078422487" lon="34.64836358092725"><ele>172.2100067138672</ele><time>2026-08-17T19:31:10.000Z</time><extensions/></trkpt><trkpt lat="59.390665758401155" lon="34.64849676936865"><ele>172.69000244140625</ele><time>2026-08-17T19:31:32.000Z</time><extensions/></trkpt><trkpt lat="59.390825936570764" lon="34.64872358366847"><ele>172.69000244140625</ele><time>2026-08-17T19:31:56.000Z</time><extensions/></trkpt><trkpt lat="59.390829876065254" lon="34.64881687425077"><ele>172.69000244140625</ele><time>2026-08-17T19:32:14.000Z</time><extensions/></trkpt><trkpt lat="59.390854351222515" lon="34.64889197610319"><ele>172.69000244140625</ele><time>2026-08-17T19:32:37.000Z</time><extensions/></trkpt><trkpt lat="59.390927692875266" lon="34.64897629804909"><ele>172.69000244140625</ele><time>2026-08-17T19:33:25.000Z</time><extensions/></trkpt><trkpt lat="59.39100648276508" lon="34.64892793446779"><ele>172.69000244140625</ele><time>2026-08-17T19:33:50.000Z</time><extensions/></trkpt><trkpt lat="59.391091391444206" lon="34.648900274187326"><ele>172.69000244140625</ele><time>2026-08-17T19:34:12.000Z</time><extensions/></trkpt><trkpt lat="59.39118769951165" lon="34.64888082817197"><ele>172.69000244140625</ele><time>2026-08-17T19:34:40.000Z</time><extensions/></trkpt><trkpt lat="59.391322480514646" lon="34.648871356621385"><ele>172.2100067138672</ele><time>2026-08-17T19:35:17.000Z</time><extensions/></trkpt><trkpt lat="59.39141702838242" lon="34.6487704385072"><ele>172.2100067138672</ele><time>2026-08-17T19:35:37.000Z</time><extensions/></trkpt><trkpt lat="59.39148785546422" lon="34.64875224977732"><ele>172.2100067138672</ele><time>2026-08-17T19:35:56.000Z</time><extensions/></trkpt><trkpt lat="59.391561280936" lon="34.64884914457798"><ele>172.2100067138672</ele><time>2026-08-17T19:36:14.000Z</time><extensions/></trkpt><trkpt lat="59.39163101837039" lon="34.648956852033734"><ele>172.69000244140625</ele><time>2026-08-17T19:36:34.000Z</time><extensions/></trkpt><trkpt lat="59.391743671149015" lon="34.64910848066211"><ele>173.1699981689453</ele><time>2026-08-17T19:36:56.000Z</time><extensions/></trkpt><trkpt lat="59.39184014685452" lon="34.64922741986811"><ele>173.66000366210938</ele><time>2026-08-17T19:37:15.000Z</time><extensions/></trkpt><trkpt lat="59.39189337193966" lon="34.64942389167845"><ele>173.66000366210938</ele><time>2026-08-17T19:37:38.000Z</time><extensions/></trkpt><trkpt lat="59.39191281795502" lon="34.649593122303486"><ele>174.13999938964844</ele><time>2026-08-17T19:37:59.000Z</time><extensions/></trkpt><trkpt lat="59.391921032220125" lon="34.64979805983603"><ele>174.13999938964844</ele><time>2026-08-17T19:38:41.000Z</time><extensions/></trkpt><trkpt lat="59.391879457980394" lon="34.65006091631949"><ele>173.66000366210938</ele><time>2026-08-17T19:39:04.000Z</time><extensions/></trkpt><trkpt lat="59.391842326149344" lon="34.650187734514475"><ele>173.66000366210938</ele><time>2026-08-17T19:39:22.000Z</time><extensions/></trkpt><trkpt lat="59.39191156066954" lon="34.650299632921815"><ele>173.66000366210938</ele><time>2026-08-17T19:40:28.000Z</time><extensions/></trkpt><trkpt lat="59.39185976050794" lon="34.65049082413316"><ele>173.1699981689453</ele><time>2026-08-17T19:41:04.000Z</time><extensions/></trkpt><trkpt lat="59.391881888732314" lon="34.65065016411245"><ele>173.66000366210938</ele><time>2026-08-17T19:41:23.000Z</time><extensions/></trkpt><trkpt lat="59.39195732586086" lon="34.650733564049006"><ele>174.13999938964844</ele><time>2026-08-17T19:41:50.000Z</time><extensions/></trkpt><trkpt lat="59.392037289217114" lon="34.6508062351495"><ele>174.13999938964844</ele><time>2026-08-17T19:42:10.000Z</time><extensions/></trkpt><trkpt lat="59.392050532624125" lon="34.65074052102864"><ele>174.13999938964844</ele><time>2026-08-17T19:42:33.000Z</time><extensions/></trkpt><trkpt lat="59.39211339689791" lon="34.650572799146175"><ele>174.13999938964844</ele><time>2026-08-17T19:42:56.000Z</time><extensions/></trkpt><trkpt lat="59.39219587482512" lon="34.650465762242675"><ele>174.13999938964844</ele><time>2026-08-17T19:43:07.000Z</time><extensions/></trkpt><trkpt lat="59.39231548458338" lon="34.65033785440028"><ele>173.1699981689453</ele><time>2026-08-17T19:43:24.000Z</time><extensions/></trkpt><trkpt lat="59.392428221181035" lon="34.65019234456122"><ele>173.66000366210938</ele><time>2026-08-17T19:43:44.000Z</time><extensions/></trkpt><trkpt lat="59.39253148622811" lon="34.65004079975188"><ele>174.6199951171875</ele><time>2026-08-17T19:44:05.000Z</time><extensions/></trkpt><trkpt lat="59.392670542001724" lon="34.6499689668417"><ele>174.6199951171875</ele><time>2026-08-17T19:44:26.000Z</time><extensions/></trkpt><trkpt lat="59.392764838412404" lon="34.649931751191616"><ele>174.6199951171875</ele><time>2026-08-17T19:44:42.000Z</time><extensions/></trkpt><trkpt lat="59.39288989640772" lon="34.649829156696796"><ele>175.10000610351562</ele><time>2026-08-17T19:45:05.000Z</time><extensions/></trkpt><trkpt lat="59.39304647035897" lon="34.6497012488544"><ele>175.5800018310547</ele><time>2026-08-17T19:45:24.000Z</time><extensions/></trkpt><trkpt lat="59.39320782199502" lon="34.64953503571451"><ele>176.5399932861328</ele><time>2026-08-17T19:45:45.000Z</time><extensions/></trkpt><trkpt lat="59.393284264951944" lon="34.64946722611785"><ele>177.02000427246094</ele><time>2026-08-17T19:45:55.000Z</time><extensions/></trkpt><trkpt lat="59.39340261742473" lon="34.64934602379799"><ele>177.02000427246094</ele><time>2026-08-17T19:46:14.000Z</time><extensions/></trkpt><trkpt lat="59.39346229657531" lon="34.649282740429044"><ele>177.02000427246094</ele><time>2026-08-17T19:46:29.000Z</time><extensions/></trkpt><trkpt lat="59.393548127263784" lon="34.64912415482104"><ele>177.02000427246094</ele><time>2026-08-17T19:46:52.000Z</time><extensions/></trkpt><trkpt lat="59.393585259094834" lon="34.649062464013696"><ele>177.02000427246094</ele><time>2026-08-17T19:47:33.000Z</time><extensions/></trkpt><trkpt lat="59.393654745072126" lon="34.64907696470618"><ele>177.02000427246094</ele><time>2026-08-17T19:47:54.000Z</time><extensions/></trkpt><trkpt lat="59.393735798075795" lon="34.64903337880969"><ele>177.02000427246094</ele><time>2026-08-17T19:48:15.000Z</time><extensions/></trkpt><trkpt lat="59.39376521855593" lon="34.64901669882238"><ele>177.02000427246094</ele><time>2026-08-17T19:48:27.000Z</time><extensions/></trkpt><trkpt lat="59.393809558823705" lon="34.64916874654591"><ele>177.02000427246094</ele><time>2026-08-17T19:48:42.000Z</time><extensions/></trkpt><trkpt lat="59.39387418329716" lon="34.64938826858997"><ele>177.02000427246094</ele><time>2026-08-17T19:49:00.000Z</time><extensions/></trkpt><trkpt lat="59.39395481720567" lon="34.64958029799163"><ele>177.02000427246094</ele><time>2026-08-17T19:49:28.000Z</time><extensions/></trkpt><trkpt lat="59.3940497841686" lon="34.649766543880105"><ele>176.5399932861328</ele><time>2026-08-17T19:49:43.000Z</time><extensions/></trkpt><trkpt lat="59.394120862707496" lon="34.649877436459064"><ele>176.5399932861328</ele><time>2026-08-17T19:49:53.000Z</time><extensions/></trkpt><trkpt lat="59.39419864676893" lon="34.65010575950146"><ele>176.5399932861328</ele><time>2026-08-17T19:50:09.000Z</time><extensions/></trkpt><trkpt lat="59.394312892109156" lon="34.65036383830011"><ele>177.02000427246094</ele><time>2026-08-17T19:50:29.000Z</time><extensions/></trkpt><trkpt lat="59.39443233422935" lon="34.65057003311813"><ele>177.02000427246094</ele><time>2026-08-17T19:50:46.000Z</time><extensions/></trkpt><trkpt lat="59.39457683824003" lon="34.65078712441027"><ele>177.02000427246094</ele><time>2026-08-17T19:51:04.000Z</time><extensions/></trkpt><trkpt lat="59.3946782592684" lon="34.65096155181527"><ele>177.02000427246094</ele><time>2026-08-17T19:51:19.000Z</time><extensions/></trkpt><trkpt lat="59.39482418820262" lon="34.65115441940725"><ele>177.5</ele><time>2026-08-17T19:51:39.000Z</time><extensions/></trkpt><trkpt lat="59.39493608660996" lon="34.651319459080696"><ele>177.5</ele><time>2026-08-17T19:51:55.000Z</time><extensions/></trkpt><trkpt lat="59.395059971138835" lon="34.651478631421924"><ele>176.5399932861328</ele><time>2026-08-17T19:52:12.000Z</time><extensions/></trkpt><trkpt lat="59.39515552483499" lon="34.6516630332917"><ele>176.05999755859375</ele><time>2026-08-17T19:52:27.000Z</time><extensions/></trkpt><trkpt lat="59.39526641741395" lon="34.65180183760822"><ele>176.05999755859375</ele><time>2026-08-17T19:52:42.000Z</time><extensions/></trkpt><trkpt lat="59.39535794779658" lon="34.651910131797194"><ele>176.05999755859375</ele><time>2026-08-17T19:52:54.000Z</time><extensions/></trkpt><trkpt lat="59.39545693807304" lon="34.652038626372814"><ele>176.05999755859375</ele><time>2026-08-17T19:53:10.000Z</time><extensions/></trkpt><trkpt lat="59.39557185396552" lon="34.6522066835314"><ele>177.02000427246094</ele><time>2026-08-17T19:53:29.000Z</time><extensions/></trkpt><trkpt lat="59.39564502798021" lon="34.65238387696445"><ele>177.02000427246094</ele><time>2026-08-17T19:53:47.000Z</time><extensions/></trkpt><trkpt lat="59.39573597162962" lon="34.652508767321706"><ele>177.02000427246094</ele><time>2026-08-17T19:54:03.000Z</time><extensions/></trkpt><trkpt lat="59.395807636901736" lon="34.652678752318025"><ele>177.02000427246094</ele><time>2026-08-17T19:54:19.000Z</time><extensions/></trkpt><trkpt lat="59.39589413814247" lon="34.65290917083621"><ele>176.5399932861328</ele><time>2026-08-17T19:54:41.000Z</time><extensions/></trkpt><trkpt lat="59.39598768018186" lon="34.653151743113995"><ele>175.5800018310547</ele><time>2026-08-17T19:55:04.000Z</time><extensions/></trkpt><trkpt lat="59.39601257443428" lon="34.65322826988995"><ele>175.10000610351562</ele><time>2026-08-17T19:55:19.000Z</time><extensions/></trkpt><trkpt lat="59.39604928717017" lon="34.65330655686557"><ele>175.10000610351562</ele><time>2026-08-17T19:55:48.000Z</time><extensions/></trkpt><trkpt lat="59.39608776010573" lon="34.65343689545989"><ele>175.10000610351562</ele><time>2026-08-17T19:56:01.000Z</time><extensions/></trkpt><trkpt lat="59.39617669209838" lon="34.65365348383784"><ele>175.5800018310547</ele><time>2026-08-17T19:56:19.000Z</time><extensions/></trkpt><trkpt lat="59.39618985168636" lon="34.65368231758475"><ele>175.5800018310547</ele><time>2026-08-17T19:56:21.000Z</time><extensions/></trkpt><trkpt lat="59.39626327715814" lon="34.65391374193132"><ele>175.5800018310547</ele><time>2026-08-17T19:56:37.000Z</time><extensions/></trkpt><trkpt lat="59.396302588284016" lon="34.654085068032146"><ele>175.10000610351562</ele><time>2026-08-17T19:57:04.000Z</time><extensions/></trkpt><trkpt lat="59.396400321274996" lon="34.654316660016775"><ele>175.5800018310547</ele><time>2026-08-17T19:58:22.000Z</time><extensions/></trkpt><trkpt lat="59.396457485854626" lon="34.65441749431193"><ele>176.05999755859375</ele><time>2026-08-17T19:58:48.000Z</time><extensions/></trkpt><trkpt lat="59.396456899121404" lon="34.654459320008755"><ele>176.5399932861328</ele><time>2026-08-17T19:59:07.000Z</time><extensions/></trkpt><trkpt lat="59.396520517766476" lon="34.654636178165674"><ele>176.5399932861328</ele><time>2026-08-17T19:59:31.000Z</time><extensions/></trkpt><trkpt lat="59.39663568511605" lon="34.65471136383712"><ele>176.5399932861328</ele><time>2026-08-17T19:59:47.000Z</time><extensions/></trkpt><trkpt lat="59.396712966263294" lon="34.654809180647135"><ele>176.05999755859375</ele><time>2026-08-17T19:59:59.000Z</time><extensions/></trkpt><trkpt lat="59.39675864763558" lon="34.654893754050136"><ele>176.05999755859375</ele><time>2026-08-17T20:00:17.000Z</time><extensions/></trkpt><trkpt lat="59.39687297679484" lon="34.655031552538276"><ele>175.5800018310547</ele><time>2026-08-17T20:05:57.000Z</time><extensions/></trkpt><trkpt lat="59.39689208753407" lon="34.655089136213064"><ele>175.5800018310547</ele><time>2026-08-17T20:06:00.000Z</time><extensions/></trkpt><trkpt lat="59.397053522989154" lon="34.65524193830788"><ele>174.6199951171875</ele><time>2026-08-17T20:06:19.000Z</time><extensions/></trkpt><trkpt lat="59.39725988544524" lon="34.655294828116894"><ele>173.66000366210938</ele><time>2026-08-17T20:06:44.000Z</time><extensions/></trkpt><trkpt lat="59.39735418185592" lon="34.655415527522564"><ele>174.13999938964844</ele><time>2026-08-17T20:06:58.000Z</time><extensions/></trkpt><trkpt lat="59.397469935938716" lon="34.65558785945177"><ele>173.66000366210938</ele><time>2026-08-17T20:07:14.000Z</time><extensions/></trkpt><trkpt lat="59.39755165949464" lon="34.65584442950785"><ele>173.66000366210938</ele><time>2026-08-17T20:07:34.000Z</time><extensions/></trkpt><trkpt lat="59.39754646271467" lon="34.65592439286411"><ele>173.66000366210938</ele><time>2026-08-17T20:07:39.000Z</time><extensions/></trkpt><trkpt lat="59.39762148074806" lon="34.65623049996793"><ele>173.66000366210938</ele><time>2026-08-17T20:08:00.000Z</time><extensions/></trkpt><trkpt lat="59.3976918887347" lon="34.656502241268754"><ele>174.13999938964844</ele><time>2026-08-17T20:08:23.000Z</time><extensions/></trkpt><trkpt lat="59.39774704165757" lon="34.656834499910474"><ele>174.6199951171875</ele><time>2026-08-17T20:08:45.000Z</time><extensions/></trkpt><trkpt lat="59.39785667695105" lon="34.65714312158525"><ele>174.13999938964844</ele><time>2026-08-17T20:09:07.000Z</time><extensions/></trkpt><trkpt lat="59.39791727811098" lon="34.65740715153515"><ele>173.1699981689453</ele><time>2026-08-17T20:09:29.000Z</time><extensions/></trkpt><trkpt lat="59.39802607521415" lon="34.65752483345568"><ele>173.1699981689453</ele><time>2026-08-17T20:09:58.000Z</time><extensions/></trkpt><trkpt lat="59.39814459532499" lon="34.657733123749495"><ele>173.1699981689453</ele><time>2026-08-17T20:10:17.000Z</time><extensions/></trkpt><trkpt lat="59.398273676633835" lon="34.65780084952712"><ele>173.1699981689453</ele><time>2026-08-17T20:10:39.000Z</time><extensions/></trkpt><trkpt lat="59.39836084842682" lon="34.657892379909754"><ele>173.66000366210938</ele><time>2026-08-17T20:10:57.000Z</time><extensions/></trkpt><trkpt lat="59.398386497050524" lon="34.65791475959122"><ele>173.66000366210938</ele><time>2026-08-17T20:11:00.000Z</time><extensions/></trkpt><trkpt lat="59.39842295832932" lon="34.65794241987169"><ele>173.66000366210938</ele><time>2026-08-17T20:11:04.000Z</time><extensions/></trkpt><trkpt lat="59.39855287782848" lon="34.6580418292433"><ele>173.66000366210938</ele><time>2026-08-17T20:11:22.000Z</time><extensions/></trkpt><trkpt lat="59.3986726552248" lon="34.65819865465164"><ele>173.66000366210938</ele><time>2026-08-17T20:11:42.000Z</time><extensions/></trkpt><trkpt lat="59.398766197264194" lon="34.658356569707394"><ele>173.66000366210938</ele><time>2026-08-17T20:12:01.000Z</time><extensions/></trkpt><trkpt lat="59.39885135740042" lon="34.65850744396448"><ele>173.66000366210938</ele><time>2026-08-17T20:12:18.000Z</time><extensions/></trkpt><trkpt lat="59.39890273846686" lon="34.658740628510714"><ele>173.66000366210938</ele><time>2026-08-17T20:12:37.000Z</time><extensions/></trkpt><trkpt lat="59.39889636822045" lon="34.659007424488664"><ele>173.66000366210938</ele><time>2026-08-17T20:12:55.000Z</time><extensions/></trkpt><trkpt lat="59.398871222510934" lon="34.65933356434107"><ele>173.66000366210938</ele><time>2026-08-17T20:13:16.000Z</time><extensions/></trkpt><trkpt lat="59.398872228339314" lon="34.65963908471167"><ele>173.66000366210938</ele><time>2026-08-17T20:13:36.000Z</time><extensions/></trkpt><trkpt lat="59.39889687113464" lon="34.6598188765347"><ele>173.1699981689453</ele><time>2026-08-17T20:13:55.000Z</time><extensions/></trkpt><trkpt lat="59.39900047145784" lon="34.660054575651884"><ele>173.1699981689453</ele><time>2026-08-17T20:14:29.000Z</time><extensions/></trkpt><trkpt lat="59.39914824441075" lon="34.66010553762317"><ele>173.66000366210938</ele><time>2026-08-17T20:14:47.000Z</time><extensions/></trkpt><trkpt lat="59.39930498600006" lon="34.66016379185021"><ele>174.13999938964844</ele><time>2026-08-17T20:15:06.000Z</time><extensions/></trkpt><trkpt lat="59.3993756454438" lon="34.66025129891932"><ele>174.13999938964844</ele><time>2026-08-17T20:15:32.000Z</time><extensions/></trkpt><trkpt lat="59.39953029155731" lon="34.660431342199445"><ele>174.13999938964844</ele><time>2026-08-17T20:15:55.000Z</time><extensions/></trkpt><trkpt lat="59.39967672340572" lon="34.66060199774802"><ele>174.6199951171875</ele><time>2026-08-17T20:16:12.000Z</time><extensions/></trkpt><trkpt lat="59.399821646511555" lon="34.66075748205185"><ele>174.6199951171875</ele><time>2026-08-17T20:16:30.000Z</time><extensions/></trkpt><trkpt lat="59.39995382912457" lon="34.66093895025551"><ele>174.6199951171875</ele><time>2026-08-17T20:16:51.000Z</time><extensions/></trkpt><trkpt lat="59.40004485659301" lon="34.661046992987394"><ele>174.6199951171875</ele><time>2026-08-17T20:17:16.000Z</time><extensions/></trkpt><trkpt lat="59.400181733071804" lon="34.661236172541976"><ele>174.13999938964844</ele><time>2026-08-17T20:17:36.000Z</time><extensions/></trkpt><trkpt lat="59.40030863508582" lon="34.661456448957324"><ele>173.66000366210938</ele><time>2026-08-17T20:17:55.000Z</time><extensions/></trkpt><trkpt lat="59.40040687099099" lon="34.6616942435503"><ele>173.66000366210938</ele><time>2026-08-17T20:18:14.000Z</time><extensions/></trkpt><trkpt lat="59.40047753043473" lon="34.66195869259536"><ele>173.66000366210938</ele><time>2026-08-17T20:18:35.000Z</time><extensions/></trkpt><trkpt lat="59.40050141885877" lon="34.66212918050587"><ele>173.66000366210938</ele><time>2026-08-17T20:18:54.000Z</time><extensions/></trkpt><trkpt lat="59.40056478604674" lon="34.66229229234159"><ele>173.1699981689453</ele><time>2026-08-17T20:19:09.000Z</time><extensions/></trkpt><trkpt lat="59.4006360322237" lon="34.662459595128894"><ele>173.1699981689453</ele><time>2026-08-17T20:19:28.000Z</time><extensions/></trkpt><trkpt lat="59.40072152763605" lon="34.662651624530554"><ele>173.1699981689453</ele><time>2026-08-17T20:19:46.000Z</time><extensions/></trkpt><trkpt lat="59.400752959772944" lon="34.66276285238564"><ele>173.1699981689453</ele><time>2026-08-17T20:20:05.000Z</time><extensions/></trkpt><trkpt lat="59.4008088670671" lon="34.66302855871618"><ele>173.1699981689453</ele><time>2026-08-17T20:20:25.000Z</time><extensions/></trkpt><trkpt lat="59.400823786854744" lon="34.663327960297465"><ele>173.1699981689453</ele><time>2026-08-17T20:20:44.000Z</time><extensions/></trkpt><trkpt lat="59.400749020278454" lon="34.66365426778793"><ele>173.66000366210938</ele><time>2026-08-17T20:21:07.000Z</time><extensions/></trkpt><trkpt lat="59.40062924288213" lon="34.66391444206238"><ele>174.13999938964844</ele><time>2026-08-17T20:21:30.000Z</time><extensions/></trkpt><trkpt lat="59.40053813159466" lon="34.66416958719492"><ele>175.10000610351562</ele><time>2026-08-17T20:21:52.000Z</time><extensions/></trkpt><trkpt lat="59.40050074830651" lon="34.66436706483364"><ele>175.5800018310547</ele><time>2026-08-17T20:22:13.000Z</time><extensions/></trkpt><trkpt lat="59.40055388957262" lon="34.664646768942475"><ele>175.10000610351562</ele><time>2026-08-17T20:22:38.000Z</time><extensions/></trkpt><trkpt lat="59.40062706358731" lon="34.664838295429945"><ele>175.10000610351562</ele><time>2026-08-17T20:22:56.000Z</time><extensions/></trkpt><trkpt lat="59.400727059692144" lon="34.665052285417914"><ele>175.10000610351562</ele><time>2026-08-17T20:23:16.000Z</time><extensions/></trkpt><trkpt lat="59.40079193562269" lon="34.66521087102592"><ele>175.10000610351562</ele><time>2026-08-17T20:23:33.000Z</time><extensions/></trkpt><trkpt lat="59.400883885100484" lon="34.66541513800621"><ele>174.6199951171875</ele><time>2026-08-17T20:23:55.000Z</time><extensions/></trkpt><trkpt lat="59.40097851678729" lon="34.665608424693346"><ele>174.6199951171875</ele><time>2026-08-17T20:24:15.000Z</time><extensions/></trkpt><trkpt lat="59.40107507631183" lon="34.66584127396345"><ele>174.6199951171875</ele><time>2026-08-17T20:24:36.000Z</time><extensions/></trkpt><trkpt lat="59.40111832693219" lon="34.66621778905392"><ele>174.6199951171875</ele><time>2026-08-17T20:25:00.000Z</time><extensions/></trkpt><trkpt lat="59.401091085746884" lon="34.66630395501852"><ele>174.13999938964844</ele><time>2026-08-17T20:25:16.000Z</time><extensions/></trkpt><trkpt lat="59.401140958070755" lon="34.66657066717744"><ele>173.66000366210938</ele><time>2026-08-17T20:25:46.000Z</time><extensions/></trkpt><trkpt lat="59.40121882595122" lon="34.66687409207225"><ele>173.66000366210938</ele><time>2026-08-17T20:26:06.000Z</time><extensions/></trkpt><trkpt lat="59.40127397887409" lon="34.66705656610429"><ele>173.1699981689453</ele><time>2026-08-17T20:26:23.000Z</time><extensions/></trkpt><trkpt lat="59.401316894218326" lon="34.66722805984318"><ele>173.66000366210938</ele><time>2026-08-17T20:26:35.000Z</time><extensions/></trkpt><trkpt lat="59.40140155144036" lon="34.667472057044506"><ele>173.66000366210938</ele><time>2026-08-17T20:26:52.000Z</time><extensions/></trkpt><trkpt lat="59.40146567299962" lon="34.66767841950059"><ele>173.66000366210938</ele><time>2026-08-17T20:27:07.000Z</time><extensions/></trkpt><trkpt lat="59.401555359363556" lon="34.66797513887286"><ele>174.6199951171875</ele><time>2026-08-17T20:27:29.000Z</time><extensions/></trkpt><trkpt lat="59.40166415646672" lon="34.66818795539439"><ele>173.66000366210938</ele><time>2026-08-17T20:27:49.000Z</time><extensions/></trkpt><trkpt lat="59.401787957176566" lon="34.668396497145295"><ele>172.69000244140625</ele><time>2026-08-17T20:28:06.000Z</time><extensions/></trkpt><trkpt lat="59.401901783421636" lon="34.6684739459306"><ele>172.2100067138672</ele><time>2026-08-17T20:28:20.000Z</time><extensions/></trkpt><trkpt lat="59.40199742093682" lon="34.668520130217075"><ele>171.72999572753906</ele><time>2026-08-17T20:28:40.000Z</time><extensions/></trkpt><trkpt lat="59.402142679318786" lon="34.668684247881174"><ele>171.25</ele><time>2026-08-17T20:29:12.000Z</time><extensions/></trkpt><trkpt lat="59.40226832404733" lon="34.66901206411421"><ele>171.25</ele><time>2026-08-17T20:29:38.000Z</time><extensions/></trkpt><trkpt lat="59.40228316001594" lon="34.66907048597932"><ele>171.25</ele><time>2026-08-17T20:30:10.000Z</time><extensions/></trkpt><trkpt lat="59.40247896127403" lon="34.66937676072121"><ele>170.2899932861328</ele><time>2026-08-17T20:33:05.000Z</time><extensions/></trkpt><trkpt lat="59.40262044779956" lon="34.66950986534357"><ele>170.2899932861328</ele><time>2026-08-17T20:33:29.000Z</time><extensions/></trkpt><trkpt lat="59.402818931266665" lon="34.66967632994056"><ele>170.77000427246094</ele><time>2026-08-17T20:33:54.000Z</time><extensions/></trkpt><trkpt lat="59.40299394540489" lon="34.67001495882869"><ele>169.80999755859375</ele><time>2026-08-17T20:34:20.000Z</time><extensions/></trkpt><trkpt lat="59.4030555523932" lon="34.670273289084435"><ele>169.3300018310547</ele><time>2026-08-17T20:34:40.000Z</time><extensions/></trkpt><trkpt lat="59.40310542471707" lon="34.67053488828242"><ele>169.3300018310547</ele><time>2026-08-17T20:35:03.000Z</time><extensions/></trkpt><trkpt lat="59.40309897065163" lon="34.67092799954116"><ele>169.3300018310547</ele><time>2026-08-17T20:35:33.000Z</time><extensions/></trkpt><trkpt lat="59.40313199535012" lon="34.671349693089724"><ele>169.80999755859375</ele><time>2026-08-17T20:36:00.000Z</time><extensions/></trkpt><trkpt lat="59.40318647772074" lon="34.67163383960724"><ele>169.80999755859375</ele><time>2026-08-17T20:36:22.000Z</time><extensions/></trkpt><trkpt lat="59.4032212626189" lon="34.67180977575481"><ele>169.80999755859375</ele><time>2026-08-17T20:36:36.000Z</time><extensions/></trkpt><trkpt lat="59.40331036224961" lon="34.67209274880588"><ele>169.3300018310547</ele><time>2026-08-17T20:36:57.000Z</time><extensions/></trkpt><trkpt lat="59.40346618182957" lon="34.672388629987836"><ele>168.3699951171875</ele><time>2026-08-17T20:37:23.000Z</time><extensions/></trkpt><trkpt lat="59.40353482961655" lon="34.672436490654945"><ele>168.3699951171875</ele><time>2026-08-17T20:37:44.000Z</time><extensions/></trkpt><trkpt lat="59.403603645041585" lon="34.67255685478449"><ele>168.3699951171875</ele><time>2026-08-17T20:37:58.000Z</time><extensions/></trkpt><trkpt lat="59.403683273121715" lon="34.672700352966785"><ele>168.3699951171875</ele><time>2026-08-17T20:38:17.000Z</time><extensions/></trkpt><trkpt lat="59.40376457758248" lon="34.67285726219416"><ele>167.88999938964844</ele><time>2026-08-17T20:38:43.000Z</time><extensions/></trkpt><trkpt lat="59.40392827615142" lon="34.673034036532044"><ele>167.88999938964844</ele><time>2026-08-17T20:39:03.000Z</time><extensions/></trkpt><trkpt lat="59.404086358845234" lon="34.673155741766095"><ele>167.88999938964844</ele><time>2026-08-17T20:39:23.000Z</time><extensions/></trkpt><trkpt lat="59.40429054200649" lon="34.673385825008154"><ele>168.85000610351562</ele><time>2026-08-17T20:39:54.000Z</time><extensions/></trkpt><trkpt lat="59.404433872550726" lon="34.67365178279579"><ele>168.3699951171875</ele><time>2026-08-17T20:40:19.000Z</time><extensions/></trkpt><trkpt lat="59.40448248758912" lon="34.673802237957716"><ele>168.3699951171875</ele><time>2026-08-17T20:40:36.000Z</time><extensions/></trkpt><trkpt lat="59.40455373376608" lon="34.67384582385421"><ele>168.3699951171875</ele><time>2026-08-17T20:41:32.000Z</time><extensions/></trkpt><trkpt lat="59.40455297939479" lon="34.67408378608525"><ele>168.3699951171875</ele><time>2026-08-17T20:41:47.000Z</time><extensions/></trkpt><trkpt lat="59.40457963384688" lon="34.67438226565719"><ele>168.3699951171875</ele><time>2026-08-17T20:42:05.000Z</time><extensions/></trkpt><trkpt lat="59.40466764383018" lon="34.674761798232794"><ele>168.3699951171875</ele><time>2026-08-17T20:42:30.000Z</time><extensions/></trkpt><trkpt lat="59.40473025664687" lon="34.67511065304279"><ele>168.3699951171875</ele><time>2026-08-17T20:42:52.000Z</time><extensions/></trkpt><trkpt lat="59.404776860028505" lon="34.67537568882108"><ele>168.3699951171875</ele><time>2026-08-17T20:43:09.000Z</time><extensions/></trkpt><trkpt lat="59.40488322637975" lon="34.67584013007581"><ele>168.85000610351562</ele><time>2026-08-17T20:43:38.000Z</time><extensions/></trkpt><trkpt lat="59.40507366321981" lon="34.676087060943246"><ele>168.85000610351562</ele><time>2026-08-17T20:44:33.000Z</time><extensions/></trkpt><trkpt lat="59.40528857521713" lon="34.67622988857329"><ele>168.85000610351562</ele><time>2026-08-17T20:44:58.000Z</time><extensions/></trkpt><trkpt lat="59.40545788966119" lon="34.67638143338263"><ele>168.3699951171875</ele><time>2026-08-17T20:45:24.000Z</time><extensions/></trkpt><trkpt lat="59.40560147166252" lon="34.67647614888847"><ele>168.3699951171875</ele><time>2026-08-17T20:45:54.000Z</time><extensions/></trkpt><trkpt lat="59.40581353381276" lon="34.67649484053254"><ele>168.3699951171875</ele><time>2026-08-17T20:46:17.000Z</time><extensions/></trkpt><trkpt lat="59.406016543507576" lon="34.67631873674691"><ele>168.3699951171875</ele><time>2026-08-17T20:46:43.000Z</time><extensions/></trkpt><trkpt lat="59.406242771074176" lon="34.676082199439406"><ele>168.3699951171875</ele><time>2026-08-17T20:47:10.000Z</time><extensions/></trkpt><trkpt lat="59.4064177852124" lon="34.67600215226412"><ele>168.3699951171875</ele><time>2026-08-17T20:47:32.000Z</time><extensions/></trkpt><trkpt lat="59.40663579851389" lon="34.67599242925644"><ele>168.3699951171875</ele><time>2026-08-17T20:48:10.000Z</time><extensions/></trkpt><trkpt lat="59.40676253288984" lon="34.67597206123173"><ele>168.3699951171875</ele><time>2026-08-17T20:48:37.000Z</time><extensions/></trkpt><trkpt lat="59.40693628974259" lon="34.67612276785076"><ele>168.3699951171875</ele><time>2026-08-17T20:49:06.000Z</time><extensions/></trkpt><trkpt lat="59.40719579346478" lon="34.676403142511845"><ele>168.85000610351562</ele><time>2026-08-17T20:49:28.000Z</time><extensions/></trkpt><trkpt lat="59.407351445406675" lon="34.6768094971776"><ele>167.88999938964844</ele><time>2026-08-17T20:49:54.000Z</time><extensions/></trkpt><trkpt lat="59.40742294304073" lon="34.67715248465538"><ele>167.88999938964844</ele><time>2026-08-17T20:50:11.000Z</time><extensions/></trkpt><trkpt lat="59.40744297578931" lon="34.677416598424315"><ele>167.88999938964844</ele><time>2026-08-17T20:50:25.000Z</time><extensions/></trkpt><trkpt lat="59.40746108070016" lon="34.67761508189142"><ele>167.88999938964844</ele><time>2026-08-17T20:50:46.000Z</time><extensions/></trkpt><trkpt lat="59.40741322003305" lon="34.67810676433146"><ele>168.85000610351562</ele><time>2026-08-17T20:51:13.000Z</time><extensions/></trkpt><trkpt lat="59.40733702853322" lon="34.67839392833412"><ele>168.3699951171875</ele><time>2026-08-17T20:51:31.000Z</time><extensions/></trkpt><trkpt lat="59.40718808211386" lon="34.67865653336048"><ele>168.3699951171875</ele><time>2026-08-17T20:51:58.000Z</time><extensions/></trkpt><trkpt lat="59.40713183954358" lon="34.67876239679754"><ele>168.3699951171875</ele><time>2026-08-17T20:52:15.000Z</time><extensions/></trkpt><trkpt lat="59.40704734995961" lon="34.67901846393943"><ele>168.3699951171875</ele><time>2026-08-17T20:52:40.000Z</time><extensions/></trkpt><trkpt lat="59.40700954757631" lon="34.67954836785793"><ele>168.85000610351562</ele><time>2026-08-17T20:53:11.000Z</time><extensions/></trkpt><trkpt lat="59.407045086845756" lon="34.67983796261251"><ele>169.3300018310547</ele><time>2026-08-17T20:53:33.000Z</time><extensions/></trkpt><trkpt lat="59.40712505020201" lon="34.680467024445534"><ele>171.25</ele><time>2026-08-17T20:54:06.000Z</time><extensions/></trkpt><trkpt lat="59.40714097581804" lon="34.68066098168492"><ele>171.25</ele><time>2026-08-17T20:54:27.000Z</time><extensions/></trkpt><trkpt lat="59.40715715289116" lon="34.68102877959609"><ele>171.25</ele><time>2026-08-17T20:54:48.000Z</time><extensions/></trkpt><trkpt lat="59.407190177589655" lon="34.681296749040484"><ele>171.72999572753906</ele><time>2026-08-17T20:55:01.000Z</time><extensions/></trkpt><trkpt lat="59.407325042411685" lon="34.681547954678535"><ele>172.2100067138672</ele><time>2026-08-17T20:55:18.000Z</time><extensions/></trkpt><trkpt lat="59.407423194497824" lon="34.68170545063913"><ele>172.2100067138672</ele><time>2026-08-17T20:55:32.000Z</time><extensions/></trkpt><trkpt lat="59.40756317228079" lon="34.68200803734362"><ele>172.2100067138672</ele><time>2026-08-17T20:55:49.000Z</time><extensions/></trkpt><trkpt lat="59.40769812092185" lon="34.6822199318558"><ele>171.72999572753906</ele><time>2026-08-17T20:56:04.000Z</time><extensions/></trkpt><trkpt lat="59.4078007992357" lon="34.68236912973225"><ele>171.25</ele><time>2026-08-17T20:56:15.000Z</time><extensions/></trkpt><trkpt lat="59.407917726784945" lon="34.682582784444094"><ele>171.25</ele><time>2026-08-17T20:56:30.000Z</time><extensions/></trkpt><trkpt lat="59.408027194440365" lon="34.682746566832066"><ele>170.77000427246094</ele><time>2026-08-17T20:56:45.000Z</time><extensions/></trkpt><trkpt lat="59.40812358632684" lon="34.68290297314525"><ele>170.77000427246094</ele><time>2026-08-17T20:56:59.000Z</time><extensions/></trkpt><trkpt lat="59.40815946087241" lon="34.682976650074124"><ele>170.77000427246094</ele><time>2026-08-17T20:57:04.000Z</time><extensions/></trkpt><trkpt lat="59.408206483349204" lon="34.68304571695626"><ele>170.77000427246094</ele><time>2026-08-17T20:57:09.000Z</time><extensions/></trkpt><trkpt lat="59.40833413973451" lon="34.68327093869448"><ele>170.2899932861328</ele><time>2026-08-17T20:57:25.000Z</time><extensions/></trkpt><trkpt lat="59.40840236842632" lon="34.6833732817322"><ele>169.80999755859375</ele><time>2026-08-17T20:57:35.000Z</time><extensions/></trkpt><trkpt lat="59.40844603814185" lon="34.68343245796859"><ele>169.80999755859375</ele><time>2026-08-17T20:57:40.000Z</time><extensions/></trkpt><trkpt lat="59.408519295975566" lon="34.68354234471917"><ele>169.80999755859375</ele><time>2026-08-17T20:57:49.000Z</time><extensions/></trkpt><trkpt lat="59.40855332650244" lon="34.6835770457983"><ele>169.80999755859375</ele><time>2026-08-17T20:57:53.000Z</time><extensions/></trkpt><trkpt lat="59.40860345028341" lon="34.68364887870848"><ele>169.3300018310547</ele><time>2026-08-17T20:57:59.000Z</time><extensions/></trkpt><trkpt lat="59.40869238227606" lon="34.68390134163201"><ele>169.80999755859375</ele><time>2026-08-17T20:58:15.000Z</time><extensions/></trkpt><trkpt lat="59.40872767008841" lon="34.68397703021765"><ele>169.3300018310547</ele><time>2026-08-17T20:58:21.000Z</time><extensions/></trkpt><trkpt lat="59.40878005698323" lon="34.68409303575754"><ele>169.80999755859375</ele><time>2026-08-17T20:58:28.000Z</time><extensions/></trkpt><trkpt lat="59.40888256765902" lon="34.68432395718992"><ele>169.3300018310547</ele><time>2026-08-17T20:58:43.000Z</time><extensions/></trkpt><trkpt lat="59.40898222848773" lon="34.684575498104095"><ele>169.3300018310547</ele><time>2026-08-17T20:58:58.000Z</time><extensions/></trkpt><trkpt lat="59.40907208248973" lon="34.68486458994448"><ele>168.85000610351562</ele><time>2026-08-17T20:59:16.000Z</time><extensions/></trkpt><trkpt lat="59.40914022736251" lon="34.68508528545499"><ele>169.3300018310547</ele><time>2026-08-17T20:59:28.000Z</time><extensions/></trkpt><trkpt lat="59.4092152453959" lon="34.68538837507367"><ele>169.3300018310547</ele><time>2026-08-17T20:59:44.000Z</time><extensions/></trkpt><trkpt lat="59.40922153182328" lon="34.68540555797517"><ele>169.3300018310547</ele><time>2026-08-17T20:59:45.000Z</time><extensions/></trkpt><trkpt lat="59.40924307331443" lon="34.685450149700046"><ele>169.3300018310547</ele><time>2026-08-17T20:59:48.000Z</time><extensions/></trkpt><trkpt lat="59.409260926768184" lon="34.6855163667351"><ele>169.3300018310547</ele><time>2026-08-17T20:59:52.000Z</time><extensions/></trkpt><trkpt lat="59.409294789657" lon="34.68560932204127"><ele>168.85000610351562</ele><time>2026-08-17T20:59:57.000Z</time><extensions/></trkpt><trkpt lat="59.40934684127569" lon="34.68574485741556"><ele>168.85000610351562</ele><time>2026-08-17T21:00:05.000Z</time><extensions/></trkpt><trkpt lat="59.40936184488237" lon="34.68580084852874"><ele>168.85000610351562</ele><time>2026-08-17T21:00:08.000Z</time><extensions/></trkpt><trkpt lat="59.409469133242965" lon="34.686067225411534"><ele>168.85000610351562</ele><time>2026-08-17T21:00:24.000Z</time><extensions/></trkpt><trkpt lat="59.40950073301792" lon="34.68615557067096"><ele>168.3699951171875</ele><time>2026-08-17T21:00:29.000Z</time><extensions/></trkpt><trkpt lat="59.40954968333244" lon="34.68636562116444"><ele>167.88999938964844</ele><time>2026-08-17T21:00:40.000Z</time><extensions/></trkpt><trkpt lat="59.40958363004029" lon="34.68675462529063"><ele>167.41000366210938</ele><time>2026-08-17T21:00:59.000Z</time><extensions/></trkpt><trkpt lat="59.40958698280156" lon="34.687069449573755"><ele>168.3699951171875</ele><time>2026-08-17T21:01:15.000Z</time><extensions/></trkpt><trkpt lat="59.4095794390887" lon="34.68732149340212"><ele>169.3300018310547</ele><time>2026-08-17T21:01:28.000Z</time><extensions/></trkpt><trkpt lat="59.40957843326032" lon="34.687382178381085"><ele>169.3300018310547</ele><time>2026-08-17T21:01:31.000Z</time><extensions/></trkpt><trkpt lat="59.40956653095782" lon="34.68761142343283"><ele>169.80999755859375</ele><time>2026-08-17T21:01:45.000Z</time><extensions/></trkpt><trkpt lat="59.4095709733665" lon="34.68780663795769"><ele>169.80999755859375</ele><time>2026-08-17T21:02:01.000Z</time><extensions/></trkpt><trkpt lat="59.40957457758486" lon="34.687960697337985"><ele>169.80999755859375</ele><time>2026-08-17T21:02:11.000Z</time><extensions/></trkpt><trkpt lat="59.40957315266132" lon="34.68801559880376"><ele>169.80999755859375</ele><time>2026-08-17T21:02:14.000Z</time><extensions/></trkpt><trkpt lat="59.409585976973176" lon="34.688206454738975"><ele>170.2899932861328</ele><time>2026-08-17T21:02:26.000Z</time><extensions/></trkpt><trkpt lat="59.40959796309471" lon="34.68836596235633"><ele>170.77000427246094</ele><time>2026-08-17T21:02:46.000Z</time><extensions/></trkpt><trkpt lat="59.40960827283561" lon="34.68841575086117"><ele>170.77000427246094</ele><time>2026-08-17T21:03:17.000Z</time><extensions/></trkpt><trkpt lat="59.40963786095381" lon="34.68868003226817"><ele>170.77000427246094</ele><time>2026-08-17T21:03:31.000Z</time><extensions/></trkpt><trkpt lat="59.40962528809905" lon="34.68897012993693"><ele>170.77000427246094</ele><time>2026-08-17T21:03:45.000Z</time><extensions/></trkpt><trkpt lat="59.409543396905065" lon="34.689240865409374"><ele>170.2899932861328</ele><time>2026-08-17T21:04:00.000Z</time><extensions/></trkpt><trkpt lat="59.40944432280958" lon="34.689448988065124"><ele>168.85000610351562</ele><time>2026-08-17T21:04:16.000Z</time><extensions/></trkpt><trkpt lat="59.40936477854848" lon="34.68963204883039"><ele>167.88999938964844</ele><time>2026-08-17T21:04:28.000Z</time><extensions/></trkpt><trkpt lat="59.409281462430954" lon="34.689873196184635"><ele>167.41000366210938</ele><time>2026-08-17T21:04:42.000Z</time><extensions/></trkpt><trkpt lat="59.409270733594894" lon="34.689918123185635"><ele>166.92999267578125</ele><time>2026-08-17T21:04:45.000Z</time><extensions/></trkpt><trkpt lat="59.40918708220124" lon="34.69012012705207"><ele>166.92999267578125</ele><time>2026-08-17T21:04:58.000Z</time><extensions/></trkpt><trkpt lat="59.40912405028939" lon="34.69030394218862"><ele>166.4499969482422</ele><time>2026-08-17T21:05:10.000Z</time><extensions/></trkpt><trkpt lat="59.409073339775205" lon="34.69059177674353"><ele>167.41000366210938</ele><time>2026-08-17T21:05:26.000Z</time><extensions/></trkpt><trkpt lat="59.409012822434306" lon="34.69088204205036"><ele>167.41000366210938</ele><time>2026-08-17T21:05:41.000Z</time><extensions/></trkpt><trkpt lat="59.408962866291404" lon="34.69116375781596"><ele>167.88999938964844</ele><time>2026-08-17T21:05:56.000Z</time><extensions/></trkpt><trkpt lat="59.408934535458684" lon="34.691403144970536"><ele>168.85000610351562</ele><time>2026-08-17T21:06:09.000Z</time><extensions/></trkpt><trkpt lat="59.40893009305" lon="34.69144002534449"><ele>168.85000610351562</ele><time>2026-08-17T21:06:11.000Z</time><extensions/></trkpt><trkpt lat="59.40890503115952" lon="34.69178594648838"><ele>169.3300018310547</ele><time>2026-08-17T21:06:29.000Z</time><extensions/></trkpt><trkpt lat="59.40890653990209" lon="34.69196515157819"><ele>168.85000610351562</ele><time>2026-08-17T21:06:37.000Z</time><extensions/></trkpt><trkpt lat="59.408937469124794" lon="34.69219489954412"><ele>168.3699951171875</ele><time>2026-08-17T21:06:48.000Z</time><extensions/></trkpt><trkpt lat="59.40895892679691" lon="34.69226874411106"><ele>167.88999938964844</ele><time>2026-08-17T21:06:52.000Z</time><extensions/></trkpt><trkpt lat="59.40905104391277" lon="34.69242364168167"><ele>167.41000366210938</ele><time>2026-08-17T21:07:04.000Z</time><extensions/></trkpt><trkpt lat="59.409187752753496" lon="34.69258616678417"><ele>167.41000366210938</ele><time>2026-08-17T21:07:23.000Z</time><extensions/></trkpt><trkpt lat="59.40923645161092" lon="34.692651797086"><ele>167.41000366210938</ele><time>2026-08-17T21:07:29.000Z</time><extensions/></trkpt><trkpt lat="59.409282468259335" lon="34.692710638046265"><ele>167.41000366210938</ele><time>2026-08-17T21:07:34.000Z</time><extensions/></trkpt><trkpt lat="59.409392857924104" lon="34.69289319589734"><ele>167.41000366210938</ele><time>2026-08-17T21:07:47.000Z</time><extensions/></trkpt><trkpt lat="59.40948849543929" lon="34.69308556057513"><ele>167.41000366210938</ele><time>2026-08-17T21:08:01.000Z</time><extensions/></trkpt><trkpt lat="59.409600561484694" lon="34.693247163668275"><ele>166.92999267578125</ele><time>2026-08-17T21:08:14.000Z</time><extensions/></trkpt><trkpt lat="59.40966468304396" lon="34.693330228328705"><ele>166.92999267578125</ele><time>2026-08-17T21:08:22.000Z</time><extensions/></trkpt><trkpt lat="59.40969946794212" lon="34.69337389804423"><ele>166.92999267578125</ele><time>2026-08-17T21:08:26.000Z</time><extensions/></trkpt><trkpt lat="59.409816982224584" lon="34.69349753111601"><ele>166.92999267578125</ele><time>2026-08-17T21:08:38.000Z</time><extensions/></trkpt><trkpt lat="59.409954361617565" lon="34.693643879145384"><ele>166.4499969482422</ele><time>2026-08-17T21:08:52.000Z</time><extensions/></trkpt><trkpt lat="59.40997472964227" lon="34.693666342645884"><ele>166.4499969482422</ele><time>2026-08-17T21:08:54.000Z</time><extensions/></trkpt><trkpt lat="59.41001437604427" lon="34.69372836872935"><ele>165.9600067138672</ele><time>2026-08-17T21:09:09.000Z</time><extensions/></trkpt><trkpt lat="59.41010448150337" lon="34.69386013224721"><ele>165.47999572753906</ele><time>2026-08-17T21:09:30.000Z</time><extensions/></trkpt><trkpt lat="59.41020095720887" lon="34.69405953772366"><ele>164.0399932861328</ele><time>2026-08-17T21:09:44.000Z</time><extensions/></trkpt><trkpt lat="59.410312520340085" lon="34.69451333396137"><ele>164.0399932861328</ele><time>2026-08-17T21:10:09.000Z</time><extensions/></trkpt><trkpt lat="59.41033313982189" lon="34.69462816603482"><ele>164.0399932861328</ele><time>2026-08-17T21:10:15.000Z</time><extensions/></trkpt><trkpt lat="59.41037127748132" lon="34.69487652182579"><ele>164.52000427246094</ele><time>2026-08-17T21:10:26.000Z</time><extensions/></trkpt><trkpt lat="59.41037379205227" lon="34.69489311799407"><ele>165.0</ele><time>2026-08-17T21:10:54.000Z</time><extensions/></trkpt><trkpt lat="59.41032643429935" lon="34.69468139111996"><ele>164.52000427246094</ele><time>2026-08-17T21:11:06.000Z</time><extensions/></trkpt><trkpt lat="59.410247979685664" lon="34.69432239420712"><ele>164.0399932861328</ele><time>2026-08-17T21:11:23.000Z</time><extensions/></trkpt><trkpt lat="59.41024353727698" lon="34.69430177472532"><ele>164.0399932861328</ele><time>2026-08-17T21:11:24.000Z</time><extensions/></trkpt><trkpt lat="59.41020514816046" lon="34.69418509863317"><ele>164.0399932861328</ele><time>2026-08-17T21:11:30.000Z</time><extensions/></trkpt><trkpt lat="59.41009341739118" lon="34.69389223493636"><ele>164.0399932861328</ele><time>2026-08-17T21:11:47.000Z</time><extensions/></trkpt><trkpt lat="59.40997523255646" lon="34.693715292960405"><ele>165.47999572753906</ele><time>2026-08-17T21:12:03.000Z</time><extensions/></trkpt><trkpt lat="59.40987238660455" lon="34.693585289642215"><ele>166.4499969482422</ele><time>2026-08-17T21:12:15.000Z</time><extensions/></trkpt><trkpt lat="59.40971673466265" lon="34.693420669063926"><ele>166.92999267578125</ele><time>2026-08-17T21:12:31.000Z</time><extensions/></trkpt><trkpt lat="59.4095831271261" lon="34.693253953009844"><ele>166.92999267578125</ele><time>2026-08-17T21:12:46.000Z</time><extensions/></trkpt><trkpt lat="59.40946016460657" lon="34.693054631352425"><ele>167.41000366210938</ele><time>2026-08-17T21:13:01.000Z</time><extensions/></trkpt><trkpt lat="59.409344997256994" lon="34.69280074350536"><ele>167.41000366210938</ele><time>2026-08-17T21:13:17.000Z</time><extensions/></trkpt><trkpt lat="59.4092599209398" lon="34.69266017898917"><ele>167.41000366210938</ele><time>2026-08-17T21:13:27.000Z</time><extensions/></trkpt><trkpt lat="59.40909253433347" lon="34.69249195419252"><ele>167.41000366210938</ele><time>2026-08-17T21:13:44.000Z</time><extensions/></trkpt><trkpt lat="59.408958088606596" lon="34.69227268360555"><ele>167.41000366210938</ele><time>2026-08-17T21:14:00.000Z</time><extensions/></trkpt><trkpt lat="59.40895146690309" lon="34.692256757989526"><ele>167.41000366210938</ele><time>2026-08-17T21:14:01.000Z</time><extensions/></trkpt><trkpt lat="59.408908132463694" lon="34.69206682406366"><ele>168.3699951171875</ele><time>2026-08-17T21:14:17.000Z</time><extensions/></trkpt><trkpt lat="59.408900421112776" lon="34.69178603030741"><ele>168.85000610351562</ele><time>2026-08-17T21:14:31.000Z</time><extensions/></trkpt><trkpt lat="59.40884987823665" lon="34.69172987155616"><ele>169.3300018310547</ele><time>2026-08-17T21:14:40.000Z</time><extensions/></trkpt><trkpt lat="59.40882087685168" lon="34.69179382547736"><ele>169.3300018310547</ele><time>2026-08-17T21:14:44.000Z</time><extensions/></trkpt><trkpt lat="59.40872373059392" lon="34.69212993979454"><ele>168.85000610351562</ele><time>2026-08-17T21:15:02.000Z</time><extensions/></trkpt><trkpt lat="59.408679055050015" lon="34.69228517264128"><ele>167.88999938964844</ele><time>2026-08-17T21:15:20.000Z</time><extensions/></trkpt><trkpt lat="59.408679055050015" lon="34.69228517264128"><ele>167.88999938964844</ele><time>2026-08-17T21:15:28.000Z</time><extensions/></trkpt><trkpt lat="59.408651646226645" lon="34.692374439910054"><ele>167.88999938964844</ele><time>2026-08-17T21:15:31.000Z</time><extensions/></trkpt><trkpt lat="59.40861686132848" lon="34.69245926477015"><ele>167.88999938964844</ele><time>2026-08-17T21:15:36.000Z</time><extensions/></trkpt><trkpt lat="59.40853329375386" lon="34.692816250026226"><ele>167.88999938964844</ele><time>2026-08-17T21:15:54.000Z</time><extensions/></trkpt><trkpt lat="59.40848593600094" lon="34.69312772154808"><ele>168.3699951171875</ele><time>2026-08-17T21:16:11.000Z</time><extensions/></trkpt><trkpt lat="59.408448887988925" lon="34.6933529432863"><ele>167.88999938964844</ele><time>2026-08-17T21:16:23.000Z</time><extensions/></trkpt><trkpt lat="59.408411253243685" lon="34.6936499979347"><ele>167.41000366210938</ele><time>2026-08-17T21:16:37.000Z</time><extensions/></trkpt><trkpt lat="59.40838694572449" lon="34.693796932697296"><ele>166.92999267578125</ele><time>2026-08-17T21:16:45.000Z</time><extensions/></trkpt><trkpt lat="59.40835626795888" lon="34.6939399279654"><ele>166.92999267578125</ele><time>2026-08-17T21:16:53.000Z</time><extensions/></trkpt><trkpt lat="59.408349227160215" lon="34.69402517192066"><ele>166.92999267578125</ele><time>2026-08-17T21:16:58.000Z</time><extensions/></trkpt><trkpt lat="59.408333050087094" lon="34.69412944279611"><ele>166.92999267578125</ele><time>2026-08-17T21:17:04.000Z</time><extensions/></trkpt><trkpt lat="59.40830245614052" lon="34.69432985410094"><ele>166.4499969482422</ele><time>2026-08-17T21:17:15.000Z</time><extensions/></trkpt><trkpt lat="59.40827026963234" lon="34.694570498541"><ele>166.4499969482422</ele><time>2026-08-17T21:17:29.000Z</time><extensions/></trkpt><trkpt lat="59.408222660422325" lon="34.694840647280216"><ele>165.9600067138672</ele><time>2026-08-17T21:17:43.000Z</time><extensions/></trkpt><trkpt lat="59.40819977782667" lon="34.6950522903353"><ele>165.9600067138672</ele><time>2026-08-17T21:17:56.000Z</time><extensions/></trkpt><trkpt lat="59.408203633502126" lon="34.695093696936965"><ele>165.9600067138672</ele><time>2026-08-17T21:17:58.000Z</time><extensions/></trkpt><trkpt lat="59.408198688179255" lon="34.69531338661909"><ele>165.47999572753906</ele><time>2026-08-17T21:18:10.000Z</time><extensions/></trkpt><trkpt lat="59.408168848603964" lon="34.69558018259704"><ele>165.47999572753906</ele><time>2026-08-17T21:18:24.000Z</time><extensions/></trkpt><trkpt lat="59.408135237172246" lon="34.69583289697766"><ele>165.0</ele><time>2026-08-17T21:18:41.000Z</time><extensions/></trkpt><trkpt lat="59.40808184444904" lon="34.696151074022055"><ele>165.0</ele><time>2026-08-17T21:19:00.000Z</time><extensions/></trkpt><trkpt lat="59.408028619363904" lon="34.6964976657182"><ele>165.47999572753906</ele><time>2026-08-17T21:19:21.000Z</time><extensions/></trkpt><trkpt lat="59.407966677099466" lon="34.69687996432185"><ele>165.9600067138672</ele><time>2026-08-17T21:19:44.000Z</time><extensions/></trkpt><trkpt lat="59.407857628539205" lon="34.69714282080531"><ele>165.9600067138672</ele><time>2026-08-17T21:20:10.000Z</time><extensions/></trkpt><trkpt lat="59.407747155055404" lon="34.6972918510437"><ele>166.4499969482422</ele><time>2026-08-17T21:20:28.000Z</time><extensions/></trkpt><trkpt lat="59.40771949477494" lon="34.69733426347375"><ele>166.4499969482422</ele><time>2026-08-17T21:20:31.000Z</time><extensions/></trkpt><trkpt lat="59.40760223194957" lon="34.69755236059427"><ele>165.9600067138672</ele><time>2026-08-17T21:20:47.000Z</time><extensions/></trkpt><trkpt lat="59.40753341652453" lon="34.69784388318658"><ele>165.9600067138672</ele><time>2026-08-17T21:21:05.000Z</time><extensions/></trkpt><trkpt lat="59.407389499247074" lon="34.69817119650543"><ele>166.92999267578125</ele><time>2026-08-17T21:21:30.000Z</time><extensions/></trkpt><trkpt lat="59.40733158029616" lon="34.6983019541949"><ele>167.41000366210938</ele><time>2026-08-17T21:21:53.000Z</time><extensions/></trkpt><trkpt lat="59.407241055741906" lon="34.69854502938688"><ele>167.88999938964844</ele><time>2026-08-17T21:22:08.000Z</time><extensions/></trkpt><trkpt lat="59.40715388394892" lon="34.69880226999521"><ele>167.41000366210938</ele><time>2026-08-17T21:22:26.000Z</time><extensions/></trkpt><trkpt lat="59.407053384929895" lon="34.69914115034044"><ele>167.41000366210938</ele><time>2026-08-17T21:22:48.000Z</time><extensions/></trkpt><trkpt lat="59.40696763806045" lon="34.69949838705361"><ele>166.4499969482422</ele><time>2026-08-17T21:23:11.000Z</time><extensions/></trkpt><trkpt lat="59.40687317401171" lon="34.69991781748831"><ele>165.9600067138672</ele><time>2026-08-17T21:23:35.000Z</time><extensions/></trkpt><trkpt lat="59.40677594393492" lon="34.700319059193134"><ele>165.9600067138672</ele><time>2026-08-17T21:23:59.000Z</time><extensions/></trkpt><trkpt lat="59.406695645302534" lon="34.70066414214671"><ele>165.9600067138672</ele><time>2026-08-17T21:24:21.000Z</time><extensions/></trkpt><trkpt lat="59.40658609382808" lon="34.70116806216538"><ele>165.9600067138672</ele><time>2026-08-17T21:24:49.000Z</time><extensions/></trkpt><trkpt lat="59.40648685209453" lon="34.70161632634699"><ele>165.47999572753906</ele><time>2026-08-17T21:25:14.000Z</time><extensions/></trkpt><trkpt lat="59.40642918460071" lon="34.7019128780812"><ele>165.47999572753906</ele><time>2026-08-17T21:25:29.000Z</time><extensions/></trkpt><trkpt lat="59.40636514686048" lon="34.70227003097534"><ele>165.9600067138672</ele><time>2026-08-17T21:25:49.000Z</time><extensions/></trkpt><trkpt lat="59.40635986626148" lon="34.702284364029765"><ele>165.9600067138672</ele><time>2026-08-17T21:25:50.000Z</time><extensions/></trkpt><trkpt lat="59.40631225705147" lon="34.70253196544945"><ele>165.9600067138672</ele><time>2026-08-17T21:26:04.000Z</time><extensions/></trkpt><trkpt lat="59.406253499910235" lon="34.702836563810706"><ele>165.47999572753906</ele><time>2026-08-17T21:26:22.000Z</time><extensions/></trkpt><trkpt lat="59.40620178356767" lon="34.70314652658999"><ele>165.0</ele><time>2026-08-17T21:26:38.000Z</time><extensions/></trkpt><trkpt lat="59.406180744990706" lon="34.703366132453084"><ele>164.52000427246094</ele><time>2026-08-17T21:26:58.000Z</time><extensions/></trkpt><trkpt lat="59.40618988126516" lon="34.70337334088981"><ele>164.0399932861328</ele><time>2026-08-17T21:27:51.000Z</time><extensions/></trkpt><trkpt lat="59.40615048632026" lon="34.70345833338797"><ele>164.0399932861328</ele><time>2026-08-17T21:29:19.000Z</time><extensions/></trkpt><trkpt lat="59.40605325624347" lon="34.703771732747555"><ele>163.0800018310547</ele><time>2026-08-17T21:29:44.000Z</time><extensions/></trkpt><trkpt lat="59.40600321628153" lon="34.70400977879763"><ele>163.0800018310547</ele><time>2026-08-17T21:30:07.000Z</time><extensions/></trkpt><trkpt lat="59.40590338781476" lon="34.704297948628664"><ele>163.0800018310547</ele><time>2026-08-17T21:30:24.000Z</time><extensions/></trkpt><trkpt lat="59.405741365626454" lon="34.70481812953949"><ele>163.55999755859375</ele><time>2026-08-17T21:30:52.000Z</time><extensions/></trkpt><trkpt lat="59.40572116523981" lon="34.7048675827682"><ele>163.55999755859375</ele><time>2026-08-17T21:30:55.000Z</time><extensions/></trkpt><trkpt lat="59.40568688325584" lon="34.704971853643656"><ele>163.55999755859375</ele><time>2026-08-17T21:31:00.000Z</time><extensions/></trkpt><trkpt lat="59.40564279444516" lon="34.70530386082828"><ele>163.55999755859375</ele><time>2026-08-17T21:31:17.000Z</time><extensions/></trkpt><trkpt lat="59.405611362308264" lon="34.705583145841956"><ele>164.0399932861328</ele><time>2026-08-17T21:31:32.000Z</time><extensions/></trkpt><trkpt lat="59.40558663569391" lon="34.70584566704929"><ele>164.0399932861328</ele><time>2026-08-17T21:31:46.000Z</time><extensions/></trkpt><trkpt lat="59.405584121122956" lon="34.7058673761785"><ele>164.0399932861328</ele><time>2026-08-17T21:31:47.000Z</time><extensions/></trkpt><trkpt lat="59.40555461682379" lon="34.70626677386463"><ele>164.52000427246094</ele><time>2026-08-17T21:32:09.000Z</time><extensions/></trkpt><trkpt lat="59.40552025102079" lon="34.70667656511068"><ele>164.52000427246094</ele><time>2026-08-17T21:32:31.000Z</time><extensions/></trkpt><trkpt lat="59.405510695651174" lon="34.70674244686961"><ele>163.55999755859375</ele><time>2026-08-17T21:32:57.000Z</time><extensions/></trkpt><trkpt lat="59.405473647639155" lon="34.70688594505191"><ele>163.55999755859375</ele><time>2026-08-17T21:33:56.000Z</time><extensions/></trkpt><trkpt lat="59.40537256188691" lon="34.70716807991266"><ele>163.55999755859375</ele><time>2026-08-17T21:34:12.000Z</time><extensions/></trkpt><trkpt lat="59.40535822883248" lon="34.707206385210156"><ele>163.55999755859375</ele><time>2026-08-17T21:34:14.000Z</time><extensions/></trkpt><trkpt lat="59.40531372092664" lon="34.7074078861624"><ele>164.0399932861328</ele><time>2026-08-17T21:34:24.000Z</time><extensions/></trkpt><trkpt lat="59.40529637038708" lon="34.70746295526624"><ele>164.0399932861328</ele><time>2026-08-17T21:34:27.000Z</time><extensions/></trkpt><trkpt lat="59.40528564155102" lon="34.70753403380513"><ele>164.52000427246094</ele><time>2026-08-17T21:34:30.000Z</time><extensions/></trkpt><trkpt lat="59.405258148908615" lon="34.707779539749026"><ele>164.52000427246094</ele><time>2026-08-17T21:34:43.000Z</time><extensions/></trkpt><trkpt lat="59.40523685887456" lon="34.707863526418805"><ele>165.0</ele><time>2026-08-17T21:34:55.000Z</time><extensions/></trkpt><trkpt lat="59.405235685408115" lon="34.70808958634734"><ele>164.52000427246094</ele><time>2026-08-17T21:35:06.000Z</time><extensions/></trkpt><trkpt lat="59.40522512421012" lon="34.70822193659842"><ele>164.52000427246094</ele><time>2026-08-17T21:35:12.000Z</time><extensions/></trkpt><trkpt lat="59.40519402734935" lon="34.708567187190056"><ele>163.55999755859375</ele><time>2026-08-17T21:35:27.000Z</time><extensions/></trkpt><trkpt lat="59.405165780335665" lon="34.708847142755985"><ele>163.55999755859375</ele><time>2026-08-17T21:35:39.000Z</time><extensions/></trkpt><trkpt lat="59.40522403456271" lon="34.70906767062843"><ele>163.55999755859375</ele><time>2026-08-17T21:35:51.000Z</time><extensions/></trkpt><trkpt lat="59.405284048989415" lon="34.709204379469156"><ele>163.55999755859375</ele><time>2026-08-17T21:35:59.000Z</time><extensions/></trkpt><trkpt lat="59.40534867346287" lon="34.70933513715863"><ele>164.0399932861328</ele><time>2026-08-17T21:36:07.000Z</time><extensions/></trkpt><trkpt lat="59.4054092746228" lon="34.7093593608588"><ele>165.0</ele><time>2026-08-17T21:36:26.000Z</time><extensions/></trkpt><trkpt lat="59.4054092746228" lon="34.7093593608588"><ele>165.0</ele><time>2026-08-17T21:36:42.000Z</time><extensions/></trkpt><trkpt lat="59.40494223497808" lon="34.710562666878104"><ele>166.92999267578125</ele><time>2026-08-18T03:49:16.000Z</time><extensions/></trkpt><trkpt lat="59.40487526357174" lon="34.71073198132217"><ele>166.92999267578125</ele><time>2026-08-18T03:49:19.000Z</time><extensions/></trkpt></trkseg></trk></gpx>